[[{"header":{"parameterUnit":"m.s-1","parameterCategory":1,"la1":31.0,"la2":29.5877,"lo1":-88.7671,"lo2":-86.6584,"dx":0.0162,"dy":0.0185,"nx":115,"ny":88,"refTime":"2023-01-18T18:00:00:Z","depth":0,"parameterNumber":2,"parameterNumberName":"U-component_of_WINDS"},"data":[0.0,0.0,0.0,0.0,0.0,0.0,0.0,0.0,0.0,0.0,0.0,0.0,0.0,0.0,0.0,0.0,0.0,0.0,0.0,0.0,0.0,0.0,0.0,0.0,0.0,0.0,0.0,0.0,0.0,0.0,0.0,0.0,0.0,0.0,0.0,0.0,0.0,0.0,0.0,0.0,0.0,0.0,0.0,0.0,0.0,0.0,0.0,0.0,0.0,0.0,0.0,0.0,0.0,0.0,0.0,0.0,0.0,0.0,0.0,0.0,0.0,0.0,0.0,0.0,0.0,0.0,0.0,0.0,0.0,0.0,0.0,0.0,0.0,0.0,0.0,0.0,0.0,0.0,0.0,0.0,0.0,0.0,0.0,0.0,0.0,0.0,0.0,0.0,0.0,0.0,0.0,0.0,0.0,0.0,0.0,0.0,0.0,0.0,0.0,0.0,0.0,0.0,0.0,0.0,0.0,0.0,0.0,0.0,0.0,0.0,0.0,0.0,0.0,0.0,0.0,0.0,0.0,0.0,0.0,0.0,0.0,0.0,0.0,0.0,0.0,0.0,0.0,0.0,0.0,0.0,0.0,0.0,0.0,0.0,0.0,0.0,0.0,0.0,0.0,0.0,0.0,0.0,0.0,0.0,0.0,0.0,0.0,0.0,0.0,0.0,0.0,0.0,0.0,0.0,0.0,0.0,0.0,0.0,0.0,0.0,0.0,0.0,0.0,0.0,0.0,0.0,0.0,0.0,0.0,0.0,0.0,0.0,0.0,0.0,0.0,0.0,0.0,0.0,0.0,0.0,0.0,0.0,0.0,0.0,0.0,0.0,0.0,0.0,0.0,0.0,0.0,0.0,0.0,0.0,0.0,0.0,0.0,0.0,0.0,0.0,0.0,0.0,0.0,0.0,0.0,0.0,0.0,0.0,0.0,0.0,0.0,0.0,0.0,0.0,0.0,0.0,0.0,0.0,0.0,0.0,0.0,0.0,0.0,0.0,0.0,0.0,0.0,0.0,0.0,0.0,0.0,0.0,0.0,0.0,0.0,0.0,0.0,0.0,0.0,0.0,0.0,0.0,0.0,0.0,0.0,0.0,0.0,0.0,0.0,0.0,0.0,0.0,0.0,0.0,0.0,0.0,0.0,0.0,0.0,0.0,0.0,0.0,0.0,0.0,0.0,0.0,0.0,0.0,0.0,0.0,0.0,0.0,0.0,0.0,0.0,0.0,0.0,0.0,0.0,0.0,0.0,0.0,0.0,0.0,0.0,0.0,0.0,0.0,0.0,0.0,0.0,0.0,0.0,0.0,0.0,0.0,0.0,0.0,0.0,0.0,0.0,0.0,0.0,0.0,0.0,0.0,0.0,0.0,0.0,0.0,0.0,0.0,0.0,0.0,0.0,0.0,0.0,0.0,0.0,0.0,0.0,0.0,0.0,0.0,0.0,0.0,0.0,0.0,0.0,0.0,0.0,0.0,0.0,0.0,0.0,0.0,0.0,0.0,0.0,0.0,0.0,0.0,0.0,0.0,0.0,0.0,0.0,0.0,0.0,0.0,0.0,0.0,0.0,0.0,0.0,0.0,0.0,0.0,0.0,0.0,0.0,0.0,0.0,0.0,0.0,0.0,0.0,0.0,0.0,0.0,0.0,0.0,0.0,0.0,0.0,0.0,0.0,0.0,0.0,0.0,0.0,0.0,0.0,0.0,0.0,0.0,0.0,0.0,0.0,0.0,0.0,0.0,0.0,0.0,0.0,0.0,0.0,0.0,0.0,0.0,0.0,0.0,0.0,0.0,0.0,0.0,0.0,0.0,0.0,0.0,0.0,0.0,0.0,0.0,0.0,0.0,0.0,0.0,0.0,0.0,0.0,0.0,0.0,0.0,0.0,0.0,0.0,0.0,0.0,0.0,0.0,0.0,0.0,0.0,0.0,0.0,0.0,0.0,0.0,0.0,0.0,0.0,0.0,0.0,0.0,0.0,0.0,0.0,0.0,0.0,0.0,0.0,0.0,0.0,0.0,0.0,0.0,0.0,0.0,0.0,0.0,0.0,0.0,0.0,0.0,0.0,0.0,0.0,0.0,0.0,0.0,0.0,0.0,0.0,0.0,0.0,0.0,0.0,0.0,0.0,0.0,0.0,0.0,0.0,0.0,0.0,0.0,0.0,0.0,0.0,0.0,0.0,0.0,0.0,0.0,0.0,0.0,0.0,0.0,0.0,0.0,0.0,0.0,0.0,0.0,0.0,0.0,0.0,0.0,0.0,0.0,0.0,0.0,0.0,0.0,0.0,0.0,0.0,0.0,0.0,0.0,0.0,0.0,0.0,0.0,0.0,0.0,0.0,0.0,0.0,0.0,0.0,0.0,0.0,0.0,0.0,0.0,0.0,0.0,0.0,0.0,0.0,0.0,0.0,0.0,0.0,0.0,0.0,0.0,0.0,0.0,0.0,0.0,0.0,0.0,0.0,0.0,0.0,0.0,0.0,0.0,0.0,0.0,0.0,0.0,0.0,0.0,0.0,0.0,0.0,0.0,0.0,0.0,0.0,0.0,0.0,0.0,0.0,0.0,0.0,0.0,0.0,0.0,0.0,0.0,0.0,0.0,0.0,0.0,0.0,0.0,0.0,0.0,0.0,0.0,0.0,0.0,0.0,0.0,0.0,0.0,0.0,0.0,0.0,0.0,0.0,0.0,0.0,0.0,0.0,0.0,0.0,0.0,0.0,0.0,0.0,0.0,0.0,0.0,0.0,0.0,0.0,0.0,0.0,0.0,0.0,0.0,0.0,0.0,0.0,0.0,0.0,0.0,0.0,0.0,0.0,0.0,0.0,0.0,0.0,0.0,0.0,0.0,0.0,0.0,0.0,0.0,0.0,0.0,0.0,0.0,0.0,0.0,0.0,0.0,0.0,0.0,0.0,0.0,0.0,0.0,0.0,0.0,0.0,0.0,0.0,0.0,0.0,0.0,0.0,0.0,0.0,0.0,0.0,0.0,0.0,0.0,0.0,0.0,0.0,0.0,0.0,0.0,0.0,0.0,0.0,0.0,0.0,0.0,0.0,0.0,0.0,0.0,0.0,0.0,0.0,0.0,0.0,0.0,0.0,0.0,0.0,0.0,0.0,0.0,0.0,0.0,0.0,0.0,0.0,0.0,0.0,0.0,0.0,0.0,0.0,0.0,0.0,0.0,0.0,0.0,0.0,0.0,0.0,0.0,0.0,0.0,0.0,0.0,0.0,0.0,0.0,0.0,0.0,0.0,0.0,0.0,0.0,0.0,0.0,0.0,0.0,0.0,0.0,0.0,0.0,0.0,0.0,0.0,0.0,0.0,0.0,0.0,0.0,0.0,0.0,0.0,0.0,0.0,0.0,0.0,0.0,0.0,0.0,0.0,0.0,0.0,0.0,0.0,0.0,0.0,0.0,0.0,0.0,0.0,0.0,0.0,0.0,0.0,0.0,0.0,0.0,0.0,0.0,0.0,0.0,0.0,0.0,0.0,0.0,0.0,0.0,0.0,0.0,0.0,0.0,0.0,0.0,0.0,0.0,0.0,0.0,0.0,0.0,0.0,0.0,0.0,0.0,0.0,0.0,0.0,0.0,0.0,0.0,0.0,0.0,0.0,0.0,0.0,0.0,0.0,0.0,0.0,0.0,0.0,0.0,0.0,0.0,0.0,0.0,0.0,0.0,0.0,0.0,0.0,0.0,0.0,0.0,0.0,0.0,0.0,0.0,0.0,0.0,0.0,0.0,0.0,0.0,0.0,0.0,0.0,0.0,0.0,0.0,0.0,0.0,0.0,0.0,0.0,0.0,0.0,0.0,0.0,0.0,0.0,0.0,0.0,0.0,0.0,0.0,0.0,0.0,0.0,0.0,0.0,0.0,0.0,0.0,0.0,0.0,0.0,0.0,0.0,0.0,0.0,0.0,0.0,0.0,0.0,0.0,0.0,0.0,0.0,0.0,0.0,0.0,0.0,0.0,0.0,0.0,0.0,0.0,0.0,0.0,0.0,0.0,0.0,0.0,0.0,0.0,0.0,0.0,0.0,0.0,0.0,0.0,0.0,0.0,0.0,0.0,0.0,0.0,0.0,0.0,0.0,0.0,0.0,0.0,0.0,0.0,0.0,0.0,0.0,0.0,0.0,0.0,0.0,0.0,0.0,0.0,0.0,0.0,0.0,0.0,0.0,0.0,0.0,0.0,0.0,0.0,0.0,0.0,0.0,0.0,0.0,0.0,0.0,0.0,0.0,0.0,0.0,0.0,0.0,0.0,0.0,0.0,-5.1213,0.0,0.0,0.0,0.0,0.0,0.0,0.0,0.0,0.0,0.0,0.0,0.0,0.0,0.0,0.0,0.0,0.0,0.0,0.0,0.0,0.0,0.0,0.0,0.0,0.0,0.0,0.0,0.0,0.0,0.0,0.0,0.0,0.0,0.0,0.0,0.0,0.0,0.0,0.0,0.0,0.0,0.0,0.0,0.0,0.0,0.0,0.0,0.0,0.0,0.0,0.0,0.0,0.0,0.0,0.0,0.0,0.0,0.0,0.0,0.0,0.0,0.0,0.0,0.0,0.0,0.0,0.0,0.0,0.0,0.0,0.0,0.0,0.0,0.0,0.0,0.0,0.0,0.0,0.0,0.0,0.0,0.0,0.0,0.0,0.0,0.0,0.0,0.0,0.0,0.0,0.0,0.0,0.0,0.0,0.0,0.0,0.0,0.0,0.0,0.0,0.0,0.0,0.0,0.0,0.0,0.0,0.0,0.0,0.0,0.0,-5.0462,-5.1336,-5.0079,-4.9978,-5.1252,0.0,0.0,0.0,0.0,0.0,0.0,0.0,0.0,0.0,0.0,0.0,0.0,0.0,0.0,0.0,0.0,0.0,0.0,0.0,0.0,0.0,0.0,0.0,0.0,0.0,0.0,0.0,0.0,0.0,0.0,0.0,0.0,0.0,0.0,0.0,0.0,0.0,0.0,0.0,0.0,0.0,0.0,0.0,0.0,0.0,0.0,0.0,0.0,0.0,0.0,0.0,0.0,0.0,0.0,0.0,0.0,0.0,0.0,0.0,0.0,0.0,0.0,0.0,0.0,0.0,0.0,0.0,0.0,0.0,0.0,0.0,0.0,0.0,0.0,0.0,0.0,0.0,0.0,0.0,0.0,0.0,0.0,0.0,0.0,0.0,0.0,0.0,0.0,0.0,0.0,0.0,0.0,0.0,0.0,0.0,0.0,0.0,0.0,0.0,0.0,0.0,0.0,0.0,0.0,0.0,0.0,0.0,0.0,0.0,0.0,0.0,0.0,-5.0087,-4.9985,-5.1222,0.0,0.0,0.0,0.0,0.0,0.0,0.0,0.0,0.0,0.0,0.0,0.0,0.0,0.0,0.0,0.0,0.0,0.0,0.0,0.0,0.0,0.0,0.0,0.0,0.0,0.0,0.0,0.0,0.0,0.0,0.0,0.0,0.0,0.0,0.0,0.0,0.0,0.0,0.0,0.0,0.0,0.0,0.0,0.0,0.0,0.0,0.0,0.0,0.0,0.0,0.0,0.0,0.0,0.0,0.0,0.0,0.0,0.0,0.0,0.0,0.0,0.0,0.0,0.0,0.0,0.0,0.0,0.0,0.0,0.0,0.0,0.0,0.0,0.0,0.0,0.0,0.0,0.0,0.0,0.0,0.0,0.0,0.0,0.0,0.0,0.0,0.0,0.0,0.0,0.0,0.0,0.0,0.0,0.0,0.0,0.0,0.0,0.0,0.0,0.0,0.0,0.0,0.0,0.0,0.0,0.0,0.0,0.0,0.0,0.0,-5.1305,-5.1396,-5.1227,0.0,-5.132,0.0,0.0,0.0,0.0,0.0,0.0,0.0,0.0,0.0,0.0,0.0,0.0,0.0,0.0,0.0,0.0,0.0,0.0,0.0,0.0,0.0,0.0,0.0,0.0,0.0,0.0,0.0,0.0,0.0,0.0,0.0,0.0,0.0,0.0,0.0,0.0,0.0,0.0,0.0,0.0,0.0,0.0,0.0,0.0,0.0,0.0,0.0,0.0,0.0,0.0,0.0,0.0,0.0,0.0,0.0,0.0,0.0,0.0,0.0,0.0,0.0,0.0,0.0,0.0,0.0,0.0,0.0,0.0,0.0,0.0,0.0,0.0,0.0,0.0,0.0,0.0,0.0,0.0,0.0,0.0,0.0,0.0,0.0,0.0,0.0,0.0,0.0,0.0,0.0,0.0,0.0,0.0,0.0,0.0,0.0,0.0,0.0,0.0,0.0,0.0,0.0,0.0,0.0,0.0,0.0,0.0,0.0,0.0,0.0,0.0,-5.1391,-5.1399,-5.1356,-5.1324,0.0,0.0,0.0,0.0,0.0,0.0,0.0,0.0,0.0,0.0,0.0,0.0,0.0,0.0,0.0,0.0,0.0,0.0,0.0,0.0,0.0,0.0,0.0,0.0,0.0,0.0,0.0,0.0,0.0,0.0,0.0,0.0,0.0,0.0,0.0,0.0,0.0,0.0,0.0,0.0,0.0,0.0,0.0,0.0,0.0,0.0,0.0,0.0,0.0,0.0,0.0,0.0,0.0,0.0,0.0,0.0,0.0,0.0,0.0,0.0,0.0,0.0,0.0,0.0,0.0,0.0,0.0,0.0,0.0,0.0,0.0,0.0,0.0,0.0,0.0,0.0,0.0,0.0,0.0,0.0,0.0,0.0,0.0,0.0,0.0,0.0,0.0,0.0,0.0,0.0,0.0,0.0,0.0,0.0,0.0,0.0,0.0,0.0,0.0,0.0,0.0,0.0,0.0,0.0,0.0,0.0,0.0,0.0,0.0,0.0,-5.1282,-5.1399,-5.1391,-5.1335,-5.1304,-5.132,0.0,0.0,0.0,0.0,0.0,0.0,0.0,0.0,0.0,0.0,0.0,0.0,0.0,0.0,0.0,0.0,0.0,0.0,0.0,0.0,0.0,0.0,0.0,0.0,0.0,0.0,0.0,0.0,0.0,0.0,0.0,0.0,0.0,0.0,0.0,0.0,0.0,0.0,0.0,0.0,0.0,0.0,0.0,0.0,0.0,0.0,0.0,0.0,0.0,0.0,0.0,0.0,0.0,0.0,0.0,0.0,0.0,0.0,0.0,0.0,0.0,0.0,0.0,0.0,0.0,0.0,0.0,0.0,0.0,0.0,0.0,0.0,0.0,0.0,0.0,0.0,0.0,0.0,0.0,0.0,0.0,0.0,0.0,0.0,0.0,0.0,0.0,0.0,0.0,0.0,0.0,0.0,0.0,0.0,0.0,0.0,0.0,0.0,0.0,0.0,0.0,0.0,0.0,0.0,0.0,0.0,0.0,0.0,-5.0246,-5.0972,-5.1403,-5.1375,-5.1339,-5.132,0.0,0.0,0.0,0.0,0.0,0.0,0.0,0.0,0.0,0.0,0.0,0.0,0.0,0.0,0.0,0.0,0.0,0.0,0.0,0.0,0.0,0.0,0.0,0.0,0.0,0.0,0.0,0.0,0.0,0.0,0.0,0.0,0.0,0.0,0.0,0.0,0.0,0.0,0.0,0.0,0.0,0.0,0.0,0.0,0.0,0.0,0.0,0.0,0.0,0.0,0.0,0.0,0.0,0.0,0.0,0.0,0.0,0.0,0.0,0.0,0.0,0.0,0.0,0.0,0.0,0.0,0.0,0.0,0.0,0.0,0.0,0.0,0.0,0.0,0.0,0.0,0.0,0.0,0.0,0.0,0.0,0.0,0.0,0.0,0.0,0.0,0.0,0.0,0.0,0.0,0.0,0.0,0.0,0.0,0.0,0.0,0.0,0.0,0.0,0.0,0.0,0.0,0.0,0.0,0.0,0.0,0.0,0.0,0.0,-5.0959,-5.1243,-5.1386,-5.1342,-5.1289,-5.1312,0.0,0.0,0.0,0.0,0.0,0.0,0.0,0.0,0.0,0.0,0.0,0.0,0.0,0.0,0.0,0.0,0.0,0.0,0.0,0.0,0.0,0.0,0.0,0.0,0.0,0.0,0.0,0.0,0.0,0.0,0.0,0.0,0.0,0.0,0.0,0.0,0.0,0.0,0.0,0.0,0.0,0.0,0.0,0.0,0.0,0.0,0.0,0.0,0.0,0.0,0.0,0.0,0.0,0.0,0.0,0.0,0.0,0.0,0.0,0.0,0.0,0.0,0.0,0.0,0.0,0.0,0.0,0.0,0.0,0.0,0.0,0.0,0.0,0.0,0.0,0.0,0.0,0.0,0.0,0.0,0.0,0.0,0.0,0.0,0.0,0.0,0.0,0.0,0.0,0.0,0.0,0.0,0.0,0.0,0.0,0.0,0.0,0.0,0.0,0.0,0.0,0.0,0.0,0.0,0.0,0.0,0.0,0.0,0.0,-5.0967,0.0,-5.0678,-5.0913,-5.1175,-5.1316,0.0,0.0,0.0,0.0,0.0,0.0,0.0,0.0,0.0,0.0,0.0,0.0,0.0,0.0,0.0,0.0,0.0,0.0,0.0,0.0,0.0,0.0,0.0,0.0,0.0,0.0,0.0,0.0,0.0,0.0,0.0,0.0,0.0,0.0,0.0,0.0,0.0,0.0,0.0,0.0,0.0,0.0,0.0,0.0,0.0,0.0,0.0,0.0,0.0,0.0,0.0,0.0,0.0,0.0,0.0,0.0,0.0,0.0,0.0,0.0,0.0,0.0,0.0,0.0,0.0,0.0,0.0,0.0,0.0,0.0,0.0,0.0,0.0,0.0,0.0,0.0,0.0,0.0,0.0,0.0,0.0,0.0,0.0,0.0,0.0,0.0,0.0,0.0,0.0,0.0,0.0,0.0,0.0,0.0,0.0,0.0,0.0,0.0,0.0,0.0,0.0,0.0,0.0,0.0,0.0,0.0,0.0,0.0,-5.0899,-5.0143,-4.9323,-4.9432,-5.0126,-5.0927,-5.1292,0.0,0.0,0.0,0.0,0.0,0.0,0.0,0.0,0.0,0.0,0.0,0.0,0.0,0.0,0.0,0.0,0.0,0.0,0.0,0.0,0.0,0.0,0.0,0.0,0.0,0.0,0.0,0.0,0.0,0.0,0.0,0.0,0.0,0.0,0.0,0.0,0.0,0.0,0.0,0.0,0.0,0.0,0.0,0.0,0.0,0.0,0.0,0.0,0.0,0.0,0.0,0.0,0.0,0.0,0.0,0.0,0.0,0.0,0.0,0.0,0.0,0.0,0.0,0.0,0.0,0.0,0.0,0.0,0.0,0.0,0.0,0.0,0.0,0.0,0.0,0.0,0.0,0.0,0.0,0.0,0.0,0.0,0.0,0.0,0.0,0.0,0.0,0.0,0.0,0.0,0.0,0.0,0.0,0.0,0.0,0.0,0.0,0.0,0.0,0.0,0.0,0.0,0.0,0.0,0.0,0.0,0.0,0.0,0.0,-5.0821,-5.0572,-5.0568,-5.0852,-5.1101,-5.1248,0.0,0.0,0.0,0.0,0.0,0.0,0.0,0.0,0.0,0.0,0.0,0.0,0.0,0.0,0.0,0.0,0.0,0.0,0.0,0.0,0.0,0.0,0.0,0.0,0.0,0.0,0.0,0.0,0.0,0.0,0.0,0.0,0.0,0.0,0.0,0.0,0.0,0.0,0.0,0.0,0.0,0.0,0.0,0.0,0.0,0.0,0.0,0.0,0.0,0.0,0.0,0.0,0.0,0.0,0.0,0.0,0.0,0.0,0.0,0.0,0.0,0.0,0.0,0.0,0.0,0.0,0.0,0.0,0.0,0.0,0.0,0.0,0.0,0.0,0.0,0.0,0.0,0.0,0.0,0.0,0.0,0.0,0.0,0.0,0.0,0.0,0.0,0.0,0.0,0.0,0.0,0.0,0.0,0.0,0.0,0.0,0.0,0.0,0.0,0.0,0.0,0.0,0.0,0.0,0.0,0.0,0.0,0.0,0.0,-5.3345,-5.2869,-5.258,-5.2547,-5.2891,-5.2674,-5.1804,0.0,0.0,0.0,0.0,0.0,0.0,0.0,0.0,0.0,0.0,0.0,0.0,0.0,0.0,0.0,0.0,0.0,0.0,0.0,0.0,0.0,0.0,0.0,0.0,0.0,0.0,0.0,0.0,0.0,0.0,0.0,0.0,0.0,0.0,0.0,0.0,0.0,0.0,0.0,0.0,0.0,0.0,0.0,0.0,0.0,0.0,0.0,0.0,0.0,0.0,0.0,0.0,0.0,0.0,0.0,0.0,0.0,0.0,0.0,0.0,0.0,0.0,0.0,0.0,0.0,0.0,0.0,0.0,0.0,0.0,0.0,0.0,0.0,0.0,0.0,0.0,0.0,0.0,0.0,0.0,0.0,0.0,0.0,0.0,0.0,0.0,0.0,0.0,0.0,0.0,0.0,0.0,0.0,0.0,0.0,0.0,0.0,0.0,0.0,0.0,0.0,0.0,0.0,0.0,0.0,0.0,0.0,0.0,-5.7369,-5.6335,-5.5733,-5.5356,-5.5993,-5.5177,0.0,0.0,0.0,0.0,0.0,0.0,0.0,0.0,0.0,0.0,0.0,0.0,0.0,0.0,0.0,0.0,0.0,0.0,0.0,0.0,0.0,0.0,0.0,0.0,0.0,0.0,0.0,0.0,0.0,0.0,0.0,0.0,0.0,0.0,0.0,0.0,0.0,0.0,0.0,0.0,0.0,0.0,0.0,0.0,0.0,0.0,0.0,0.0,0.0,0.0,0.0,0.0,0.0,0.0,0.0,0.0,0.0,0.0,0.0,0.0,0.0,0.0,0.0,0.0,0.0,0.0,0.0,0.0,0.0,0.0,0.0,0.0,0.0,0.0,0.0,0.0,0.0,0.0,0.0,0.0,0.0,0.0,0.0,0.0,0.0,0.0,0.0,0.0,0.0,0.0,0.0,0.0,0.0,0.0,0.0,0.0,0.0,0.0,0.0,0.0,0.0,0.0,0.0,0.0,0.0,0.0,0.0,0.0,0.0,-5.9864,-6.4336,-6.4971,-6.136,-5.9171,-5.7155,0.0,0.0,0.0,0.0,0.0,0.0,0.0,0.0,0.0,0.0,0.0,0.0,0.0,0.0,0.0,0.0,0.0,0.0,0.0,0.0,0.0,0.0,0.0,0.0,0.0,0.0,0.0,0.0,0.0,0.0,0.0,0.0,0.0,0.0,0.0,0.0,0.0,0.0,0.0,0.0,0.0,0.0,0.0,0.0,0.0,0.0,0.0,0.0,0.0,0.0,0.0,0.0,0.0,0.0,0.0,0.0,0.0,0.0,0.0,0.0,0.0,0.0,0.0,0.0,0.0,0.0,0.0,0.0,0.0,0.0,0.0,0.0,0.0,0.0,0.0,0.0,0.0,0.0,0.0,0.0,0.0,0.0,0.0,0.0,0.0,0.0,0.0,0.0,0.0,0.0,0.0,0.0,0.0,0.0,0.0,0.0,0.0,0.0,0.0,0.0,0.0,0.0,0.0,0.0,0.0,0.0,0.0,0.0,-5.9074,-6.2106,-6.9802,-7.244,-6.9557,-6.4133,-6.0312,0.0,0.0,0.0,0.0,0.0,0.0,0.0,0.0,0.0,0.0,0.0,0.0,0.0,0.0,0.0,0.0,0.0,0.0,0.0,0.0,0.0,0.0,0.0,0.0,0.0,0.0,0.0,0.0,0.0,0.0,0.0,0.0,0.0,0.0,0.0,0.0,0.0,0.0,0.0,0.0,0.0,0.0,0.0,0.0,0.0,0.0,0.0,0.0,0.0,0.0,0.0,0.0,0.0,0.0,0.0,0.0,0.0,0.0,0.0,0.0,0.0,0.0,0.0,0.0,0.0,0.0,0.0,0.0,0.0,0.0,0.0,0.0,0.0,0.0,0.0,0.0,0.0,0.0,0.0,0.0,0.0,0.0,0.0,0.0,0.0,0.0,0.0,0.0,0.0,0.0,0.0,0.0,0.0,0.0,0.0,0.0,0.0,0.0,0.0,0.0,0.0,0.0,0.0,0.0,0.0,0.0,0.0,0.0,-6.1567,-6.4381,-7.3254,-7.7949,-7.7722,-6.9442,-6.384,0.0,0.0,0.0,0.0,0.0,0.0,0.0,0.0,0.0,0.0,0.0,0.0,0.0,0.0,0.0,0.0,0.0,0.0,0.0,0.0,0.0,0.0,0.0,0.0,0.0,0.0,0.0,0.0,0.0,0.0,0.0,0.0,0.0,0.0,0.0,0.0,0.0,0.0,0.0,0.0,0.0,0.0,0.0,0.0,0.0,0.0,0.0,0.0,0.0,0.0,0.0,0.0,0.0,0.0,0.0,0.0,0.0,0.0,0.0,0.0,0.0,0.0,0.0,0.0,0.0,0.0,0.0,0.0,0.0,0.0,0.0,0.0,0.0,0.0,0.0,0.0,0.0,0.0,0.0,0.0,0.0,0.0,0.0,0.0,0.0,0.0,0.0,0.0,0.0,0.0,0.0,0.0,0.0,0.0,0.0,0.0,0.0,0.0,0.0,0.0,0.0,0.0,0.0,0.0,0.0,0.0,0.0,0.0,-6.3159,-6.7351,-7.4598,-7.8803,-7.9591,-7.0651,-6.528,0.0,0.0,0.0,0.0,0.0,0.0,0.0,0.0,0.0,0.0,0.0,0.0,0.0,0.0,0.0,0.0,0.0,0.0,0.0,0.0,0.0,0.0,0.0,0.0,0.0,0.0,0.0,0.0,0.0,0.0,0.0,0.0,0.0,0.0,0.0,0.0,0.0,0.0,0.0,0.0,0.0,0.0,0.0,0.0,0.0,0.0,0.0,0.0,-5.4381,0.0,0.0,0.0,0.0,0.0,0.0,0.0,0.0,0.0,0.0,0.0,0.0,0.0,0.0,0.0,0.0,0.0,0.0,0.0,0.0,0.0,0.0,0.0,0.0,0.0,0.0,0.0,0.0,0.0,0.0,0.0,0.0,0.0,0.0,0.0,0.0,0.0,0.0,0.0,0.0,0.0,0.0,0.0,0.0,0.0,0.0,0.0,0.0,0.0,0.0,0.0,0.0,0.0,0.0,0.0,0.0,0.0,0.0,0.0,-6.3751,-6.9135,-7.5167,-7.8809,-7.964,-7.2662,-6.7885,0.0,0.0,0.0,0.0,0.0,0.0,0.0,0.0,0.0,0.0,0.0,0.0,0.0,0.0,0.0,0.0,0.0,0.0,0.0,0.0,0.0,0.0,0.0,0.0,0.0,0.0,0.0,0.0,0.0,0.0,0.0,0.0,0.0,0.0,0.0,0.0,0.0,0.0,0.0,0.0,0.0,0.0,0.0,0.0,0.0,0.0,0.0,0.0,0.0,0.0,0.0,0.0,0.0,0.0,0.0,0.0,0.0,0.0,0.0,0.0,0.0,0.0,0.0,0.0,0.0,0.0,0.0,0.0,0.0,0.0,0.0,0.0,0.0,0.0,0.0,0.0,0.0,0.0,0.0,0.0,0.0,0.0,0.0,0.0,0.0,0.0,0.0,0.0,0.0,0.0,0.0,0.0,0.0,0.0,0.0,0.0,0.0,0.0,0.0,0.0,0.0,0.0,0.0,0.0,0.0,0.0,0.0,-5.8698,-6.4068,-7.0719,-7.5375,-7.8374,-7.9573,-7.4464,-7.0271,-6.7355,0.0,0.0,0.0,0.0,0.0,0.0,0.0,0.0,0.0,0.0,0.0,0.0,0.0,0.0,0.0,0.0,0.0,0.0,0.0,0.0,0.0,0.0,0.0,0.0,0.0,0.0,0.0,0.0,0.0,0.0,0.0,0.0,0.0,0.0,0.0,0.0,0.0,0.0,-5.4247,-5.4082,0.0,0.0,0.0,0.0,0.0,0.0,0.0,0.0,-5.4886,0.0,0.0,0.0,0.0,0.0,0.0,0.0,0.0,0.0,0.0,0.0,0.0,0.0,0.0,0.0,0.0,0.0,0.0,0.0,0.0,0.0,0.0,0.0,0.0,0.0,0.0,0.0,0.0,0.0,0.0,0.0,0.0,0.0,0.0,0.0,0.0,0.0,0.0,0.0,0.0,0.0,0.0,0.0,0.0,0.0,0.0,0.0,0.0,0.0,0.0,0.0,0.0,0.0,0.0,0.0,0.0,-5.7559,-5.9677,-6.498,-7.365,-7.5657,-7.755,-7.9459,-7.4296,-7.0101,-6.7292,0.0,0.0,0.0,0.0,0.0,0.0,0.0,0.0,0.0,0.0,0.0,0.0,0.0,0.0,0.0,0.0,0.0,0.0,0.0,0.0,0.0,0.0,0.0,0.0,0.0,0.0,0.0,0.0,0.0,0.0,0.0,0.0,0.0,0.0,0.0,0.0,0.0,0.0,0.0,-5.4905,-5.4513,0.0,0.0,0.0,0.0,0.0,0.0,0.0,0.0,-5.7821,0.0,0.0,0.0,0.0,0.0,0.0,0.0,0.0,0.0,0.0,0.0,0.0,0.0,0.0,0.0,0.0,0.0,0.0,0.0,0.0,0.0,0.0,0.0,0.0,0.0,0.0,0.0,0.0,0.0,0.0,0.0,0.0,0.0,0.0,0.0,0.0,0.0,0.0,0.0,0.0,0.0,0.0,0.0,0.0,0.0,0.0,0.0,0.0,0.0,0.0,0.0,0.0,0.0,0.0,0.0,-5.9414,-6.1938,-6.6839,-7.4394,-7.573,-7.6962,-7.8369,-7.3402,-6.9635,0.0,0.0,0.0,0.0,0.0,0.0,0.0,0.0,0.0,0.0,0.0,0.0,0.0,0.0,0.0,0.0,0.0,0.0,0.0,0.0,0.0,0.0,0.0,0.0,0.0,0.0,0.0,0.0,0.0,0.0,0.0,0.0,0.0,0.0,0.0,0.0,0.0,0.0,0.0,0.0,-5.683,-5.6837,-5.7203,0.0,0.0,0.0,0.0,0.0,0.0,-5.849,-5.8382,0.0,0.0,0.0,0.0,0.0,0.0,0.0,0.0,0.0,0.0,0.0,0.0,0.0,0.0,0.0,0.0,0.0,0.0,0.0,0.0,0.0,0.0,0.0,0.0,0.0,0.0,0.0,0.0,0.0,0.0,0.0,0.0,0.0,0.0,0.0,0.0,0.0,0.0,0.0,0.0,0.0,0.0,0.0,0.0,0.0,0.0,0.0,0.0,0.0,0.0,0.0,0.0,0.0,0.0,0.0,-6.0745,-6.3763,-6.8369,-7.4497,-7.5532,-7.6348,-7.6989,-7.1898,-6.8487,0.0,0.0,0.0,0.0,0.0,0.0,0.0,0.0,0.0,0.0,0.0,0.0,0.0,0.0,0.0,0.0,0.0,0.0,0.0,0.0,0.0,0.0,0.0,0.0,0.0,0.0,0.0,0.0,0.0,0.0,0.0,0.0,0.0,0.0,0.0,0.0,0.0,0.0,0.0,0.0,0.0,-5.8836,-5.8169,-5.8381,0.0,0.0,0.0,0.0,-5.8147,-5.9386,0.0,0.0,0.0,0.0,0.0,0.0,0.0,0.0,0.0,0.0,0.0,0.0,0.0,0.0,0.0,0.0,0.0,0.0,0.0,0.0,0.0,0.0,0.0,0.0,0.0,0.0,0.0,0.0,0.0,0.0,0.0,0.0,0.0,0.0,0.0,0.0,0.0,0.0,0.0,0.0,0.0,0.0,0.0,0.0,0.0,0.0,0.0,0.0,0.0,0.0,0.0,0.0,0.0,0.0,0.0,0.0,-6.0643,-6.36,-6.8208,-7.4434,-7.5009,-7.5483,-7.6134,-6.9368,-6.5882,0.0,0.0,0.0,0.0,0.0,0.0,0.0,0.0,0.0,0.0,0.0,0.0,0.0,0.0,0.0,0.0,0.0,0.0,0.0,0.0,0.0,0.0,0.0,0.0,0.0,0.0,0.0,0.0,0.0,0.0,0.0,0.0,0.0,0.0,0.0,0.0,0.0,0.0,0.0,0.0,0.0,-5.851,-5.9512,-5.9971,-5.9588,0.0,0.0,-6.1993,-6.218,-6.4975,0.0,0.0,0.0,0.0,0.0,0.0,0.0,0.0,0.0,0.0,0.0,0.0,0.0,0.0,0.0,0.0,0.0,0.0,0.0,0.0,0.0,0.0,0.0,0.0,0.0,0.0,0.0,0.0,0.0,0.0,0.0,0.0,0.0,0.0,0.0,0.0,0.0,0.0,0.0,0.0,0.0,0.0,0.0,0.0,0.0,0.0,0.0,0.0,0.0,0.0,0.0,0.0,0.0,0.0,0.0,-5.6936,-6.0812,-6.4818,-6.8987,-7.328,-7.4148,-7.4598,-7.4673,-6.8166,-6.4897,0.0,0.0,0.0,0.0,0.0,0.0,0.0,0.0,0.0,0.0,0.0,0.0,0.0,0.0,0.0,0.0,0.0,0.0,0.0,0.0,0.0,0.0,0.0,0.0,0.0,0.0,0.0,0.0,0.0,0.0,0.0,0.0,0.0,0.0,0.0,0.0,0.0,0.0,0.0,0.0,0.0,0.0,-5.911,-6.0715,0.0,0.0,0.0,-6.369,-6.2617,0.0,0.0,0.0,0.0,0.0,0.0,0.0,0.0,0.0,0.0,0.0,0.0,0.0,0.0,0.0,0.0,0.0,0.0,0.0,0.0,0.0,0.0,0.0,0.0,0.0,0.0,0.0,0.0,0.0,0.0,0.0,0.0,0.0,0.0,0.0,0.0,0.0,0.0,0.0,0.0,0.0,0.0,0.0,0.0,0.0,0.0,0.0,0.0,0.0,0.0,0.0,0.0,0.0,0.0,0.0,0.0,0.0,-6.0853,-6.571,-6.962,-7.2311,-7.3377,-7.3732,-7.3269,-6.7859,0.0,0.0,0.0,0.0,0.0,0.0,0.0,0.0,0.0,0.0,0.0,0.0,0.0,0.0,0.0,0.0,0.0,0.0,0.0,0.0,0.0,0.0,0.0,0.0,0.0,0.0,0.0,-5.153,0.0,0.0,0.0,0.0,0.0,0.0,0.0,0.0,0.0,0.0,0.0,0.0,0.0,0.0,-6.1131,-5.9251,-6.1591,-6.2811,0.0,0.0,-6.4809,-6.3066,-6.5753,-6.6484,0.0,0.0,0.0,0.0,0.0,0.0,0.0,0.0,0.0,0.0,0.0,0.0,0.0,0.0,0.0,0.0,0.0,0.0,0.0,0.0,0.0,0.0,0.0,0.0,0.0,0.0,0.0,0.0,0.0,0.0,0.0,0.0,0.0,0.0,0.0,0.0,0.0,0.0,0.0,0.0,0.0,0.0,0.0,0.0,0.0,0.0,0.0,0.0,0.0,0.0,0.0,0.0,0.0,0.0,-5.8061,-6.0677,-6.5566,-6.9482,-7.2274,-7.2866,-7.2961,-7.2604,-6.8754,-6.5653,0.0,0.0,0.0,0.0,0.0,0.0,0.0,0.0,0.0,0.0,0.0,0.0,0.0,0.0,0.0,0.0,0.0,0.0,0.0,0.0,0.0,0.0,0.0,0.0,0.0,0.0,0.0,0.0,0.0,0.0,0.0,0.0,0.0,0.0,0.0,0.0,0.0,0.0,0.0,0.0,0.0,-6.1582,-6.0972,-6.2876,-6.4218,0.0,0.0,-6.577,-6.4778,-6.9553,-7.0793,-6.2921,0.0,0.0,0.0,0.0,0.0,0.0,0.0,0.0,0.0,0.0,0.0,0.0,0.0,0.0,0.0,0.0,0.0,0.0,0.0,0.0,0.0,0.0,0.0,0.0,0.0,0.0,0.0,0.0,0.0,0.0,0.0,0.0,0.0,0.0,0.0,0.0,0.0,0.0,0.0,0.0,0.0,0.0,0.0,0.0,0.0,0.0,0.0,0.0,0.0,0.0,0.0,0.0,0.0,-5.8041,-6.0602,-6.5082,-6.895,-7.2062,-7.2243,-7.2356,-7.2453,-6.8766,-6.5715,0.0,0.0,0.0,0.0,0.0,0.0,0.0,0.0,0.0,0.0,0.0,0.0,0.0,0.0,0.0,0.0,0.0,0.0,0.0,0.0,0.0,0.0,0.0,0.0,0.0,0.0,0.0,0.0,-5.269,-5.3233,-5.4197,0.0,0.0,0.0,0.0,0.0,0.0,0.0,0.0,0.0,0.0,-6.2108,-6.1534,-6.3647,0.0,0.0,-6.6551,-6.7372,-6.528,-6.7638,-6.7978,-6.2719,-6.1978,0.0,0.0,0.0,0.0,0.0,0.0,0.0,0.0,0.0,0.0,0.0,0.0,0.0,0.0,0.0,0.0,0.0,0.0,0.0,0.0,0.0,0.0,0.0,0.0,0.0,0.0,0.0,0.0,0.0,0.0,0.0,0.0,0.0,0.0,0.0,0.0,0.0,0.0,0.0,0.0,0.0,0.0,0.0,0.0,0.0,0.0,0.0,0.0,0.0,0.0,0.0,0.0,-5.8058,-6.0583,-6.4748,-6.8481,-7.1663,-7.1531,-7.158,-7.1902,-6.881,-6.6211,0.0,0.0,0.0,0.0,0.0,0.0,0.0,0.0,0.0,0.0,0.0,0.0,0.0,0.0,0.0,0.0,0.0,0.0,0.0,0.0,0.0,0.0,0.0,0.0,0.0,0.0,0.0,0.0,-5.3837,-5.4486,-5.516,0.0,0.0,0.0,0.0,0.0,0.0,0.0,0.0,0.0,0.0,-6.2276,-6.1842,-6.3627,-6.4935,-6.4683,-6.618,-6.6838,-6.5286,-6.5849,-6.5396,-6.2452,0.0,0.0,0.0,0.0,0.0,0.0,0.0,0.0,0.0,0.0,0.0,0.0,0.0,0.0,0.0,0.0,0.0,0.0,0.0,0.0,0.0,0.0,0.0,0.0,0.0,0.0,0.0,0.0,0.0,0.0,-5.1125,0.0,0.0,0.0,0.0,0.0,0.0,0.0,0.0,0.0,0.0,0.0,0.0,0.0,0.0,0.0,0.0,0.0,0.0,0.0,0.0,0.0,0.0,-5.8076,-6.0602,-6.4748,-6.8185,-7.0834,-7.0646,-7.0692,-7.1029,-6.9055,-6.7271,-6.5779,0.0,0.0,0.0,0.0,0.0,0.0,0.0,0.0,0.0,0.0,0.0,0.0,0.0,0.0,0.0,0.0,0.0,0.0,0.0,0.0,0.0,0.0,0.0,0.0,0.0,0.0,-5.3741,-5.4731,-5.5384,0.0,0.0,0.0,0.0,0.0,0.0,0.0,0.0,0.0,0.0,-6.0716,-6.2064,-6.1953,-6.2703,-6.3684,-6.4655,-6.3871,-6.3494,-6.4655,-6.4841,-6.4168,0.0,0.0,0.0,0.0,0.0,0.0,0.0,0.0,0.0,0.0,0.0,0.0,0.0,0.0,0.0,0.0,0.0,0.0,0.0,0.0,0.0,0.0,0.0,0.0,0.0,0.0,0.0,-5.7238,-5.7846,0.0,0.0,0.0,0.0,0.0,0.0,0.0,0.0,0.0,0.0,0.0,-6.1473,-6.2745,0.0,0.0,0.0,0.0,0.0,0.0,0.0,0.0,0.0,0.0,0.0,0.0,-5.8408,-6.1393,-6.4577,-6.7741,-7.0735,-6.9383,-6.9021,-7.0001,-6.7984,-6.6039,-6.4277,0.0,0.0,0.0,0.0,0.0,0.0,0.0,0.0,0.0,0.0,0.0,0.0,0.0,0.0,0.0,0.0,0.0,0.0,0.0,0.0,0.0,0.0,0.0,0.0,0.0,-5.4363,0.0,0.0,0.0,0.0,0.0,0.0,0.0,0.0,0.0,0.0,0.0,-5.9387,-5.9798,-6.1304,-6.2373,-6.2498,-6.3365,-6.4143,0.0,0.0,0.0,0.0,0.0,0.0,0.0,0.0,0.0,0.0,0.0,0.0,0.0,0.0,-5.9958,-5.8471,-5.8412,-5.8538,-5.8449,0.0,0.0,0.0,0.0,0.0,0.0,0.0,0.0,0.0,0.0,0.0,0.0,0.0,0.0,0.0,0.0,-6.1317,0.0,0.0,0.0,0.0,0.0,0.0,0.0,0.0,-6.3512,-6.5559,-6.6065,-6.7396,-6.7167,0.0,-6.5406,-6.2084,0.0,0.0,0.0,0.0,0.0,0.0,0.0,0.0,-5.9076,-6.1522,-6.4666,-6.7679,-7.0252,-6.8846,-6.8443,-6.9365,-6.771,-6.5788,-6.3758,-6.236,-6.0988,0.0,0.0,0.0,0.0,0.0,0.0,0.0,0.0,0.0,0.0,0.0,0.0,0.0,0.0,0.0,0.0,0.0,0.0,0.0,0.0,0.0,0.0,0.0,-5.5491,0.0,0.0,0.0,0.0,0.0,0.0,0.0,0.0,0.0,-5.8617,-5.9477,-6.0342,-6.076,-6.1822,-6.2487,-6.2319,0.0,0.0,0.0,0.0,0.0,0.0,0.0,-6.1529,-6.0832,-6.1262,-6.2097,-6.3381,-6.3426,-6.3557,-6.4355,0.0,0.0,-6.1323,-6.1241,-6.1512,-6.1687,-6.2408,-6.3194,-6.3727,-6.4532,-6.5141,0.0,0.0,0.0,0.0,0.0,0.0,0.0,0.0,-6.5899,-6.3865,0.0,-6.3626,0.0,0.0,0.0,0.0,0.0,0.0,0.0,0.0,-7.2878,-7.4136,-6.9581,-7.1626,-7.1102,-6.8069,-6.7543,-6.599,-6.3484,-6.2001,0.0,0.0,0.0,0.0,0.0,0.0,-6.0063,-6.1152,-6.5045,-6.7938,-6.9558,-6.8961,-6.8743,-6.9035,-6.8015,-6.6401,-6.4279,-6.3455,-6.2732,-6.2003,-5.9742,0.0,0.0,0.0,0.0,0.0,0.0,0.0,0.0,0.0,0.0,0.0,0.0,0.0,0.0,0.0,0.0,0.0,0.0,0.0,0.0,-5.5677,0.0,0.0,0.0,0.0,0.0,0.0,0.0,0.0,0.0,0.0,-6.0148,-6.0263,-6.0636,-6.1478,0.0,0.0,0.0,0.0,-6.206,-6.1241,-6.1102,-6.1103,-6.105,-6.1784,-6.2429,-6.2595,0.0,0.0,-6.5591,-6.4807,-6.4256,-6.4388,-6.557,-6.5765,-6.3819,-6.3626,-6.3708,-6.3742,-6.4503,-6.4935,-6.5062,-6.6155,-6.6602,-7.1565,0.0,0.0,0.0,0.0,-6.5793,-6.9015,-7.4581,-7.4075,-7.3212,-7.2117,-7.1883,0.0,0.0,0.0,0.0,0.0,0.0,-6.6673,-6.8792,-7.2286,-7.4151,-7.4818,-7.6085,-7.5861,-7.4409,-7.3628,-7.2298,-7.047,-6.8823,-6.4968,-5.9073,0.0,0.0,0.0,0.0,-6.073,-6.3179,-6.5874,-6.7752,-6.884,-6.7584,-6.6559,-6.5896,-6.5464,-6.4833,-6.3962,-6.4197,-6.3543,-6.1874,-6.1444,0.0,0.0,0.0,0.0,0.0,0.0,0.0,0.0,0.0,0.0,0.0,0.0,0.0,0.0,0.0,0.0,0.0,0.0,0.0,-5.7288,-5.7597,-5.7369,0.0,0.0,0.0,0.0,0.0,0.0,0.0,0.0,0.0,-6.1451,-6.1241,-6.1179,0.0,0.0,-6.145,-6.1299,-6.1505,-6.1834,-6.2211,0.0,0.0,0.0,-6.3288,-6.3405,-6.345,-6.4531,-6.5546,-6.6136,-6.6494,-6.69,-6.7505,-6.8487,-6.8884,-6.8051,-6.7759,-6.7859,-6.8334,-6.9082,-6.9917,-7.0531,-7.1275,-7.1803,-7.9567,-7.4658,-7.0578,-7.006,-7.1818,-7.1668,-7.4599,-7.9481,-7.9168,-7.8096,-7.6467,-7.6584,-7.294,-6.6653,-6.639,0.0,0.0,0.0,-7.0046,-7.3477,-7.4113,-7.5503,-7.7561,-7.8053,-7.7682,-7.6604,-7.6419,-7.5304,-7.3398,-7.1492,-6.8062,-6.3121,0.0,0.0,-5.8606,-6.0719,-6.2579,-6.4108,-6.6522,-6.785,-6.8023,-6.684,-6.5724,-6.4752,-6.4677,-6.4424,-6.4037,-6.4419,-6.4086,-6.2948,-6.2525,-6.1408,0.0,0.0,0.0,0.0,0.0,0.0,0.0,0.0,0.0,0.0,0.0,-5.7561,-5.6943,0.0,0.0,0.0,-5.7815,-5.7923,-5.8479,-5.8246,0.0,0.0,0.0,0.0,0.0,0.0,0.0,-5.9492,-6.073,-6.1737,-6.1953,-6.1787,-6.1705,-6.1879,-6.1898,-6.1825,-6.1713,0.0,-6.2142,-6.2804,-6.2805,-6.3,-6.3847,-6.4204,-6.4539,-6.494,-6.5467,-6.6023,-6.6509,-6.7122,-6.7652,-6.8265,-6.9122,-6.9832,-6.9867,-7.0139,-7.0455,-7.0858,-7.1871,-7.2826,-7.3361,-7.4125,-7.4736,-8.5966,-8.4064,-7.6744,-7.4795,-7.6627,-7.7372,-7.8917,-8.1025,-8.1843,-7.9744,-7.5918,-7.8488,-7.573,-6.9005,-6.8364,0.0,-7.3017,-7.2422,-7.435,-7.8267,-7.7561,-7.7598,-7.8276,-7.8304,-7.7496,-7.601,-7.6706,-7.5851,-7.3584,-7.1365,-6.9341,-6.7591,-6.6191,-6.3597,-6.0281,-6.3352,-6.4772,-6.4111,-6.6806,-6.7898,-6.7205,-6.6482,-6.5694,-6.4935,-6.5045,-6.4753,-6.4215,-6.4215,-6.437,-6.4494,-6.3134,-6.196,-6.1082,0.0,0.0,0.0,0.0,0.0,0.0,0.0,0.0,0.0,0.0,0.0,0.0,0.0,0.0,-5.838,-5.7348,0.0,-5.895,-5.8053,0.0,0.0,0.0,-5.9581,-5.8957,-6.0396,-6.1148,-6.0475,0.0,0.0,-6.2012,-6.2071,-6.2255,-6.2723,-6.2859,-6.2784,-6.2427,-6.2427,-6.2701,-6.2994,-6.2897,-6.3052,-6.3966,-6.4816,-6.5679,-6.6466,-6.6822,-6.6772,-6.6867,-6.7011,-6.7126,-6.7303,-6.8202,-6.9178,-7.0039,-7.0906,-7.179,-7.1755,-7.3038,-7.4163,-7.4316,-7.4889,-7.5386,-8.6969,-8.6969,-8.4466,-8.2681,-8.1529,-8.1686,-8.2429,-8.3514,-8.3737,-8.2867,-8.1288,-8.138,-7.9995,-7.7676,-7.7505,-7.7601,-7.7828,-7.7659,-7.7856,-7.8267,-7.809,-7.8118,-7.8304,-7.8304,-7.809,-7.7645,-7.6632,-7.5787,-7.5145,-7.2818,-7.0012,-6.6821,-6.6363,-6.4264,-6.0672,-6.1977,-6.316,-6.4025,-6.5341,-6.6135,-6.6351,-6.5557,-6.4807,-6.4115,-6.4011,-6.369,-6.3123,-6.3621,-6.3804,-6.3502,-6.3456,-6.2952,-6.194,-6.0295,0.0,0.0,0.0,0.0,0.0,0.0,0.0,0.0,0.0,-5.8154,-5.6655,0.0,-5.9396,0.0,-5.8435,-5.9359,-6.0654,-5.897,0.0,0.0,-5.8954,-5.9093,-5.8744,-6.0499,-6.1338,-6.0283,-6.1142,-6.199,-6.2425,-6.2503,-6.2761,-6.3301,-6.2709,-6.2208,-6.2084,-6.2026,-6.2257,-6.2896,-6.3075,-6.3576,-6.4892,-6.587,-6.6474,-6.6743,-6.6822,-6.6874,-6.7069,-6.7405,-6.7614,-6.7633,-6.8657,-6.9311,-6.909,-7.0976,-7.2428,-7.2453,-7.3336,-7.4431,-7.5042,-7.5348,-7.5518,-8.7081,-8.7415,-8.6226,-8.4963,-8.3737,-8.4109,-8.4332,-8.4369,-8.3997,-8.3589,-8.3143,-8.2326,-8.1508,-8.0691,-8.0691,-8.0245,-7.9502,-7.9502,-7.9056,-7.8313,-7.8304,-7.8304,-7.8304,-7.8304,-7.809,-7.7746,-7.6419,-7.5601,-7.5193,-7.3584,-7.1467,-6.9029,-6.8992,-6.7285,-6.3909,-6.2542,-6.2316,-6.3102,-6.3808,-6.4812,-6.5979,-6.4902,-6.3825,-6.2869,-6.2774,-6.23,-6.1394,-6.1788,-6.1883,-6.1613,-6.1864,-6.1599,-6.0638,-5.9558,-5.8446,0.0,0.0,0.0,0.0,0.0,0.0,0.0,0.0,0.0,0.0,0.0,-6.025,-5.9678,-5.9665,-6.022,-6.1379,-6.0285,-5.9594,-5.9785,-6.0261,-6.0422,-6.0055,-6.1055,-6.1545,-6.1018,-6.1587,-6.219,-6.2635,-6.2836,-6.3066,-6.3527,-6.2891,-6.2392,-6.2507,-6.2369,-6.2498,-6.3162,-6.3235,-6.3744,-6.5337,-6.6279,-6.6822,-6.6822,-6.6822,-6.6845,-6.7019,-6.7286,-6.7506,-6.7552,-6.8204,-6.8765,-6.8724,-7.0263,-7.1853,-7.2547,-7.3397,-7.4452,-7.531,-7.5518,-7.5518,-8.6784,-8.6672,-8.5186,-8.4629,-8.474,-8.5223,-8.4963,-8.4183,-8.3477,-8.318,-8.3143,-8.2474,-8.1731,-8.1025,-8.1025,-8.058,-7.9837,-7.9799,-7.9391,-7.8611,-7.8499,-7.8425,-7.8462,-7.8351,-7.7942,-7.7236,-7.6371,-7.5527,-7.4747,-7.3956,-7.2952,-7.1851,-7.1776,-7.0249,-6.7261,-6.3893,-6.2146,-6.1993,-6.2784,-6.4033,-6.5752,-6.4138,-6.262,-6.141,-6.1413,-6.0902,-5.9765,-5.9858,-5.9928,-5.9864,-6.0004,-5.9846,-5.9169,-5.8609,-5.7966,0.0,-5.6774,0.0,0.0,0.0,0.0,0.0,0.0,0.0,0.0,-6.0261,-6.1094,-6.2004,-6.0886,-6.0501,-6.158,-6.1485,-6.1347,-6.1288,-6.1825,-6.2058,-6.1748,-6.168,-6.1736,-6.1923,-6.2087,-6.2318,-6.2668,-6.2953,-6.3194,-6.3396,-6.3049,-6.2794,-6.299,-6.2806,-6.2786,-6.3355,-6.3321,-6.3708,-6.5084,-6.6098,-6.6641,-6.675,-6.6822,-6.6822,-6.6874,-6.7076,-6.7182,-6.7266,-6.7524,-6.7899,-6.8394,-6.9476,-7.075,-7.1976,-7.3247,-7.4452,-7.5233,-7.5465,-7.5427,-8.6784,-8.6709,-8.5781,-8.5743,-8.6264,-8.5112,-8.4183,-8.3403,-8.3254,-8.318,-8.318,-8.3032,-8.2846,-8.2697,-8.2734,-8.2251,-8.1508,-8.1508,-8.1063,-8.0208,-7.9576,-7.9279,-7.9205,-7.8611,-7.8202,-7.8016,-7.7236,-7.6419,-7.5564,-7.4747,-7.272,-6.957,-6.9519,-6.8009,-6.5154,0.0,0.0,0.0,-6.3831,-6.4657,-6.431,-6.2348,-6.0848,-6.0013,-5.9993,0.0,-5.9727,-6.0328,-6.0686,-6.0707,-6.1368,0.0,0.0,0.0,0.0,0.0,0.0,0.0,0.0,0.0,0.0,0.0,-6.1355,-6.1103,-6.0509,-6.0605,-6.1182,-6.231,-6.1288,-6.0921,-6.1935,-6.1131,-6.0701,-6.1063,-6.0796,-6.0732,-6.1163,-6.153,-6.1764,-6.1708,-6.1868,-6.2141,-6.2459,-6.25,-6.2654,-6.2929,-6.2855,-6.273,-6.2614,-6.2417,-6.2214,-6.2305,-6.2894,-6.3526,-6.4468,-6.5337,-6.6134,-6.6605,-6.6822,-6.6874,-6.704,-6.704,-6.7126,-6.7322,-6.746,-6.7633,-6.7993,-6.9266,-7.0476,-7.0959,-7.2737,-7.4469,-7.531,-7.5283,-7.5076,-8.7044,0.0,-8.5669,-8.5483,0.0,-8.448,-8.3552,-8.318,-8.318,-8.318,-8.318,-8.318,-8.318,-8.318,-8.2771,-8.214,-8.1323,-8.0951,-8.032,-7.9502,-7.9094,-7.8908,-7.8908,-7.8462,-7.8304,-7.8304,-7.7486,-7.6865,-7.6382,-7.5193,-7.3599,-7.1727,-7.1317,-7.0344,-6.8877,-6.8017,-6.6459,-6.4151,-6.4087,-6.4374,-6.4927,-6.3135,-6.1858,-6.1262,0.0,0.0,0.0,0.0,0.0,0.0,0.0,0.0,0.0,0.0,0.0,-6.0654,-6.0413,-6.0891,-6.2144,-6.2595,-6.298,-6.3503,-6.3578,-6.2795,-6.1036,-6.1399,-6.2172,-6.3229,-6.2724,-6.2365,-6.2513,-6.2374,-6.1975,-6.1253,-6.1205,-6.1299,-6.1241,-6.1501,-6.1644,-6.1615,-6.1895,-6.2195,-6.2407,-6.25,-6.2629,-6.2755,-6.2679,-6.2698,-6.2933,-6.2884,-6.2749,-6.2612,-6.2875,-6.3454,-6.4251,-6.5084,-6.5881,-6.6569,-6.6822,-6.6845,-6.699,-6.7019,-6.704,-6.7182,-6.7266,-6.747,-6.7857,-6.9099,-7.0292,-7.0738,-7.2394,-7.397,-7.456,-7.4829,-7.5017,-8.7267,-8.7452,-8.5446,-8.4889,-8.5261,-8.3812,-8.318,-8.318,0.0,0.0,0.0,-8.318,-8.318,-8.3143,-8.2363,-8.1583,-8.0877,-8.0059,-7.9354,-7.8722,-7.8601,-7.8499,-7.8499,-7.8351,-7.8304,-7.8267,-7.7672,-7.7226,-7.704,-7.5676,-7.497,-7.4773,-7.4004,-7.3547,-7.3324,-7.1738,-6.9681,-6.7218,-6.479,-6.4278,-6.5626,-6.4145,-6.3072,-6.2537,-6.1901,-6.1354,-6.0921,-6.0487,-6.014,-5.9923,-6.0102,-6.0253,-6.0302,-6.0324,-6.0371,-6.0556,-6.1109,-6.1974,-6.3184,-6.375,-6.4472,-6.5437,-6.5264,-6.4095,-6.1803,-6.2606,-6.3539,-6.4237,-6.4259,-6.3836,-6.3024,-6.3538,-6.3257,-6.1266,-6.1754,-6.195,-6.1312,-6.1415,-6.1501,-6.1494,-6.1804,-6.2158,-6.2275,-6.2511,-6.2654,-6.2603,-6.2449,-6.2719,-6.3483,-6.3529,-6.3266,-6.293,-6.2983,-6.3454,-6.4287,-6.5084,-6.5881,-6.6641,-6.6822,-6.6822,-6.6786,-6.6874,-6.6961,-6.6954,-6.7069,-6.7266,-6.7633,-6.8766,-6.9874,-7.0213,-7.193,-7.344,-7.3554,-7.4197,-7.474,-8.7155,-8.5929,-8.5558,-8.5112,-8.448,-8.3589,-8.318,-8.318,-8.318,-8.318,-8.318,-8.318,-8.318,-8.3143,-8.2363,-8.1917,-8.1768,-8.0914,-8.0468,0.0,-7.9651,-7.9316,-7.9279,-7.8611,-7.8304,-7.8304,-7.8165,-7.7784,-7.7152,-7.6855,-7.6371,-7.5601,-7.4821,-7.4041,-7.3298,-7.1738,-7.0698,-7.019,-6.7442,-6.5443,-6.4294,-6.295,-6.1864,-6.1145,-6.1032,-6.0931,-6.0884,-6.1544,-6.1485,-6.0804,-6.1444,-6.2007,-6.2275,-6.2273,-6.2724,-6.3645,-6.3813,-6.4581,-6.6137,-6.6272,-6.6279,-6.6245,-6.5044,-6.4067,-6.3738,-6.4471,-6.4982,-6.5128,-6.4765,-6.4084,-6.3068,-6.2911,-6.2367,-6.1152,-6.1141,-6.1171,-6.098,-6.1218,-6.1407,-6.1289,-6.1559,-6.194,-6.1968,-6.2105,-6.2204,-6.2114,-6.2322,-6.264,-6.3683,-6.3683,-6.3002,-6.244,-6.2766,-6.3454,-6.4251,-6.5084,-6.5881,-6.6677,-6.6822,-6.6822,-6.6822,-6.6815,-6.6845,-6.6815,-6.6961,-6.7069,-6.7294,-6.8123,-6.8921,-6.9369,-7.1031,-7.2411,-7.2584,-7.3371,-7.407,-8.7638,-8.6858,-8.5966,-8.5409,-8.4963,-8.3737,-8.318,-8.318,-8.318,-8.318,-8.318,-8.318,-8.318,-8.3069,-8.188,-8.1285,-8.1248,-7.9985,-7.9391,-7.9354,-7.8982,-7.8833,-7.8796,-7.8462,-7.8304,-7.8304,-7.8304,-7.809,-7.7719,-7.7338,-7.6669,-7.575,-7.4588,-7.3547,-7.2729,-7.1515,-7.0672,-7.0215,-6.7645,-6.5911,-6.5106,-6.3654,-6.3102,-6.363,-6.3256,-6.3464,-6.4329,-6.3879,-6.345,-6.3038,-6.3375,-6.3626,-6.3736,-6.416,-6.4582,-6.5029,-6.5447,-6.5975,-6.675,-6.7063,-6.7032,-6.6512,-6.5411,-6.4751,-6.4751,-6.4237,-6.453,-6.5752,-6.5122,-6.4416,-6.4072,-6.3519,-6.2826,-6.204,-6.1742,-6.1702,-6.1929,-6.2124,-6.2185,-6.2128,-6.2493,-6.2637,-6.2328,-6.2434,-6.2393,-6.2195,-6.263,-6.3454,-6.378,-6.4215,-6.4215,-6.3526,-6.3635,-6.3961,-6.4396,-6.5048,-6.5881,-6.6677,-6.6822,-6.6822,-6.6822,-6.6822,-6.6822,-6.6822,-6.6845,-6.6932,-6.7069,-6.7856,-6.8426,-6.8855,-7.0014,-7.1233,-7.1912,-7.2829,-7.3664,-8.7712,-8.7415,-8.5929,-8.5223,-8.4963,-8.3737,-8.318,-8.318,-8.318,-8.318,-8.318,-8.318,-8.318,-8.2994,-8.1434,-8.0691,-8.0468,-7.9019,-7.8341,-7.8304,-7.8304,-7.8304,-7.8304,-7.8304,-7.8304,-7.8304,-7.8304,-7.8304,-7.823,-7.7672,-7.6827,-7.575,-7.4375,-7.3287,-7.2444,-7.1626,-7.0809,-6.9893,-6.7739,-6.6462,-6.6091,-6.5013,-6.5013,-6.5942,-6.5645,-6.5979,-6.7131,-6.6054,-6.5287,-6.5102,-6.5041,-6.4995,-6.4938,-6.5421,-6.5755,-6.5878,-6.6342,-6.6743,-6.6927,-6.7426,-6.7484,-6.6806,-6.6035,-6.5595,-6.5448,-6.4053,-6.4016,-6.5946,-6.5451,-6.4851,-6.4685,-6.413,-6.3367,-6.2573,-6.2213,-6.2173,-6.2584,-6.2644,-6.2715,-6.2801,-6.308,-6.3024,-6.2742,-6.2774,-6.2723,-6.2602,-6.3382,-6.3889,-6.3889,-6.4867,-6.5229,-6.4903,-6.4649,-6.4685,-6.4685,-6.5374,-6.6098,-6.675,-6.6822,-6.6822,-6.6822,-6.6822,-6.6822,-6.6822,-6.6822,-6.6903,-6.7097,-6.7763,-6.8247,-6.8562,-6.9513,-7.0586,-7.1518,-7.2584,-7.3503,-8.6524,-8.5743,-8.4926,-8.4072,-8.3477,-8.3254,-8.318,-8.318,-8.318,-8.318,-8.318,-8.318,-8.318,-8.2957,-8.1434,-8.0654,-8.0542,-7.9019,-7.8304,-7.8304,-7.8304,-7.8304,-7.8304,-7.8304,-7.8304,-7.8304,-7.8304,-7.8304,-7.8304,-7.8155,-7.7375,-7.5861,-7.4896,-7.4004,-7.3287,-7.2469,-7.1626,-7.0784,-6.915,-6.7553,-6.6239,-6.6685,-6.6722,-6.6128,-6.6722,-6.7131,-6.7243,-6.7168,-6.6722,-6.603,-6.5824,-6.5716,-6.5729,-6.5644,-6.5863,-6.6526,-6.6581,-6.6833,-6.752,-6.7784,-6.7747,-6.7567,-6.6806,-6.6329,-6.6219,-6.4897,-6.464,-6.5956,-6.5953,-6.5162,-6.4332,-6.3902,-6.3004,-6.1631,-6.1869,-6.222,-6.1978,-6.1366,-6.1441,-6.2611,-6.251,-6.2154,-6.2337,-6.257,-6.2853,-6.2955,-6.3418,-6.407,-6.4939,-6.541,-6.57,-6.5555,-6.5482,-6.5446,-6.5518,-6.6134,-6.6569,-6.6786,-6.6822,-6.6822,-6.6822,-6.6822,-6.6822,-6.6822,-6.6852,-6.6961,-6.7314,-6.7815,-6.8185,-6.842,-6.9197,-7.0251,-7.1398,-7.2495,-7.3313,-8.6338,-8.5521,-8.474,-8.3923,-8.3225,-8.2971,-8.2941,-8.3024,-8.3024,-8.3024,-8.3061,-8.3151,-8.2957,-8.2437,-8.1211,-8.0468,-7.9911,-7.8796,-7.8304,-7.8304,-7.8304,-7.8304,-7.8304,-7.8304,-7.8304,-7.8304,-7.8304,-7.8304,-7.8155,-7.731,-7.6456,-7.5713,-7.455,-7.3733,-7.3361,-7.2618,-7.1775,-7.0895,-6.9781,-6.8383,-6.6826,-6.6118,-6.5942,-6.6054,-6.5919,-6.6091,-6.6537,-6.6611,-6.6378,-6.601,-6.6308,-6.6556,-6.6507,-6.6851,-6.7181,-6.7513,-6.7384,-6.7426,-6.7677,-6.7767,-6.7547,-6.7026,-6.6696,-6.6135,-6.5257,-6.4912,-6.5092,-6.5411,-6.5121,-6.4657,-6.4471,-6.3816,-6.3035,-6.2342,-6.2195,-6.2235,-6.2604,-6.2198,-6.2181,-6.2649,-6.2534,-6.2269,-6.2225,-6.257,-6.2947,-6.3317,-6.3889,-6.4867,-6.5555,-6.5989,-6.6279,-6.6315,-6.6315,-6.6062,-6.5844,-6.6279,-6.6714,-6.6822,-6.6822,-6.6822,-6.6822,-6.6822,-6.6822,-6.6822,-6.6976,-6.7141,-6.7314,-6.7657,-6.7996,-6.8308,-6.9284,-7.0395,-7.0893,-7.2193,-7.3135,-8.5973,-8.5126,-8.4286,-8.3618,-8.3069,-8.2788,-8.2758,-8.2843,-8.2843,-8.2837,-8.2934,-8.3024,-8.2556,-8.162,-8.0951,-8.0245,-7.9428,-7.8648,-7.8304,-7.8304,-7.8304,-7.8304,-7.8304,-7.8304,-7.8304,-7.8304,-7.8304,-7.8165,-7.7895,-7.679,-7.5936,-7.5341,-7.429,-7.3595,-7.3361,-7.2804,-7.2109,-7.1292,-7.0412,-6.9311,-6.7827,-6.6256,-6.5723,-6.6267,-6.5807,-6.5882,-6.6651,-6.6489,-6.6418,-6.642,-6.7025,-6.7271,-6.7246,-6.7723,-6.8004,-6.7967,-6.7863,-6.771,-6.742,-6.7357,-6.7026,-6.6292,-6.6366,-6.5862,-6.4772,-6.5014,-6.5184,-6.4648,-6.4426,-6.4537,-6.4393,-6.3525,-6.2875,-6.2622,-6.2261,-6.2368,-6.2675,-6.2454,-6.222,-6.2549,-6.234,-6.229,-6.22,-6.257,-6.3011,-6.3579,-6.4685,-6.5736,-6.5953,-6.6424,-6.6786,-6.6822,-6.6786,-6.6569,-6.6098,-6.6388,-6.675,-6.6822,-6.6822,-6.6822,-6.6858,-6.6931,-6.6895,-6.6997,-6.7237,-6.7384,-6.7515,-6.7684,-6.7747,-6.8084,-6.892,-6.9942,-7.0005,-7.1568,-7.2606,-8.5095,-8.4164,-8.3195,-8.2801,-8.2696,-8.2696,-8.2696,-8.2696,-8.2696,-8.2788,-8.2874,-8.2934,-8.2134,-8.0877,-8.0802,-8.0282,-7.9465,-7.8722,-7.8378,-7.8388,-7.8351,-7.8313,-7.8304,-7.8304,-7.8304,-7.8304,-7.8304,-7.7942,-7.7301,-7.7078,-7.6196,-7.4784,-7.4588,-7.4115,-7.3547,-7.3335,-7.2915,-7.2035,-7.1229,-7.0387,-6.9422,-6.7839,-6.7012,-6.7049,-6.7096,-6.7319,-6.7889,-6.742,-6.7296,-6.7948,-6.7819,-6.7893,-6.797,-6.7836,-6.7767,-6.7741,-6.7741,-6.7383,-6.6769,-6.6696,-6.6329,-6.5705,-6.6156,-6.595,-6.4776,-6.5296,-6.5255,-6.3879,-6.4435,-6.4579,-6.3986,-6.302,-6.1981,-6.1462,-6.2004,-6.2139,-6.1876,-6.1375,-6.1428,-6.1991,-6.1822,-6.1796,-6.2144,-6.2468,-6.3358,-6.4202,-6.5084,-6.5881,-6.6496,-6.675,-6.6786,-6.6822,-6.6822,-6.6786,-6.675,-6.6714,-6.6786,-6.6822,-6.6822,-6.6858,-6.7076,-6.7257,-6.7221,-6.7257,-6.7629,-6.7781,-6.7743,-6.7667,-6.7506,-6.7707,-6.8165,-6.8778,-6.9355,-7.0696,-7.1759,-8.4608,-8.3201,-8.2713,-8.2571,-8.2665,-8.2476,-8.238,-8.238,-8.2476,-8.2534,-8.2628,-8.2813,-8.2401,-8.1508,-8.1508,-8.0765,-7.9539,-7.9168,-7.9056,-7.9056,-7.9056,-7.8796,-7.8341,-7.8304,-7.8304,-7.8304,-7.8304,-7.8165,-7.7858,-7.7375,-7.6817,-7.6111,-7.5108,-7.4439,-7.4142,-7.3632,-7.2938,-7.2055,-7.1658,-7.0839,-6.9488,-6.8786,-6.8243,-6.7613,-6.6704,-6.6309,-6.6556,-6.6815,-6.7061,-6.7204,-6.7631,-6.7926,-6.7941,-6.7978,-6.7926,-6.7847,-6.7847,-6.7647,-6.7347,-6.7283,-6.6916,-6.6192,-6.65,-6.6208,-6.5214,-6.5246,-6.5294,-6.4668,-6.3824,-6.3549,-6.356,-6.3035,-6.2271,-6.1199,-6.1133,-6.1285,-6.103,-6.0755,-6.0701,-6.1069,-6.1312,-6.1809,-6.2394,-6.3394,-6.4446,-6.5099,-6.5844,-6.6424,-6.6677,-6.6822,-6.6822,-6.6822,-6.6822,-6.6822,-6.6822,-6.6786,-6.6822,-6.6822,-6.6858,-6.7184,-6.7474,-6.78,-6.7873,-6.8192,-6.8433,-6.832,-6.8302,-6.7982,-6.7715,-6.7575,-6.7992,-6.8657,-6.8943,-7.0411,-7.1353,-8.3787,-8.2676,-8.2444,-8.2375,-8.2508,-8.2219,-8.2121,-8.2121,-8.2182,-8.2279,-8.2375,-8.2628,-8.2429,-8.1978,-8.1896,-8.1368,-8.032,-8.0022,-7.9874,-7.9874,-7.9874,-7.9465,-7.8796,-7.8685,-7.8536,-7.8378,-7.8304,-7.8202,-7.7905,-7.7635,-7.7199,-7.6594,-7.5777,-7.5081,-7.4625,-7.4041,-7.332,-7.2484,-7.2024,-7.1104,-6.9737,-6.9331,-6.8815,-6.7889,-6.6809,-6.6307,-6.6333,-6.669,-6.6909,-6.71,-6.7553,-6.7847,-6.7847,-6.7926,-6.7952,-6.7847,-6.7847,-6.7684,-6.7383,-6.732,-6.6953,-6.6192,-6.6326,-6.6058,-6.5176,-6.5113,-6.5071,-6.4699,-6.3777,-6.3018,-6.2883,-6.2804,-6.2178,-6.1036,-6.0727,-6.064,-6.0547,-6.0521,-6.0533,-6.0857,-6.1372,-6.1974,-6.2704,-6.4111,-6.5022,-6.5562,-6.6315,-6.6786,-6.6822,-6.6822,-6.6822,-6.6822,-6.6822,-6.6822,-6.6822,-6.6822,-6.6822,-6.6822,-6.7221,-6.7547,-6.8017,-6.838,-6.8706,-6.9056,-6.911,-6.8997,-6.8713,-6.839,-6.8086,-6.7804,-6.8327,-6.9141,-6.966,-7.029,-7.1242,-8.2676,-8.2449,-8.2251,-8.2292,-8.2186,-8.2022,-8.1885,-8.1885,-8.1919,-8.2018,-8.2215,-8.2375,-8.2253,-8.1867,-8.1926,-8.1837,-8.1768,-8.1137,-8.0802,-8.0728,-8.0728,-8.0245,-7.9428,-7.9354,-7.8945,-7.8341,-7.8304,-7.7905,-7.7375,-7.783,-7.7459,-7.6344,-7.6594,-7.5973,-7.4635,-7.4487,-7.3999,-7.3124,-7.2357,-7.1463,-7.0481,-6.961,-6.8783,-6.801,-6.7647,-6.7573,-6.7752,-6.7126,-6.7074,-6.7557,-6.7677,-6.7714,-6.7714,-6.7741,-6.7714,-6.7714,-6.7714,-6.7347,-6.6733,-6.6659,-6.6439,-6.5793,-6.5688,-6.5728,-6.5393,-6.5063,-6.4822,-6.4563,-6.3846,-6.3066,-6.2306,-6.1974,-6.1521,-6.093,-6.0727,-6.0574,-6.0454,-6.0521,-6.0803,-6.1181,-6.169,-6.2257,-6.3275,-6.4506,-6.5382,-6.5793,-6.6351,-6.6895,-6.6931,-6.6931,-6.6822,-6.6895,-6.6858,-6.6822,-6.6822,-6.6822,-6.6858,-6.6967,-6.751,-6.8017,-6.8669,-6.9104,-6.9539,-6.9859,-6.9859,-6.9721,-6.9061,-6.8786,-6.9012,-6.8925,-6.9398,-6.9608,-7.0027,-7.0585,-7.1373,-8.3222,-8.3096,-8.303,-8.2634,-8.2022,-8.1919,-8.1751,-8.1617,-8.1785,-8.1985,-8.2145,-8.2439,-8.2641,-8.2728,-8.275,-8.2742,-8.2809,-8.2511,-8.214,-8.1657,-8.1583,-8.084,-7.9725,-7.9502,-7.9056,-7.8425,-7.8304,-7.8192,-7.8016,-7.8165,-7.7942,-7.7496,-7.6604,-7.5973,-7.5378,-7.4338,-7.349,-7.3091,-7.2805,-7.1894,-7.0386,-6.9936,-6.9127,-6.7914,-6.7714,-6.7741,-6.7731,-6.751,-6.7484,-6.7687,-6.7687,-6.7687,-6.7687,-6.7687,-6.7687,-6.7687,-6.7687,-6.7614,-6.7393,-6.7283,-6.7039,-6.649,-6.6199,-6.5893,-6.5627,-6.524,-6.5116,-6.4944,-6.4081,-6.3115,-6.2795,-6.1592,-6.0839,-6.0552,-6.0388,-6.036,-6.0336,-6.0301,-6.0681,-6.1514,-6.2241,-6.3133,-6.422,-6.5315,-6.5959,-6.63,-6.6677,-6.6901,-6.7438,-6.7184,-6.7112,-6.7474,-6.7184,-6.704,-6.7184,-6.7474,-6.7692,-6.7836,-6.8235,-6.8669,-6.9285,-6.9834,-7.0268,-7.0517,-7.0517,-7.0258,-6.9605,-6.9449,-6.9678,-6.9682,-6.9763,-6.9986,-7.0257,-7.0853,-7.1689,-8.3668,-8.3059,-8.3287,-8.2821,-8.1922,-8.1818,-8.1649,-8.1445,-8.1581,-8.1818,-8.2084,-8.2343,-8.2727,-8.3031,-8.3054,-8.3054,-8.3121,-8.3151,-8.2891,-8.2416,-8.2437,-8.1508,-7.9985,-7.9279,-7.9019,-7.8722,-7.8425,-7.8462,-7.8722,-7.8453,-7.8304,-7.8053,-7.7199,-7.6354,-7.577,-7.4741,-7.3865,-7.3028,-7.2567,-7.1793,-7.068,-6.9963,-6.9155,-6.8238,-6.7871,-6.7687,-6.7687,-6.7687,-6.7687,-6.7687,-6.7687,-6.7687,-6.7687,-6.7687,-6.7687,-6.7687,-6.7687,-6.7687,-6.7687,-6.7451,-6.7258,-6.6852,-6.6319,-6.5887,-6.5558,-6.5054,-6.4604,-6.5095,-6.3808,-6.2986,-6.3172,-6.1923,-6.0889,-6.0819,-6.041,-6.0279,-6.0519,-6.0688,-6.1379,-6.2418,-6.3187,-6.4045,-6.5042,-6.5689,-6.6474,-6.6897,-6.6878,-6.7234,-6.7843,-6.7764,-6.7945,-6.8126,-6.8126,-6.7981,-6.7836,-6.8126,-6.8561,-6.8814,-6.9068,-6.9502,-6.9973,-7.0423,-7.0862,-7.0965,-7.0997,-7.0987,-7.0475,-7.0366,-7.0428,-7.032,-7.0449,-7.0901,-7.1377,-7.1444,-7.2198,-8.3885,-8.2638,-8.3137,-8.2788,-8.1892,-8.1683,-8.1512,-8.1375,-8.1445,-8.1615,-8.1922,-8.2186,-8.2471,-8.2813,-8.2904,-8.2904,-8.2934,-8.3091,-8.3054,-8.2883,-8.2794,-8.1999,-8.0551,-7.9391,-7.8991,-7.9,-7.8759,-7.8833,-7.9037,-7.8694,-7.8313,-7.8183,-7.7812,-7.7265,-7.5755,-7.5468,-7.4256,-7.2853,-7.1987,-7.1489,-7.1138,-6.9743,-6.8935,-6.8788,-6.8091,-6.7687,-6.7687,-6.7687,-6.7687,-6.7687,-6.7687,-6.7687,-6.7687,-6.7687,-6.7687,-6.7687,-6.7687,-6.7596,-6.7515,-6.7146,-6.6794,-6.6618,-6.6012,-6.5507,-6.5365,-6.4282,-6.3907,-6.4964,-6.329,-6.2474,-6.3132,-6.2299,-6.1527,-6.1456,-6.0899,-6.0794,-6.1418,-6.1687,-6.2386,-6.3548,-6.4276,-6.4721,-6.5554,-6.5927,-6.6643,-6.7214,-6.7198,-6.783,-6.8536,-6.8711,-6.8633,-6.8742,-6.8923,-6.8706,-6.8452,-6.8959,-6.9358,-6.9611,-7.0046,-7.063,-7.0816,-7.1155,-7.1416,-7.1484,-7.1472,-7.1463,-7.1422,-7.1272,-7.1433,-7.1648,-7.1932,-7.2292,-7.2475,-7.2508,-7.3176,-8.4485,-8.3777,-8.3344,-8.2552,-8.1585,-8.1479,-8.134,-8.1234,-8.1443,-8.1683,-8.1919,-8.2215,-8.2471,-8.2727,-8.2758,-8.2758,-8.2788,-8.2904,-8.2964,-8.2823,-8.2267,-8.1556,-8.0732,-8.0225,-7.9352,-7.8615,-7.9315,-7.9426,-7.8372,-7.8784,-7.8636,-7.79,-7.6929,-7.6087,-7.5365,-7.4367,-7.3435,-7.2714,-7.1913,-7.1425,-7.1064,-6.9743,-6.8935,-6.8825,-6.8091,-6.7724,-6.7687,-6.7687,-6.7687,-6.7687,-6.7687,-6.7687,-6.7687,-6.7687,-6.766,-6.7633,-6.7286,-6.7117,-6.7032,-6.6648,-6.6258,-6.5887,-6.5668,-6.5344,-6.4977,-6.4129,-6.4129,-6.4515,-6.3064,-6.2171,-6.2875,-6.2258,-6.1779,-6.2194,-6.1799,-6.1687,-6.2284,-6.2534,-6.2923,-6.3869,-6.4215,-6.4767,-6.5561,-6.6324,-6.6944,-6.742,-6.7899,-6.8461,-6.9204,-6.9399,-6.914,-6.9533,-6.9642,-6.9316,-6.9279,-6.9787,-7.0154,-7.0408,-7.1065,-7.2014,-7.2059,-7.2102,-7.2214,-7.2214,-7.2014,-7.1965,-7.1997,-7.1987,-7.2393,-7.2577,-7.2875,-7.2988,-7.3435,-7.3692,-7.465,-8.4649,-8.3853,-8.3242,-8.2345,-8.1446,-8.1443,-8.141,-8.1305,-8.1478,-8.1785,-8.2055,-8.2215,-8.2476,-8.2665,-8.2696,-8.2639,-8.2508,-8.2628,-8.2474,-8.1926,-8.1383,-8.0667,-7.9993,-7.9644,-7.9031,-7.8552,-7.9438,-7.9261,-7.8552,-7.8906,-7.861,-7.7887,-7.6897,-7.6056,-7.5297,-7.4486,-7.3406,-7.2638,-7.1838,-7.1369,-7.1174,-6.9743,-6.9045,-6.8752,-6.8128,-6.7687,-6.7687,-6.7687,-6.7687,-6.7687,-6.7687,-6.7687,-6.7687,-6.746,-6.7378,-6.735,-6.6881,-6.6618,-6.6529,-6.6166,-6.5828,-6.5507,-6.5311,-6.4835,-6.4315,-6.3716,-6.3674,-6.4166,-6.2893,-6.2949,-6.3612,-6.3165,-6.2955,-6.33,-6.3144,-6.3105,-6.3403,-6.3406,-6.3798,-6.4326,-6.4643,-6.4814,-6.564,-6.6196,-6.6749,-6.7263,-6.7775,-6.8728,-6.9688,-6.97,-6.9895,-7.0227,-7.048,-7.0299,-7.0227,-7.0625,-7.1246,-7.1499,-7.2102,-7.3116,-7.3116,-7.305,-7.2942,-7.2867,-7.2633,-7.2472,-7.2504,-7.2491,-7.2429,-7.2723,-7.3203,-7.361,-7.3978,-7.4757,-7.5756,-8.4513,-8.3298,-8.2849,-8.2169,-8.1411,-8.1478,-8.1443,-8.1445,-8.1547,-8.1818,-8.2088,-8.2186,-8.2348,-8.2633,-8.2539,-8.2444,-8.2186,-8.2279,-8.1764,-8.1134,-8.0444,-7.9822,-7.9386,-7.918,-7.8892,-7.898,-7.912,-7.9342,-7.9201,-7.9127,-7.8714,-7.7991,-7.7659,-7.6744,-7.5558,-7.5014,-7.4146,-7.2847,-7.179,-7.1468,-7.1248,-7.0073,-6.9229,-6.9045,-6.8164,-6.7724,-6.7687,-6.7687,-6.7687,-6.7687,-6.7687,-6.766,-6.7569,-6.7146,-6.6881,-6.6736,-6.641,-6.6136,-6.6043,-6.57,-6.5409,-6.5278,-6.4945,-6.439,-6.3757,-6.3187,-6.3075,-6.3639,-6.3132,-6.3374,-6.4397,-6.4492,-6.4344,-6.4344,-6.4539,-6.4543,-6.435,-6.4418,-6.4699,-6.5141,-6.5214,-6.5349,-6.5518,-6.5723,-6.6138,-6.7962,-6.8371,-6.9137,-7.0053,-7.0392,-7.0703,-7.1096,-7.1277,-7.1386,-7.1386,-7.1494,-7.2187,-7.2702,-7.3344,-7.4034,-7.3994,-7.3922,-7.3742,-7.3485,-7.3038,-7.2879,-7.2979,-7.289,-7.2751,-7.3191,-7.3855,-7.4006,-7.4191,-7.5331,-7.642,-8.3422,-8.2678,-8.1989,-8.1485,-8.12,-8.1199,-8.127,-8.141,-8.1547,-8.1785,-8.1952,-8.2121,-8.2219,-8.2316,-8.2219,-8.2055,-8.1952,-8.1912,-8.1578,-8.0823,-7.9621,-7.9468,-7.9688,-8.01,-7.9848,-7.9535,-8.0948,-8.0991,-8.002,-7.9572,-7.9314,-7.8382,-7.7236,-7.6293,-7.5859,-7.4823,-7.3949,-7.323,-7.2092,-7.1725,-7.1762,-7.066,-6.9779,-6.9596,-6.8458,-6.7787,-6.7687,-6.7687,-6.7687,-6.7687,-6.766,-6.7488,-6.7174,-6.6939,-6.6707,-6.6319,-6.5887,-6.5636,-6.5572,-6.5212,-6.4877,-6.4911,-6.4774,-6.439,-6.3653,-6.3082,-6.2828,-6.2861,-6.2425,-6.2949,-6.4087,-6.4353,-6.4596,-6.4951,-6.529,-6.5323,-6.5098,-6.5068,-6.5074,-6.4979,-6.512,-6.5361,-6.6095,-6.6264,-6.7034,-6.8442,-6.9138,-6.9721,-7.031,-7.0866,-7.125,-7.1494,-7.1494,-7.1567,-7.1897,-7.2119,-7.2854,-7.3402,-7.4,-7.4688,-7.465,-7.4682,-7.4466,-7.399,-7.3366,-7.3392,-7.3704,-7.3457,-7.3385,-7.4013,-7.4537,-7.4872,-7.5352,-7.6309,-7.7127,-8.3027,-8.2502,-8.1668,-8.1235,-8.1128,-8.1235,-8.1305,-8.1445,-8.1649,-8.1818,-8.1919,-8.2121,-8.2186,-8.2186,-8.2022,-8.1852,-8.1641,-8.1282,-8.095,-8.0458,-7.9627,-7.9396,-7.9832,-8.062,-8.0472,-7.9606,-8.0877,-8.0956,-8.0121,-7.9821,-7.9417,-7.8589,-7.7268,-7.657,-7.613,-7.5175,-7.4478,-7.3707,-7.2936,-7.2349,-7.1798,-7.1174,-7.011,-6.9633,-6.8678,-6.8128,-6.7724,-6.7687,-6.7687,-6.766,-6.746,-6.7202,-6.691,-6.6677,-6.6349,-6.5922,-6.5409,-6.5112,-6.5013,-6.4877,-6.4706,-6.4706,-6.4706,-6.4039,-6.3511,-6.3047,-6.3073,-6.2991,-6.3052,-6.3502,-6.4433,-6.4678,-6.5062,-6.5171,-6.5483,-6.5447,-6.532,-6.5532,-6.5679,-6.5476,-6.5758,-6.6248,-6.6737,-6.6764,-6.728,-6.8365,-6.8809,-6.9357,-7.0269,-7.0825,-7.125,-7.1494,-7.1494,-7.1712,-7.2151,-7.2705,-7.3444,-7.385,-7.4149,-7.4761,-7.5119,-7.5152,-7.5185,-7.4711,-7.4338,-7.4438,-7.4606,-7.432,-7.4103,-7.4347,-7.4872,-7.5678,-7.6477,-7.7172,-7.7974,-8.2707,-8.2321,-8.1453,-8.1092,-8.1092,-8.127,-8.134,-8.1445,-8.1717,-8.1852,-8.1955,-8.2121,-8.2186,-8.2121,-8.1919,-8.1751,-8.1328,-8.0784,-8.0453,-8.0661,-7.9869,-7.9925,-8.0351,-8.075,-8.086,-8.0241,-8.1044,-8.0828,-8.0456,-7.9874,-7.9501,-7.8736,-7.7745,-7.7011,-7.6423,-7.6056,-7.5432,-7.4368,-7.3744,-7.3046,-7.2092,-7.1651,-7.077,-6.9522,-6.9192,-6.8568,-6.7981,-6.7834,-6.7871,-6.766,-6.7174,-6.691,-6.6677,-6.6349,-6.5855,-6.5409,-6.4979,-6.4809,-6.4809,-6.4706,-6.4706,-6.4706,-6.4706,-6.4074,-6.3195,-6.3291,-6.3382,-6.3441,-6.3573,-6.4489,-6.548,-6.5526,-6.5497,-6.5674,-6.5707,-6.5569,-6.561,-6.6172,-6.6493,-6.5969,-6.611,-6.6566,-6.6879,-6.7013,-6.7634,-6.8216,-6.8622,-6.9313,-7.0265,-7.1006,-7.168,-7.2219,-7.24,-7.2702,-7.3208,-7.3297,-7.403,-7.4361,-7.4546,-7.4904,-7.5442,-7.5547,-7.5613,-7.5753,-7.5564,-7.5448,-7.5255,-7.5047,-7.4879,-7.4863,-7.5378,-7.6326,-7.7162,-7.7931,-7.8792,-8.1661,-8.1309,-8.1165,-8.1092,-8.1128,-8.1164,-8.1234,-8.141,-8.1581,-8.1751,-8.1885,-8.2121,-8.2051,-8.1919,-8.1751,-8.1478,-8.1158,-8.0719,-8.0745,-8.1063,-8.0455,-8.0429,-8.1379,-8.1232,-8.1305,-8.1746,-8.1893,-8.1746,-8.1342,-8.0566,-7.9874,-7.9323,-7.8112,-7.7231,-7.7011,-7.6497,-7.6056,-7.5285,-7.4404,-7.3523,-7.3083,-7.2422,-7.1505,-7.0073,-6.9889,-6.9128,-6.8174,-6.8311,-6.8421,-6.777,-6.7174,-6.6707,-6.6319,-6.5855,-6.5376,-6.5013,-6.4809,-6.4706,-6.4706,-6.4706,-6.4706,-6.4706,-6.4706,-6.4355,-6.372,-6.3745,-6.3768,-6.3548,-6.3863,-6.4713,-6.6095,-6.5997,-6.6388,-6.6705,-6.6915,-6.695,-6.6988,-6.7411,-6.7551,-6.6602,-6.6602,-6.6776,-6.7231,-6.7612,-6.8059,-6.8821,-6.948,-7.0498,-7.1705,-7.2268,-7.2658,-7.316,-7.3595,-7.3971,-7.4377,-7.4352,-7.4612,-7.4903,-7.5084,-7.5154,-7.5584,-7.5795,-7.5969,-7.6216,-7.5959,-7.5445,-7.5393,-7.5552,-7.5575,-7.5525,-7.6251,-7.7053,-7.7751,-7.8514,-7.9311,-8.1878,-8.1128,-8.1092,-8.1092,-8.1092,-8.1092,-8.1164,-8.127,-8.1408,-8.1581,-8.1751,-8.1852,-8.1885,-8.1818,-8.1615,-8.134,-8.1089,-8.1048,-8.1184,-8.1357,-8.119,-8.124,-8.215,-8.1746,-8.1893,-8.2113,-8.2186,-8.2186,-8.2076,-8.1012,-8.0424,-8.0021,-7.8772,-7.8002,-7.7781,-7.7194,-7.6533,-7.5983,-7.4992,-7.4111,-7.367,-7.2899,-7.1835,-7.1064,-7.0567,-6.9741,-6.841,-6.8235,-6.7984,-6.707,-6.6446,-6.6074,-6.576,-6.5409,-6.4979,-6.474,-6.4706,-6.4706,-6.4706,-6.4706,-6.4706,-6.4706,-6.4706,-6.4355,-6.4037,-6.4064,-6.4334,-6.4326,-6.4362,-6.5143,-6.6173,-6.6143,-6.6426,-6.6954,-6.7306,-6.7376,-6.7517,-6.8188,-6.8011,-6.7553,-6.7834,-6.8044,-6.8076,-6.8388,-6.8625,-6.932,-7.0231,-7.1542,-7.3002,-7.3316,-7.3559,-7.4178,-7.4616,-7.4882,-7.5143,-7.5009,-7.4869,-7.512,-7.5478,-7.5549,-7.5941,-7.6296,-7.6579,-7.6897,-7.6386,-7.5913,-7.5835,-7.6112,-7.613,-7.6291,-7.7029,-7.7762,-7.8413,-7.9097,-7.9999,-8.2097,-8.1092,-8.1092,-8.1092,-8.1092,-8.1092,-8.1092,-8.1128,-8.1305,-8.1479,-8.1547,-8.1615,-8.1683,-8.1683,-8.1514,-8.1234,-8.1092,-8.1304,-8.1476,-8.1613,-8.1776,-8.2051,-8.2117,-8.2186,-8.215,-8.215,-8.2186,-8.2186,-8.2039,-8.1305,-8.1048,-8.0461,-7.936,-7.8589,-7.8332,-7.7598,-7.6937,-7.635,-7.5542,-7.4735,-7.3744,-7.2812,-7.1948,-7.1259,-7.1165,-7.0244,-6.85,-6.8578,-6.7921,-6.6906,-6.6141,-6.5753,-6.548,-6.5013,-6.4706,-6.4706,-6.4706,-6.4706,-6.4706,-6.4706,-6.4706,-6.4706,-6.4706,-6.4355,-6.4213,-6.4525,-6.508,-6.5391,-6.5249,-6.5571,-6.6318,-6.6286,-6.6708,-6.741,-6.7691,-6.7727,-6.8328,-6.8964,-6.9637,-6.9389,-6.9389,-6.9175,-6.9066,-6.9274,-6.9513,-7.0281,-7.1159,-7.2473,-7.3757,-7.4037,-7.4395,-7.5122,-7.5598,-7.5789,-7.5798,-7.5514,-7.5227,-7.4973,-7.5405,-7.5657,-7.6266,-7.6837,-7.7264,-7.769,-7.7436,-7.7036,-7.6886,-7.6663,-7.668,-7.6988,-7.7733,-7.829,-7.8614,-7.9785,-8.105,-8.1378,-8.1092,-8.1092,-8.1092,-8.1092,-8.1092,-8.1128,-8.1128,-8.1305,-8.141,-8.1479,-8.1547,-8.1512,-8.1445,-8.127,-8.1164,-8.1199,-8.1445,-8.1581,-8.1683,-8.1952,-8.2154,-8.2186,-8.2186,-8.2186,-8.2186,-8.2186,-8.2186,-8.2039,-8.1452,-8.1048,-8.0681,-7.958,-7.8589,-7.8516,-7.7745,-7.7273,-7.698,-7.6313,-7.5175,-7.3765,-7.2486,-7.1496,-7.1023,-7.077,-7.0197,-6.8845,-6.8886,-6.8574,-6.7298,-6.6667,-6.615,-6.5587,-6.4979,-6.474,-6.4706,-6.4706,-6.4706,-6.4706,-6.4706,-6.4706,-6.4706,-6.4706,-6.4671,-6.474,-6.4983,-6.5576,-6.6169,-6.5644,-6.5859,-6.6848,-6.6954,-6.7691,-6.8392,-6.8884,-6.9417,-6.995,-6.9742,-7.0416,-7.0949,-7.0841,-7.0166,-6.9774,-7.0089,-7.0474,-7.1247,-7.2199,-7.3552,-7.4694,-7.5158,-7.5587,-7.6386,-7.6796,-7.6983,-7.6625,-7.6334,-7.5824,-7.5281,-7.5613,-7.6049,-7.6697,-7.7451,-7.8201,-7.8484,-7.8303,-7.834,-7.8374,-7.8078,-7.7483,-7.7611,-7.8285,-7.8515,-7.8558,-8.0087,-8.1999,-8.1163,-8.1092,-8.1092,-8.1092,-8.1092,-8.1092,-8.1163,-8.1271,-8.1234,-8.134,-8.1443,-8.1339,-8.1305,-8.1199,-8.1128,-8.1092,-8.1163,-8.1443,-8.1615,-8.1683,-8.1989,-8.2186,-8.2186,-8.2186,-8.2186,-8.2186,-8.2186,-8.2186,-8.2039,-8.1856,-8.1525,-8.0865,-7.9874,-7.8993,-7.8736,-7.7781,-7.7384,-7.6907,-7.6063,-7.4952,-7.383,-7.2564,-7.1625,-7.1376,-7.1078,-7.0097,-6.9256,-6.9011,-6.856,-6.7327,-6.6562,-6.6104,-6.5646,-6.5125,-6.4706,-6.4706,-6.4706,-6.4706,-6.4706,-6.4706,-6.4706,-6.4706,-6.4776,-6.4882,-6.5338,-6.5899,-6.6284,-6.6637,-6.653,-6.6848,-6.7482,-6.7691,-6.8359,-6.906,-6.9834,-7.0406,-7.087,-7.098,-7.1161,-7.1766,-7.2299,-7.1765,-7.1408,-7.1653,-7.2077,-7.2676,-7.3778,-7.5207,-7.6282,-7.7002,-7.7434,-7.7869,-7.8133,-7.8315,-7.7696,-7.7179,-7.6728,-7.6331,-7.6572,-7.6975,-7.7413,-7.8099,-7.9033,-7.9426,-7.9281,-7.9426,-7.9716,-7.9025,-7.8073,-7.8347,-7.8836,-7.9141,-7.9585,-8.1131,-8.283,-8.1092,-8.1092,-8.1092,-8.1092,-8.1092,-8.1164,-8.1235,-8.127,-8.1234,-8.1305,-8.1339,-8.1234,-8.1092,-8.1092,-8.1128,-8.1092,-8.1128,-8.1443,-8.1581,-8.1751,-8.1952,-8.2154,-8.2186,-8.2186,-8.2186,-8.2186,-8.2186,-8.2186,-8.2186,-8.2076,-8.1819,-8.1269,-8.0534,-7.9874,-7.914,-7.8264,-7.7609,-7.6878,-7.5588,-7.4674,-7.395,-7.2452,-7.1903,-7.1529,-7.097,-7.0087,-6.9281,-6.9105,-6.8505,-6.7553,-6.6954,-6.6637,-6.6216,-6.5548,-6.5162,-6.5127,-6.5127,-6.4952,-6.4811,-6.4706,-6.4706,-6.4776,-6.5092,-6.5514,-6.6426,-6.7095,-6.7377,-6.727,-6.7059,-6.7481,-6.8042,-6.8322,-6.8989,-6.9693,-7.0433,-7.1008,-7.1546,-7.1833,-7.2404,-7.3225,-7.3761,-7.394,-7.3654,-7.358,-7.379,-7.418,-7.5323,-7.6794,-7.7693,-7.845,-7.8703,-7.8922,-7.889,-7.8917,-7.8296,-7.7805,-7.7417,-7.7444,-7.7696,-7.8115,-7.8631,-7.9359,-8.0369,-8.0476,-8.0223,-8.0042,-8.0006,-7.9316,-7.8733,-7.9223,-7.9676,-8.0243,-8.0975,-8.2419,-8.3736,-8.1092,-8.1092,-8.1092,-8.1092,-8.1128,-8.1305,-8.127,-8.1199,-8.1305,-8.127,-8.1163,-8.1092,-8.1092,-8.1092,-8.1092,-8.1092,-8.1092,-8.1443,-8.1581,-8.1751,-8.1952,-8.2154,-8.2186,-8.2186,-8.2154,-8.2154,-8.2121,-8.2121,-8.2186,-8.2154,-8.215,-8.1966,-8.1085,-8.0901,-8.0209,-7.8972,-7.7792,-7.685,-7.5439,-7.4706,-7.3965,-7.2721,-7.1551,-7.1233,-7.0343,-6.9451,-6.9379,-6.9452,-6.9065,-6.8182,-6.7831,-6.748,-6.6918,-6.6216,-6.5829,-6.5794,-6.5794,-6.5549,-6.5233,-6.5092,-6.4812,-6.4952,-6.5514,-6.6461,-6.748,-6.7269,-6.748,-6.8147,-6.8113,-6.8042,-6.8498,-6.8884,-6.9797,-7.0396,-7.1209,-7.1927,-7.2503,-7.2935,-7.3579,-7.4652,-7.5047,-7.5012,-7.58,-7.5729,-7.5547,-7.5868,-7.6799,-7.8237,-7.8706,-7.932,-7.9538,-7.9612,-7.9453,-7.918,-7.8601,-7.8248,-7.8124,-7.8523,-7.8997,-7.9501,-8.0028,-8.0835,-8.1418,-8.1273,-8.0984,-8.0658,-8.0404,-8.0294,-8.0218,-8.024,-8.0588,-8.13,-8.2132,-8.3399,-8.4754,-8.1092,-8.1092,-8.1092,-8.1163,-8.127,-8.1375,-8.141,-8.1374,-8.141,-8.127,-8.1092,-8.1092,-8.1092,-8.1092,-8.1092,-8.1092,-8.1128,-8.1443,-8.1581,-8.1751,-8.1952,-8.2154,-8.2154,-8.2088,-8.2022,-8.2022,-8.1919,-8.1919,-8.2022,-8.2055,-8.2121,-8.1897,-8.1383,-8.0718,-7.9993,-7.9369,-7.8271,-7.7132,-7.5933,-7.5047,-7.4332,-7.3119,-7.2083,-7.2101,-7.1392,-7.0534,-7.0183,-7.0078,-6.9586,-6.9024,-6.8533,-6.8112,-6.7725,-6.6988,-6.6637,-6.6567,-6.6567,-6.6356,-6.611,-6.604,-6.611,-6.6286,-6.6883,-6.762,-6.8392,-6.8673,-6.9165,-6.9551,-6.9762,-6.9832,-7.0288,-7.0639,-7.1026,-7.1415,-7.2058,-7.2919,-7.3319,-7.3754,-7.4328,-7.5152,-7.5511,-7.5619,-7.6731,-7.7846,-7.7667,-7.763,-7.8637,-7.9465,-7.9791,-8.0045,-8.0189,-8.0041,-7.9789,-7.9514,-7.8963,-7.8852,-7.8841,-7.9611,-8.0298,-8.0931,-8.1471,-8.1523,-8.1961,-8.1853,-8.1817,-8.1635,-8.1563,-8.1635,-8.1524,-8.1186,-8.1715,-8.2571,-8.3507,-8.4484,-8.5699,-8.1092,-8.1092,-8.1092,-8.1163,-8.1305,-8.1375,-8.141,-8.1443,-8.141,-8.127,-8.1092,-8.1092,-8.1092,-8.1092,-8.1092,-8.1092,-8.1199,-8.1408,-8.1581,-8.1751,-8.1919,-8.2088,-8.2055,-8.1919,-8.1818,-8.1785,-8.1717,-8.1717,-8.1955,-8.1922,-8.2055,-8.1937,-8.1505,-8.089,-8.0557,-7.9439,-7.8522,-7.7448,-7.6482,-7.5685,-7.5056,-7.3812,-7.303,-7.2964,-7.2114,-7.1412,-7.085,-7.0604,-7.0218,-6.9621,-6.9095,-6.8673,-6.8287,-6.7901,-6.748,-6.7374,-6.7339,-6.7269,-6.7093,-6.6988,-6.7129,-6.7304,-6.769,-6.8287,-6.906,-6.9902,-7.0218,-7.0815,-7.1447,-7.2044,-7.2076,-7.236,-7.2577,-7.3041,-7.362,-7.4305,-7.4104,-7.4362,-7.4935,-7.5581,-7.5905,-7.6408,-7.7846,-7.9071,-7.9396,-7.9215,-7.9719,-8.0333,-8.0587,-8.0767,-8.0794,-8.0486,-7.9973,-7.9723,-7.9387,-7.9562,-7.9901,-8.1047,-8.1785,-8.2493,-8.296,-8.2901,-8.2722,-8.265,-8.265,-8.2613,-8.265,-8.2613,-8.2285,-8.184,-8.28,-8.3864,-8.4901,-8.5878,-8.6652,-8.1128,-8.1092,-8.1128,-8.1092,-8.1128,-8.1305,-8.1305,-8.1234,-8.1305,-8.127,-8.1128,-8.1092,-8.1092,-8.1092,-8.1092,-8.1092,-8.1163,-8.1443,-8.1615,-8.1683,-8.1852,-8.1919,-8.1852,-8.1751,-8.1615,-8.1615,-8.1581,-8.1615,-8.1852,-8.1717,-8.1852,-8.1852,-8.1467,-8.1255,-8.1802,-8.0151,-7.8524,-7.7281,-7.6631,-7.6323,-7.5785,-7.4624,-7.4053,-7.3663,-7.2781,-7.2044,-7.1622,-7.1201,-7.078,-7.0218,-6.9867,-6.9516,-6.927,-6.8708,-6.8357,-6.8322,-6.8217,-6.7866,-6.7199,-6.7093,-6.7655,-6.8252,-6.8708,-6.9095,-7.0078,-7.0675,-7.0991,-7.1658,-7.2248,-7.2707,-7.3234,-7.3869,-7.4053,-7.453,-7.5112,-7.5304,-7.5139,-7.5005,-7.5579,-7.6259,-7.6694,-7.7343,-7.8854,-8.0154,-8.0732,-8.0948,-8.102,-8.1201,-8.1346,-8.134,-8.1392,-8.0723,-8.0194,-8.0253,-8.0098,-8.043,-8.0961,-8.2227,-8.3244,-8.3918,-8.4194,-8.4095,-8.3881,-8.3591,-8.3483,-8.3446,-8.3519,-8.3519,-8.3519,-8.3621,-8.4235,-8.5207,-8.6246,-8.7101,-8.7665,-8.1199,-8.1092,-8.1234,-8.1199,-8.1128,-8.1305,-8.134,-8.127,-8.1234,-8.1128,-8.1092,-8.1092,-8.1092,-8.1092,-8.1092,-8.1092,-8.1163,-8.1443,-8.1615,-8.1649,-8.1785,-8.1885,-8.1785,-8.1547,-8.1408,-8.1445,-8.141,-8.1374,-8.1717,-8.1337,-8.1337,-8.1372,-8.1019,-8.084,-8.0695,-7.9818,-7.8853,-7.798,-7.7364,-7.6819,-7.6257,-7.5344,-7.4747,-7.4712,-7.3694,-7.2957,-7.2465,-7.2009,-7.1517,-7.0885,-7.0534,-7.0569,-7.0253,-6.9691,-6.9691,-6.9516,-6.9376,-6.8884,-6.8779,-6.8989,-6.9446,-6.9656,-6.9762,-7.0148,-7.1166,-7.1798,-7.2149,-7.2493,-7.3033,-7.3562,-7.4352,-7.4482,-7.4813,-7.5627,-7.6109,-7.627,-7.6211,-7.6041,-7.6295,-7.7119,-7.766,-7.8817,-8.0189,-8.1165,-8.178,-8.1998,-8.2034,-8.1884,-8.1948,-8.1899,-8.187,-8.0977,-8.0411,-8.0631,-8.0859,-8.1331,-8.2164,-8.3436,-8.4402,-8.5134,-8.5292,-8.504,-8.475,-8.4316,-8.4279,-8.4279,-8.4389,-8.4572,-8.5264,-8.566,-8.5805,-8.6286,-8.7247,-8.7794,-8.8167,-8.1305,-8.1199,-8.134,-8.134,-8.1199,-8.127,-8.1305,-8.127,-8.1164,-8.1092,-8.1092,-8.1092,-8.1092,-8.1092,-8.1092,-8.1092,-8.1128,-8.1443,-8.1547,-8.1581,-8.1717,-8.1581,-8.1337,-8.1091,-8.0694,-8.0694,-8.0547,-8.0547,-8.0695,-8.0548,-8.0511,-8.0511,-8.0288,-7.9985,-7.9757,-7.9376,-7.9112,-7.8407,-7.789,-7.7661,-7.71,-7.6432,-7.58,-7.5414,-7.4747,-7.401,-7.3378,-7.2851,-7.236,-7.1658,-7.1447,-7.1517,-7.1061,-7.092,-7.078,-7.0429,-6.9832,-6.9411,-6.9446,-6.9972,-7.0323,-7.0815,-7.092,-7.1447,-7.2254,-7.2886,-7.319,-7.3522,-7.3909,-7.4345,-7.4862,-7.4991,-7.6006,-7.6825,-7.7043,-7.7204,-7.7141,-7.7007,-7.7584,-7.83,-7.924,-8.0401,-8.1345,-8.2105,-8.2831,-8.2902,-8.2936,-8.2778,-8.2532,-8.2504,-8.2216,-8.1316,-8.0875,-8.1205,-8.1716,-8.2373,-8.3358,-8.4599,-8.5261,-8.5835,-8.5801,-8.5475,-8.5257,-8.5076,-8.5076,-8.5114,-8.5333,-8.5626,-8.5956,-8.6314,-8.6578,-8.7248,-8.8188,-8.8376,-8.8436,-8.141,-8.141,-8.141,-8.141,-8.1375,-8.1199,-8.1092,-8.1128,-8.1128,-8.1092,-8.1092,-8.1092,-8.1092,-8.1092,-8.1092,-8.1092,-8.1163,-8.1478,-8.1512,-8.1443,-8.1512,-8.1126,-8.0658,-8.0288,-7.9985,-7.9519,-7.94,-7.9715,-7.9526,-7.9718,-7.9754,-7.9558,-7.9519,-7.9276,-7.9115,-7.9079,-7.9004,-7.8612,-7.8411,-7.8258,-7.7907,-7.7486,-7.6819,-7.6222,-7.5414,-7.4677,-7.401,-7.3413,-7.2922,-7.2465,-7.2219,-7.1938,-7.1763,-7.1763,-7.1236,-7.0639,-6.9937,-6.9797,-6.9867,-7.0534,-7.1061,-7.1658,-7.1868,-7.2676,-7.3378,-7.3834,-7.3817,-7.4269,-7.4719,-7.4885,-7.5154,-7.6263,-7.7415,-7.7792,-7.798,-7.8031,-7.8039,-7.8367,-7.905,-7.9918,-8.0934,-8.1955,-8.2684,-8.3374,-8.3664,-8.3768,-8.3689,-8.3295,-8.3147,-8.3074,-8.2587,-8.1629,-8.1449,-8.1872,-8.2451,-8.3288,-8.4017,-8.5103,-8.5453,-8.5909,-8.5837,-8.5837,-8.5656,-8.5547,-8.5764,-8.5838,-8.5731,-8.5954,-8.6319,-8.6673,-8.6875,-8.741,-8.8072,-8.8256,-8.8316,-8.1478,-8.141,-8.1686,-8.1617,-8.1375,-8.12,-8.1092,-8.1092,-8.1092,-8.1092,-8.1092,-8.1092,-8.1092,-8.1092,-8.1092,-8.1163,-8.134,-8.1512,-8.1649,-8.1581,-8.1197,-8.0876,-8.04,-7.9757,-7.94,-7.92,-7.912,-7.9079,-7.9325,-7.94,-7.9034,-7.8741,-7.8864,-7.8699,-7.8699,-7.8782,-7.8699,-7.8657,-7.8574,-7.8574,-7.8399,-7.7872,-7.7345,-7.6819,-7.5871,-7.5204,-7.4712,-7.4115,-7.3624,-7.2957,-7.3238,-7.3167,-7.25,-7.2465,-7.2149,-7.1482,-7.1166,-7.1096,-7.1166,-7.1728,-7.2254,-7.2606,-7.3027,-7.3764,-7.4326,-7.4492,-7.4332,-7.4802,-7.5092,-7.5142,-7.5575,-7.6635,-7.782,-7.8457,-7.8704,-7.8892,-7.8897,-7.9109,-7.9864,-8.1427,-8.2447,-8.3077,-8.3844,-8.4171,-8.4423,-8.4562,-8.44,-8.3924,-8.362,-8.3508,-8.306,-8.2057,-8.2146,-8.2591,-8.3485,-8.4324,-8.4876,-8.5453,-8.5721,-8.5909,-8.5873,-8.5873,-8.5909,-8.5909,-8.5909,-8.5909,-8.5873,-8.6136,-8.6356,-8.6608,-8.6815,-8.7394,-8.7852,-8.801,-8.8072,-8.1512,-8.1478,-8.1615,-8.1549,-8.127,-8.1164,-8.1092,-8.1092,-8.1092,-8.1092,-8.1092,-8.1092,-8.1092,-8.1092,-8.1128,-8.1164,-8.127,-8.1374,-8.1408,-8.0876,-8.0731,-8.0139,-7.964,-7.916,-7.8664,-7.8539,-7.8455,-7.8252,-7.8587,-7.8587,-7.8322,-7.8229,-7.8279,-7.8322,-7.8357,-7.8441,-7.8483,-7.8525,-7.8567,-7.8574,-7.8363,-7.8083,-7.7837,-7.731,-7.6292,-7.5941,-7.5555,-7.4993,-7.4607,-7.4221,-7.4782,-7.4712,-7.401,-7.3729,-7.2922,-7.2254,-7.1728,-7.1833,-7.2079,-7.2781,-7.3308,-7.3799,-7.4396,-7.5239,-7.5364,-7.5423,-7.5234,-7.5273,-7.5189,-7.5232,-7.5948,-7.6692,-7.7883,-7.9017,-7.9348,-7.9679,-7.9708,-7.9772,-8.1006,-8.2682,-8.3567,-8.4199,-8.4677,-8.4966,-8.511,-8.5064,-8.4751,-8.4227,-8.3934,-8.3783,-8.3323,-8.2591,-8.2945,-8.3462,-8.4338,-8.5056,-8.5366,-8.5675,-8.5759,-8.5909,-8.5909,-8.5945,-8.6018,-8.5945,-8.5909,-8.5909,-8.5945,-8.6025,-8.621,-8.6465,-8.6715,-8.7098,-8.7431,-8.766,-8.766,-8.1478,-8.1579,-8.1443,-8.134,-8.1128,-8.1128,-8.1092,-8.1092,-8.1092,-8.1092,-8.1092,-8.1092,-8.1092,-8.1092,-8.1092,-8.1164,-8.1163,-8.1198,-8.0948,-8.0101,-8.0025,-7.9522,-7.8835,-7.8159,-7.7937,-7.749,-7.7357,-7.7632,-7.7446,-7.7761,-7.8137,-7.792,-7.7971,-7.8015,-7.8058,-7.8272,-7.8357,-7.8399,-7.849,-7.8574,-7.8574,-7.8434,-7.8258,-7.7696,-7.731,-7.7029,-7.6538,-7.6292,-7.6292,-7.6257,-7.6187,-7.6081,-7.559,-7.4993,-7.3975,-7.3483,-7.3027,-7.3097,-7.3483,-7.408,-7.4537,-7.5133,-7.5836,-7.6246,-7.6228,-7.5777,-7.5477,-7.5621,-7.5593,-7.5568,-7.6019,-7.7089,-7.8277,-7.924,-7.9843,-8.0487,-8.1052,-8.1185,-8.1982,-8.3379,-8.4169,-8.4771,-8.5177,-8.5429,-8.5728,-8.5569,-8.5287,-8.4717,-8.4338,-8.4129,-8.3826,-8.3297,-8.3662,-8.4242,-8.5029,-8.5657,-8.5775,-8.5933,-8.6159,-8.638,-8.6742,-8.6489,-8.6126,-8.6199,-8.6308,-8.6054,-8.6019,-8.606,-8.6136,-8.6356,-8.6609,-8.6822,-8.7103,-8.7519,-8.766,-8.1478,-8.1615,-8.1581,-8.1443,-8.1305,-8.1163,-8.1092,-8.1092,-8.1092,-8.1092,-8.1092,-8.1092,-8.1092,-8.1092,-8.1092,-8.1128,-8.1234,-8.0876,-8.0622,-8.0025,-7.9601,-7.9028,-7.8329,-7.7798,-7.7481,-7.7268,-7.7223,-7.7292,-7.7337,-7.7827,-7.8098,-7.7736,-7.7754,-7.7807,-7.7885,-7.8101,-7.8272,-7.8272,-7.8448,-7.8574,-7.8574,-7.8574,-7.8399,-7.8083,-7.7837,-7.7486,-7.7029,-7.6643,-7.6468,-7.6292,-7.6292,-7.6257,-7.6222,-7.5871,-7.566,-7.5449,-7.4958,-7.4958,-7.5168,-7.5449,-7.5765,-7.5906,-7.6322,-7.6502,-7.644,-7.5882,-7.5732,-7.5966,-7.6066,-7.5972,-7.6305,-7.7527,-7.8631,-7.9493,-8.0297,-8.1292,-8.2211,-8.2637,-8.3028,-8.3789,-8.4621,-8.5222,-8.5595,-8.5969,-8.6195,-8.6147,-8.5934,-8.5458,-8.4921,-8.462,-8.4763,-8.4391,-8.4415,-8.5007,-8.5837,-8.6394,-8.6619,-8.6947,-8.7319,-8.7467,-8.75,-8.7322,-8.7068,-8.6851,-8.6742,-8.6597,-8.638,-8.6019,-8.6134,-8.6611,-8.6939,-8.7337,-8.7697,-8.8122,-8.8088,-8.1375,-8.1512,-8.1512,-8.1445,-8.127,-8.1164,-8.1092,-8.1092,-8.1092,-8.1092,-8.1092,-8.1092,-8.1092,-8.1092,-8.1092,-8.1092,-8.1092,-8.0584,-8.0137,-7.9676,-7.9074,-7.8651,-7.805,-7.7698,-7.8048,-7.7948,-7.7775,-7.7706,-7.7499,-7.7554,-7.7678,-7.755,-7.7613,-7.7692,-7.7701,-7.7928,-7.8178,-7.8143,-7.8476,-7.8644,-7.8644,-7.8609,-7.8574,-7.8363,-7.8223,-7.7907,-7.7837,-7.7521,-7.7415,-7.7345,-7.7415,-7.71,-7.6994,-7.6748,-7.6538,-7.6292,-7.6152,-7.6432,-7.6678,-7.6819,-7.6924,-7.7064,-7.7275,-7.7629,-7.7283,-7.679,-7.6311,-7.6472,-7.6291,-7.6233,-7.6952,-7.8041,-7.9016,-7.9911,-8.0734,-8.1602,-8.23,-8.2778,-8.321,-8.3768,-8.4799,-8.6045,-8.6532,-8.7053,-8.7172,-8.6552,-8.6297,-8.5849,-8.5343,-8.5307,-8.5379,-8.5598,-8.571,-8.6121,-8.705,-8.742,-8.7531,-8.7971,-8.8369,-8.8116,-8.8007,-8.808,-8.7971,-8.772,-8.7503,-8.743,-8.7141,-8.678,-8.7079,-8.7741,-8.7888,-8.7996,-8.8432,-8.894,-8.9269,-8.1235,-8.134,-8.1375,-8.127,-8.1092,-8.1092,-8.1092,-8.1092,-8.1092,-8.1092,-8.1092,-8.1092,-8.1092,-8.1092,-8.1056,-8.1021,-8.0767,-8.0173,-7.9676,-7.9039,-7.8371,-7.8276,-7.8123,-7.7844,-7.8361,-7.881,-7.8879,-7.8327,-7.7844,-7.8131,-7.8234,-7.7637,-7.7499,-7.7568,-7.7634,-7.7796,-7.825,-7.8554,-7.8804,-7.8883,-7.882,-7.8644,-7.8609,-7.8574,-7.8574,-7.8574,-7.8574,-7.8574,-7.8539,-7.8469,-7.8328,-7.8012,-7.7767,-7.7556,-7.7275,-7.7029,-7.6959,-7.7205,-7.7415,-7.7591,-7.7907,-7.8258,-7.8532,-7.8384,-7.792,-7.754,-7.709,-7.677,-7.6666,-7.6999,-7.7727,-7.8502,-7.9441,-8.0465,-8.1253,-8.2069,-8.2609,-8.3195,-8.3627,-8.4066,-8.5222,-8.6593,-8.7057,-8.7693,-8.7558,-8.6978,-8.6502,-8.5984,-8.5761,-8.6045,-8.6185,-8.6737,-8.7177,-8.7739,-8.8297,-8.8444,-8.8517,-8.8879,-8.9169,-8.877,-8.8589,-8.8951,-8.8951,-8.8442,-8.8336,-8.8227,-8.8085,-8.7836,-8.8318,-8.8689,-8.8545,-8.8654,-8.9678,-9.0225,-9.0812,-8.1128,-8.12,-8.1305,-8.127,-8.1092,-8.1092,-8.1092,-8.1092,-8.1092,-8.1092,-8.1092,-8.1092,-8.1092,-8.1056,-8.1092,-8.0876,-8.0361,-7.9715,-7.8998,-7.8371,-7.7989,-7.8079,-7.8407,-7.8741,-7.8844,-7.9224,-7.9672,-7.9672,-7.881,-7.9293,-7.9569,-7.8948,-7.8948,-7.8948,-7.897,-7.9034,-7.8963,-7.9313,-7.9538,-7.9655,-7.9838,-7.9487,-7.8679,-7.8574,-7.8574,-7.8574,-7.8574,-7.8574,-7.8574,-7.8574,-7.8574,-7.8469,-7.8328,-7.8223,-7.8012,-7.7872,-7.7802,-7.7907,-7.8118,-7.8293,-7.8644,-7.8588,-7.8629,-7.8485,-7.8138,-7.8053,-7.7635,-7.7271,-7.7305,-7.7806,-7.8489,-7.9141,-8.0051,-8.1234,-8.2164,-8.2972,-8.3595,-8.4166,-8.4668,-8.519,-8.599,-8.6524,-8.6608,-8.711,-8.7433,-8.7,-8.686,-8.6377,-8.6181,-8.6585,-8.7061,-8.7685,-8.8382,-8.8794,-8.9129,-8.935,-8.9495,-8.9821,-9.0002,-8.9676,-8.9676,-9.011,-8.9966,-8.935,-8.906,-8.8951,-8.8848,-8.8853,-8.8864,-8.9127,-8.902,-8.9313,-9.0557,-9.1583,-9.217]},{"header":{"parameterUnit":"m.s-1","parameterCategory":1,"la1":31.0,"la2":29.5877,"lo1":-88.7671,"lo2":-86.6584,"dx":0.0162,"dy":0.0185,"nx":115,"ny":88,"refTime":"2023-01-18T18:00:00:Z","depth":0,"parameterNumber":3,"parameterNumberName":"V-component_of_WINDS"},"data":[0.0,0.0,0.0,0.0,0.0,0.0,0.0,0.0,0.0,0.0,0.0,0.0,0.0,0.0,0.0,0.0,0.0,0.0,0.0,0.0,0.0,0.0,0.0,0.0,0.0,0.0,0.0,0.0,0.0,0.0,0.0,0.0,0.0,0.0,0.0,0.0,0.0,0.0,0.0,0.0,0.0,0.0,0.0,0.0,0.0,0.0,0.0,0.0,0.0,0.0,0.0,0.0,0.0,0.0,0.0,0.0,0.0,0.0,0.0,0.0,0.0,0.0,0.0,0.0,0.0,0.0,0.0,0.0,0.0,0.0,0.0,0.0,0.0,0.0,0.0,0.0,0.0,0.0,0.0,0.0,0.0,0.0,0.0,0.0,0.0,0.0,0.0,0.0,0.0,0.0,0.0,0.0,0.0,0.0,0.0,0.0,0.0,0.0,0.0,0.0,0.0,0.0,0.0,0.0,0.0,0.0,0.0,0.0,0.0,0.0,0.0,0.0,0.0,0.0,0.0,0.0,0.0,0.0,0.0,0.0,0.0,0.0,0.0,0.0,0.0,0.0,0.0,0.0,0.0,0.0,0.0,0.0,0.0,0.0,0.0,0.0,0.0,0.0,0.0,0.0,0.0,0.0,0.0,0.0,0.0,0.0,0.0,0.0,0.0,0.0,0.0,0.0,0.0,0.0,0.0,0.0,0.0,0.0,0.0,0.0,0.0,0.0,0.0,0.0,0.0,0.0,0.0,0.0,0.0,0.0,0.0,0.0,0.0,0.0,0.0,0.0,0.0,0.0,0.0,0.0,0.0,0.0,0.0,0.0,0.0,0.0,0.0,0.0,0.0,0.0,0.0,0.0,0.0,0.0,0.0,0.0,0.0,0.0,0.0,0.0,0.0,0.0,0.0,0.0,0.0,0.0,0.0,0.0,0.0,0.0,0.0,0.0,0.0,0.0,0.0,0.0,0.0,0.0,0.0,0.0,0.0,0.0,0.0,0.0,0.0,0.0,0.0,0.0,0.0,0.0,0.0,0.0,0.0,0.0,0.0,0.0,0.0,0.0,0.0,0.0,0.0,0.0,0.0,0.0,0.0,0.0,0.0,0.0,0.0,0.0,0.0,0.0,0.0,0.0,0.0,0.0,0.0,0.0,0.0,0.0,0.0,0.0,0.0,0.0,0.0,0.0,0.0,0.0,0.0,0.0,0.0,0.0,0.0,0.0,0.0,0.0,0.0,0.0,0.0,0.0,0.0,0.0,0.0,0.0,0.0,0.0,0.0,0.0,0.0,0.0,0.0,0.0,0.0,0.0,0.0,0.0,0.0,0.0,0.0,0.0,0.0,0.0,0.0,0.0,0.0,0.0,0.0,0.0,0.0,0.0,0.0,0.0,0.0,0.0,0.0,0.0,0.0,0.0,0.0,0.0,0.0,0.0,0.0,0.0,0.0,0.0,0.0,0.0,0.0,0.0,0.0,0.0,0.0,0.0,0.0,0.0,0.0,0.0,0.0,0.0,0.0,0.0,0.0,0.0,0.0,0.0,0.0,0.0,0.0,0.0,0.0,0.0,0.0,0.0,0.0,0.0,0.0,0.0,0.0,0.0,0.0,0.0,0.0,0.0,0.0,0.0,0.0,0.0,0.0,0.0,0.0,0.0,0.0,0.0,0.0,0.0,0.0,0.0,0.0,0.0,0.0,0.0,0.0,0.0,0.0,0.0,0.0,0.0,0.0,0.0,0.0,0.0,0.0,0.0,0.0,0.0,0.0,0.0,0.0,0.0,0.0,0.0,0.0,0.0,0.0,0.0,0.0,0.0,0.0,0.0,0.0,0.0,0.0,0.0,0.0,0.0,0.0,0.0,0.0,0.0,0.0,0.0,0.0,0.0,0.0,0.0,0.0,0.0,0.0,0.0,0.0,0.0,0.0,0.0,0.0,0.0,0.0,0.0,0.0,0.0,0.0,0.0,0.0,0.0,0.0,0.0,0.0,0.0,0.0,0.0,0.0,0.0,0.0,0.0,0.0,0.0,0.0,0.0,0.0,0.0,0.0,0.0,0.0,0.0,0.0,0.0,0.0,0.0,0.0,0.0,0.0,0.0,0.0,0.0,0.0,0.0,0.0,0.0,0.0,0.0,0.0,0.0,0.0,0.0,0.0,0.0,0.0,0.0,0.0,0.0,0.0,0.0,0.0,0.0,0.0,0.0,0.0,0.0,0.0,0.0,0.0,0.0,0.0,0.0,0.0,0.0,0.0,0.0,0.0,0.0,0.0,0.0,0.0,0.0,0.0,0.0,0.0,0.0,0.0,0.0,0.0,0.0,0.0,0.0,0.0,0.0,0.0,0.0,0.0,0.0,0.0,0.0,0.0,0.0,0.0,0.0,0.0,0.0,0.0,0.0,0.0,0.0,0.0,0.0,0.0,0.0,0.0,0.0,0.0,0.0,0.0,0.0,0.0,0.0,0.0,0.0,0.0,0.0,0.0,0.0,0.0,0.0,0.0,0.0,0.0,0.0,0.0,0.0,0.0,0.0,0.0,0.0,0.0,0.0,0.0,0.0,0.0,0.0,0.0,0.0,0.0,0.0,0.0,0.0,0.0,0.0,0.0,0.0,0.0,0.0,0.0,0.0,0.0,0.0,0.0,0.0,0.0,0.0,0.0,0.0,0.0,0.0,0.0,0.0,0.0,0.0,0.0,0.0,0.0,0.0,0.0,0.0,0.0,0.0,0.0,0.0,0.0,0.0,0.0,0.0,0.0,0.0,0.0,0.0,0.0,0.0,0.0,0.0,0.0,0.0,0.0,0.0,0.0,0.0,0.0,0.0,0.0,0.0,0.0,0.0,0.0,0.0,0.0,0.0,0.0,0.0,0.0,0.0,0.0,0.0,0.0,0.0,0.0,0.0,0.0,0.0,0.0,0.0,0.0,0.0,0.0,0.0,0.0,0.0,0.0,0.0,0.0,0.0,0.0,0.0,0.0,0.0,0.0,0.0,0.0,0.0,0.0,0.0,0.0,0.0,0.0,0.0,0.0,0.0,0.0,0.0,0.0,0.0,0.0,0.0,0.0,0.0,0.0,0.0,0.0,0.0,0.0,0.0,0.0,0.0,0.0,0.0,0.0,0.0,0.0,0.0,0.0,0.0,0.0,0.0,0.0,0.0,0.0,0.0,0.0,0.0,0.0,0.0,0.0,0.0,0.0,0.0,0.0,0.0,0.0,0.0,0.0,0.0,0.0,0.0,0.0,0.0,0.0,0.0,0.0,0.0,0.0,0.0,0.0,0.0,0.0,0.0,0.0,0.0,0.0,0.0,0.0,0.0,0.0,0.0,0.0,0.0,0.0,0.0,0.0,0.0,0.0,0.0,0.0,0.0,0.0,0.0,0.0,0.0,0.0,0.0,0.0,0.0,0.0,0.0,0.0,0.0,0.0,0.0,0.0,0.0,0.0,0.0,0.0,0.0,0.0,0.0,0.0,0.0,0.0,0.0,0.0,0.0,0.0,0.0,0.0,0.0,0.0,0.0,0.0,0.0,0.0,0.0,0.0,0.0,0.0,0.0,0.0,0.0,0.0,0.0,0.0,0.0,0.0,0.0,0.0,0.0,0.0,0.0,0.0,0.0,0.0,0.0,0.0,0.0,0.0,0.0,0.0,0.0,0.0,0.0,0.0,0.0,0.0,0.0,0.0,0.0,0.0,0.0,0.0,0.0,0.0,0.0,0.0,0.0,0.0,0.0,0.0,0.0,0.0,0.0,0.0,0.0,0.0,0.0,0.0,0.0,0.0,0.0,0.0,0.0,0.0,0.0,0.0,0.0,0.0,0.0,0.0,0.0,0.0,0.0,0.0,0.0,0.0,0.0,0.0,0.0,0.0,0.0,0.0,0.0,0.0,0.0,0.0,0.0,0.0,0.0,0.0,0.0,0.0,0.0,0.0,0.0,0.0,0.0,0.0,0.0,0.0,0.0,0.0,0.0,0.0,0.0,0.0,0.0,0.0,0.0,0.0,0.0,0.0,0.0,0.0,0.0,0.0,0.0,0.0,0.0,0.0,0.0,0.0,0.0,0.0,0.0,0.0,0.0,0.0,0.0,0.0,0.0,0.0,0.0,0.0,0.0,0.0,0.0,0.0,0.0,0.0,0.0,0.0,0.0,0.0,0.0,0.0,0.0,0.0,0.0,0.0,0.0,0.0,0.0,0.0,0.0,0.0,0.0,0.0,0.0,0.0,0.0,0.0,0.0,0.0,0.0,0.0,0.0,0.0,0.0,0.0,0.0,0.0,0.0,-0.3974,0.0,0.0,0.0,0.0,0.0,0.0,0.0,0.0,0.0,0.0,0.0,0.0,0.0,0.0,0.0,0.0,0.0,0.0,0.0,0.0,0.0,0.0,0.0,0.0,0.0,0.0,0.0,0.0,0.0,0.0,0.0,0.0,0.0,0.0,0.0,0.0,0.0,0.0,0.0,0.0,0.0,0.0,0.0,0.0,0.0,0.0,0.0,0.0,0.0,0.0,0.0,0.0,0.0,0.0,0.0,0.0,0.0,0.0,0.0,0.0,0.0,0.0,0.0,0.0,0.0,0.0,0.0,0.0,0.0,0.0,0.0,0.0,0.0,0.0,0.0,0.0,0.0,0.0,0.0,0.0,0.0,0.0,0.0,0.0,0.0,0.0,0.0,0.0,0.0,0.0,0.0,0.0,0.0,0.0,0.0,0.0,0.0,0.0,0.0,0.0,0.0,0.0,0.0,0.0,0.0,0.0,0.0,0.0,0.0,0.0,-0.2921,-0.269,-0.2789,-0.3166,-0.3977,0.0,0.0,0.0,0.0,0.0,0.0,0.0,0.0,0.0,0.0,0.0,0.0,0.0,0.0,0.0,0.0,0.0,0.0,0.0,0.0,0.0,0.0,0.0,0.0,0.0,0.0,0.0,0.0,0.0,0.0,0.0,0.0,0.0,0.0,0.0,0.0,0.0,0.0,0.0,0.0,0.0,0.0,0.0,0.0,0.0,0.0,0.0,0.0,0.0,0.0,0.0,0.0,0.0,0.0,0.0,0.0,0.0,0.0,0.0,0.0,0.0,0.0,0.0,0.0,0.0,0.0,0.0,0.0,0.0,0.0,0.0,0.0,0.0,0.0,0.0,0.0,0.0,0.0,0.0,0.0,0.0,0.0,0.0,0.0,0.0,0.0,0.0,0.0,0.0,0.0,0.0,0.0,0.0,0.0,0.0,0.0,0.0,0.0,0.0,0.0,0.0,0.0,0.0,0.0,0.0,0.0,0.0,0.0,0.0,0.0,0.0,0.0,-0.2625,-0.3057,-0.3863,0.0,0.0,0.0,0.0,0.0,0.0,0.0,0.0,0.0,0.0,0.0,0.0,0.0,0.0,0.0,0.0,0.0,0.0,0.0,0.0,0.0,0.0,0.0,0.0,0.0,0.0,0.0,0.0,0.0,0.0,0.0,0.0,0.0,0.0,0.0,0.0,0.0,0.0,0.0,0.0,0.0,0.0,0.0,0.0,0.0,0.0,0.0,0.0,0.0,0.0,0.0,0.0,0.0,0.0,0.0,0.0,0.0,0.0,0.0,0.0,0.0,0.0,0.0,0.0,0.0,0.0,0.0,0.0,0.0,0.0,0.0,0.0,0.0,0.0,0.0,0.0,0.0,0.0,0.0,0.0,0.0,0.0,0.0,0.0,0.0,0.0,0.0,0.0,0.0,0.0,0.0,0.0,0.0,0.0,0.0,0.0,0.0,0.0,0.0,0.0,0.0,0.0,0.0,0.0,0.0,0.0,0.0,0.0,0.0,0.0,-0.252,-0.2244,-0.2517,0.0,-0.3589,0.0,0.0,0.0,0.0,0.0,0.0,0.0,0.0,0.0,0.0,0.0,0.0,0.0,0.0,0.0,0.0,0.0,0.0,0.0,0.0,0.0,0.0,0.0,0.0,0.0,0.0,0.0,0.0,0.0,0.0,0.0,0.0,0.0,0.0,0.0,0.0,0.0,0.0,0.0,0.0,0.0,0.0,0.0,0.0,0.0,0.0,0.0,0.0,0.0,0.0,0.0,0.0,0.0,0.0,0.0,0.0,0.0,0.0,0.0,0.0,0.0,0.0,0.0,0.0,0.0,0.0,0.0,0.0,0.0,0.0,0.0,0.0,0.0,0.0,0.0,0.0,0.0,0.0,0.0,0.0,0.0,0.0,0.0,0.0,0.0,0.0,0.0,0.0,0.0,0.0,0.0,0.0,0.0,0.0,0.0,0.0,0.0,0.0,0.0,0.0,0.0,0.0,0.0,0.0,0.0,0.0,0.0,0.0,0.0,0.0,-0.2356,-0.2188,-0.3029,-0.3533,0.0,0.0,0.0,0.0,0.0,0.0,0.0,0.0,0.0,0.0,0.0,0.0,0.0,0.0,0.0,0.0,0.0,0.0,0.0,0.0,0.0,0.0,0.0,0.0,0.0,0.0,0.0,0.0,0.0,0.0,0.0,0.0,0.0,0.0,0.0,0.0,0.0,0.0,0.0,0.0,0.0,0.0,0.0,0.0,0.0,0.0,0.0,0.0,0.0,0.0,0.0,0.0,0.0,0.0,0.0,0.0,0.0,0.0,0.0,0.0,0.0,0.0,0.0,0.0,0.0,0.0,0.0,0.0,0.0,0.0,0.0,0.0,0.0,0.0,0.0,0.0,0.0,0.0,0.0,0.0,0.0,0.0,0.0,0.0,0.0,0.0,0.0,0.0,0.0,0.0,0.0,0.0,0.0,0.0,0.0,0.0,0.0,0.0,0.0,0.0,0.0,0.0,0.0,0.0,0.0,0.0,0.0,0.0,0.0,0.0,-0.2183,-0.2188,-0.2356,-0.3365,-0.3813,-0.3589,0.0,0.0,0.0,0.0,0.0,0.0,0.0,0.0,0.0,0.0,0.0,0.0,0.0,0.0,0.0,0.0,0.0,0.0,0.0,0.0,0.0,0.0,0.0,0.0,0.0,0.0,0.0,0.0,0.0,0.0,0.0,0.0,0.0,0.0,0.0,0.0,0.0,0.0,0.0,0.0,0.0,0.0,0.0,0.0,0.0,0.0,0.0,0.0,0.0,0.0,0.0,0.0,0.0,0.0,0.0,0.0,0.0,0.0,0.0,0.0,0.0,0.0,0.0,0.0,0.0,0.0,0.0,0.0,0.0,0.0,0.0,0.0,0.0,0.0,0.0,0.0,0.0,0.0,0.0,0.0,0.0,0.0,0.0,0.0,0.0,0.0,0.0,0.0,0.0,0.0,0.0,0.0,0.0,0.0,0.0,0.0,0.0,0.0,0.0,0.0,0.0,0.0,0.0,0.0,0.0,0.0,0.0,0.0,-0.2578,-0.2114,-0.2076,-0.2692,-0.3309,-0.3589,0.0,0.0,0.0,0.0,0.0,0.0,0.0,0.0,0.0,0.0,0.0,0.0,0.0,0.0,0.0,0.0,0.0,0.0,0.0,0.0,0.0,0.0,0.0,0.0,0.0,0.0,0.0,0.0,0.0,0.0,0.0,0.0,0.0,0.0,0.0,0.0,0.0,0.0,0.0,0.0,0.0,0.0,0.0,0.0,0.0,0.0,0.0,0.0,0.0,0.0,0.0,0.0,0.0,0.0,0.0,0.0,0.0,0.0,0.0,0.0,0.0,0.0,0.0,0.0,0.0,0.0,0.0,0.0,0.0,0.0,0.0,0.0,0.0,0.0,0.0,0.0,0.0,0.0,0.0,0.0,0.0,0.0,0.0,0.0,0.0,0.0,0.0,0.0,0.0,0.0,0.0,0.0,0.0,0.0,0.0,0.0,0.0,0.0,0.0,0.0,0.0,0.0,0.0,0.0,0.0,0.0,0.0,0.0,0.0,-0.2392,-0.2181,-0.2468,-0.3253,-0.3474,-0.3701,0.0,0.0,0.0,0.0,0.0,0.0,0.0,0.0,0.0,0.0,0.0,0.0,0.0,0.0,0.0,0.0,0.0,0.0,0.0,0.0,0.0,0.0,0.0,0.0,0.0,0.0,0.0,0.0,0.0,0.0,0.0,0.0,0.0,0.0,0.0,0.0,0.0,0.0,0.0,0.0,0.0,0.0,0.0,0.0,0.0,0.0,0.0,0.0,0.0,0.0,0.0,0.0,0.0,0.0,0.0,0.0,0.0,0.0,0.0,0.0,0.0,0.0,0.0,0.0,0.0,0.0,0.0,0.0,0.0,0.0,0.0,0.0,0.0,0.0,0.0,0.0,0.0,0.0,0.0,0.0,0.0,0.0,0.0,0.0,0.0,0.0,0.0,0.0,0.0,0.0,0.0,0.0,0.0,0.0,0.0,0.0,0.0,0.0,0.0,0.0,0.0,0.0,0.0,0.0,0.0,0.0,0.0,0.0,0.0,-0.2225,0.0,-0.2545,-0.3226,-0.341,-0.3645,0.0,0.0,0.0,0.0,0.0,0.0,0.0,0.0,0.0,0.0,0.0,0.0,0.0,0.0,0.0,0.0,0.0,0.0,0.0,0.0,0.0,0.0,0.0,0.0,0.0,0.0,0.0,0.0,0.0,0.0,0.0,0.0,0.0,0.0,0.0,0.0,0.0,0.0,0.0,0.0,0.0,0.0,0.0,0.0,0.0,0.0,0.0,0.0,0.0,0.0,0.0,0.0,0.0,0.0,0.0,0.0,0.0,0.0,0.0,0.0,0.0,0.0,0.0,0.0,0.0,0.0,0.0,0.0,0.0,0.0,0.0,0.0,0.0,0.0,0.0,0.0,0.0,0.0,0.0,0.0,0.0,0.0,0.0,0.0,0.0,0.0,0.0,0.0,0.0,0.0,0.0,0.0,0.0,0.0,0.0,0.0,0.0,0.0,0.0,0.0,0.0,0.0,0.0,0.0,0.0,0.0,0.0,0.0,-0.3448,-0.2299,-0.2261,-0.2428,-0.2627,-0.3003,-0.3418,0.0,0.0,0.0,0.0,0.0,0.0,0.0,0.0,0.0,0.0,0.0,0.0,0.0,0.0,0.0,0.0,0.0,0.0,0.0,0.0,0.0,0.0,0.0,0.0,0.0,0.0,0.0,0.0,0.0,0.0,0.0,0.0,0.0,0.0,0.0,0.0,0.0,0.0,0.0,0.0,0.0,0.0,0.0,0.0,0.0,0.0,0.0,0.0,0.0,0.0,0.0,0.0,0.0,0.0,0.0,0.0,0.0,0.0,0.0,0.0,0.0,0.0,0.0,0.0,0.0,0.0,0.0,0.0,0.0,0.0,0.0,0.0,0.0,0.0,0.0,0.0,0.0,0.0,0.0,0.0,0.0,0.0,0.0,0.0,0.0,0.0,0.0,0.0,0.0,0.0,0.0,0.0,0.0,0.0,0.0,0.0,0.0,0.0,0.0,0.0,0.0,0.0,0.0,0.0,0.0,0.0,0.0,0.0,0.0,-0.3442,-0.3647,-0.3702,-0.3556,-0.391,-0.4033,0.0,0.0,0.0,0.0,0.0,0.0,0.0,0.0,0.0,0.0,0.0,0.0,0.0,0.0,0.0,0.0,0.0,0.0,0.0,0.0,0.0,0.0,0.0,0.0,0.0,0.0,0.0,0.0,0.0,0.0,0.0,0.0,0.0,0.0,0.0,0.0,0.0,0.0,0.0,0.0,0.0,0.0,0.0,0.0,0.0,0.0,0.0,0.0,0.0,0.0,0.0,0.0,0.0,0.0,0.0,0.0,0.0,0.0,0.0,0.0,0.0,0.0,0.0,0.0,0.0,0.0,0.0,0.0,0.0,0.0,0.0,0.0,0.0,0.0,0.0,0.0,0.0,0.0,0.0,0.0,0.0,0.0,0.0,0.0,0.0,0.0,0.0,0.0,0.0,0.0,0.0,0.0,0.0,0.0,0.0,0.0,0.0,0.0,0.0,0.0,0.0,0.0,0.0,0.0,0.0,0.0,0.0,0.0,0.0,-0.5548,-0.5207,-0.4947,-0.4886,-0.4976,-0.4782,-0.4418,0.0,0.0,0.0,0.0,0.0,0.0,0.0,0.0,0.0,0.0,0.0,0.0,0.0,0.0,0.0,0.0,0.0,0.0,0.0,0.0,0.0,0.0,0.0,0.0,0.0,0.0,0.0,0.0,0.0,0.0,0.0,0.0,0.0,0.0,0.0,0.0,0.0,0.0,0.0,0.0,0.0,0.0,0.0,0.0,0.0,0.0,0.0,0.0,0.0,0.0,0.0,0.0,0.0,0.0,0.0,0.0,0.0,0.0,0.0,0.0,0.0,0.0,0.0,0.0,0.0,0.0,0.0,0.0,0.0,0.0,0.0,0.0,0.0,0.0,0.0,0.0,0.0,0.0,0.0,0.0,0.0,0.0,0.0,0.0,0.0,0.0,0.0,0.0,0.0,0.0,0.0,0.0,0.0,0.0,0.0,0.0,0.0,0.0,0.0,0.0,0.0,0.0,0.0,0.0,0.0,0.0,0.0,0.0,-0.8318,-0.6917,-0.635,-0.6552,-0.6132,-0.5678,0.0,0.0,0.0,0.0,0.0,0.0,0.0,0.0,0.0,0.0,0.0,0.0,0.0,0.0,0.0,0.0,0.0,0.0,0.0,0.0,0.0,0.0,0.0,0.0,0.0,0.0,0.0,0.0,0.0,0.0,0.0,0.0,0.0,0.0,0.0,0.0,0.0,0.0,0.0,0.0,0.0,0.0,0.0,0.0,0.0,0.0,0.0,0.0,0.0,0.0,0.0,0.0,0.0,0.0,0.0,0.0,0.0,0.0,0.0,0.0,0.0,0.0,0.0,0.0,0.0,0.0,0.0,0.0,0.0,0.0,0.0,0.0,0.0,0.0,0.0,0.0,0.0,0.0,0.0,0.0,0.0,0.0,0.0,0.0,0.0,0.0,0.0,0.0,0.0,0.0,0.0,0.0,0.0,0.0,0.0,0.0,0.0,0.0,0.0,0.0,0.0,0.0,0.0,0.0,0.0,0.0,0.0,0.0,0.0,-0.9817,-1.055,-1.029,-0.8828,-0.7528,-0.6638,0.0,0.0,0.0,0.0,0.0,0.0,0.0,0.0,0.0,0.0,0.0,0.0,0.0,0.0,0.0,0.0,0.0,0.0,0.0,0.0,0.0,0.0,0.0,0.0,0.0,0.0,0.0,0.0,0.0,0.0,0.0,0.0,0.0,0.0,0.0,0.0,0.0,0.0,0.0,0.0,0.0,0.0,0.0,0.0,0.0,0.0,0.0,0.0,0.0,0.0,0.0,0.0,0.0,0.0,0.0,0.0,0.0,0.0,0.0,0.0,0.0,0.0,0.0,0.0,0.0,0.0,0.0,0.0,0.0,0.0,0.0,0.0,0.0,0.0,0.0,0.0,0.0,0.0,0.0,0.0,0.0,0.0,0.0,0.0,0.0,0.0,0.0,0.0,0.0,0.0,0.0,0.0,0.0,0.0,0.0,0.0,0.0,0.0,0.0,0.0,0.0,0.0,0.0,0.0,0.0,0.0,0.0,0.0,-1.1149,-1.1932,-1.3489,-1.3835,-1.2892,-1.0086,-0.8141,0.0,0.0,0.0,0.0,0.0,0.0,0.0,0.0,0.0,0.0,0.0,0.0,0.0,0.0,0.0,0.0,0.0,0.0,0.0,0.0,0.0,0.0,0.0,0.0,0.0,0.0,0.0,0.0,0.0,0.0,0.0,0.0,0.0,0.0,0.0,0.0,0.0,0.0,0.0,0.0,0.0,0.0,0.0,0.0,0.0,0.0,0.0,0.0,0.0,0.0,0.0,0.0,0.0,0.0,0.0,0.0,0.0,0.0,0.0,0.0,0.0,0.0,0.0,0.0,0.0,0.0,0.0,0.0,0.0,0.0,0.0,0.0,0.0,0.0,0.0,0.0,0.0,0.0,0.0,0.0,0.0,0.0,0.0,0.0,0.0,0.0,0.0,0.0,0.0,0.0,0.0,0.0,0.0,0.0,0.0,0.0,0.0,0.0,0.0,0.0,0.0,0.0,0.0,0.0,0.0,0.0,0.0,0.0,-1.3579,-1.442,-1.5905,-1.6924,-1.7231,-1.287,-0.9683,0.0,0.0,0.0,0.0,0.0,0.0,0.0,0.0,0.0,0.0,0.0,0.0,0.0,0.0,0.0,0.0,0.0,0.0,0.0,0.0,0.0,0.0,0.0,0.0,0.0,0.0,0.0,0.0,0.0,0.0,0.0,0.0,0.0,0.0,0.0,0.0,0.0,0.0,0.0,0.0,0.0,0.0,0.0,0.0,0.0,0.0,0.0,0.0,0.0,0.0,0.0,0.0,0.0,0.0,0.0,0.0,0.0,0.0,0.0,0.0,0.0,0.0,0.0,0.0,0.0,0.0,0.0,0.0,0.0,0.0,0.0,0.0,0.0,0.0,0.0,0.0,0.0,0.0,0.0,0.0,0.0,0.0,0.0,0.0,0.0,0.0,0.0,0.0,0.0,0.0,0.0,0.0,0.0,0.0,0.0,0.0,0.0,0.0,0.0,0.0,0.0,0.0,0.0,0.0,0.0,0.0,0.0,0.0,-1.4509,-1.6636,-1.8082,-1.8465,-1.7645,-1.2776,-0.9829,0.0,0.0,0.0,0.0,0.0,0.0,0.0,0.0,0.0,0.0,0.0,0.0,0.0,0.0,0.0,0.0,0.0,0.0,0.0,0.0,0.0,0.0,0.0,0.0,0.0,0.0,0.0,0.0,0.0,0.0,0.0,0.0,0.0,0.0,0.0,0.0,0.0,0.0,0.0,0.0,0.0,0.0,0.0,0.0,0.0,0.0,0.0,0.0,-0.7401,0.0,0.0,0.0,0.0,0.0,0.0,0.0,0.0,0.0,0.0,0.0,0.0,0.0,0.0,0.0,0.0,0.0,0.0,0.0,0.0,0.0,0.0,0.0,0.0,0.0,0.0,0.0,0.0,0.0,0.0,0.0,0.0,0.0,0.0,0.0,0.0,0.0,0.0,0.0,0.0,0.0,0.0,0.0,0.0,0.0,0.0,0.0,0.0,0.0,0.0,0.0,0.0,0.0,0.0,0.0,0.0,0.0,0.0,0.0,-1.5895,-1.8929,-1.9965,-1.9924,-1.8661,-1.4536,-1.1589,0.0,0.0,0.0,0.0,0.0,0.0,0.0,0.0,0.0,0.0,0.0,0.0,0.0,0.0,0.0,0.0,0.0,0.0,0.0,0.0,0.0,0.0,0.0,0.0,0.0,0.0,0.0,0.0,0.0,0.0,0.0,0.0,0.0,0.0,0.0,0.0,0.0,0.0,0.0,0.0,0.0,0.0,0.0,0.0,0.0,0.0,0.0,0.0,0.0,0.0,0.0,0.0,0.0,0.0,0.0,0.0,0.0,0.0,0.0,0.0,0.0,0.0,0.0,0.0,0.0,0.0,0.0,0.0,0.0,0.0,0.0,0.0,0.0,0.0,0.0,0.0,0.0,0.0,0.0,0.0,0.0,0.0,0.0,0.0,0.0,0.0,0.0,0.0,0.0,0.0,0.0,0.0,0.0,0.0,0.0,0.0,0.0,0.0,0.0,0.0,0.0,0.0,0.0,0.0,0.0,0.0,0.0,-1.4363,-1.7467,-2.12,-2.1702,-2.1275,-1.9932,-1.6764,-1.3739,-1.0969,0.0,0.0,0.0,0.0,0.0,0.0,0.0,0.0,0.0,0.0,0.0,0.0,0.0,0.0,0.0,0.0,0.0,0.0,0.0,0.0,0.0,0.0,0.0,0.0,0.0,0.0,0.0,0.0,0.0,0.0,0.0,0.0,0.0,0.0,0.0,0.0,0.0,0.0,-0.3734,-0.3841,0.0,0.0,0.0,0.0,0.0,0.0,0.0,0.0,-0.7165,0.0,0.0,0.0,0.0,0.0,0.0,0.0,0.0,0.0,0.0,0.0,0.0,0.0,0.0,0.0,0.0,0.0,0.0,0.0,0.0,0.0,0.0,0.0,0.0,0.0,0.0,0.0,0.0,0.0,0.0,0.0,0.0,0.0,0.0,0.0,0.0,0.0,0.0,0.0,0.0,0.0,0.0,0.0,0.0,0.0,0.0,0.0,0.0,0.0,0.0,0.0,0.0,0.0,0.0,0.0,0.0,-1.4085,-1.5434,-1.8556,-2.3487,-2.3221,-2.2054,-1.9903,-1.7494,-1.4581,-1.111,0.0,0.0,0.0,0.0,0.0,0.0,0.0,0.0,0.0,0.0,0.0,0.0,0.0,0.0,0.0,0.0,0.0,0.0,0.0,0.0,0.0,0.0,0.0,0.0,0.0,0.0,0.0,0.0,0.0,0.0,0.0,0.0,0.0,0.0,0.0,0.0,0.0,0.0,0.0,-0.565,-0.5249,0.0,0.0,0.0,0.0,0.0,0.0,0.0,0.0,-0.9482,0.0,0.0,0.0,0.0,0.0,0.0,0.0,0.0,0.0,0.0,0.0,0.0,0.0,0.0,0.0,0.0,0.0,0.0,0.0,0.0,0.0,0.0,0.0,0.0,0.0,0.0,0.0,0.0,0.0,0.0,0.0,0.0,0.0,0.0,0.0,0.0,0.0,0.0,0.0,0.0,0.0,0.0,0.0,0.0,0.0,0.0,0.0,0.0,0.0,0.0,0.0,0.0,0.0,0.0,0.0,-1.4883,-1.6814,-1.9719,-2.3724,-2.3515,-2.1978,-1.9267,-1.7199,-1.4326,0.0,0.0,0.0,0.0,0.0,0.0,0.0,0.0,0.0,0.0,0.0,0.0,0.0,0.0,0.0,0.0,0.0,0.0,0.0,0.0,0.0,0.0,0.0,0.0,0.0,0.0,0.0,0.0,0.0,0.0,0.0,0.0,0.0,0.0,0.0,0.0,0.0,0.0,0.0,0.0,-0.7356,-0.7609,-1.0086,0.0,0.0,0.0,0.0,0.0,0.0,-0.9985,-0.9443,0.0,0.0,0.0,0.0,0.0,0.0,0.0,0.0,0.0,0.0,0.0,0.0,0.0,0.0,0.0,0.0,0.0,0.0,0.0,0.0,0.0,0.0,0.0,0.0,0.0,0.0,0.0,0.0,0.0,0.0,0.0,0.0,0.0,0.0,0.0,0.0,0.0,0.0,0.0,0.0,0.0,0.0,0.0,0.0,0.0,0.0,0.0,0.0,0.0,0.0,0.0,0.0,0.0,0.0,0.0,-1.5357,-1.7983,-2.0739,-2.34,-2.3363,-2.1712,-1.8661,-1.6599,-1.3701,0.0,0.0,0.0,0.0,0.0,0.0,0.0,0.0,0.0,0.0,0.0,0.0,0.0,0.0,0.0,0.0,0.0,0.0,0.0,0.0,0.0,0.0,0.0,0.0,0.0,0.0,0.0,0.0,0.0,0.0,0.0,0.0,0.0,0.0,0.0,0.0,0.0,0.0,0.0,0.0,0.0,-1.0044,-1.2099,-1.082,0.0,0.0,0.0,0.0,-0.9665,-1.0071,0.0,0.0,0.0,0.0,0.0,0.0,0.0,0.0,0.0,0.0,0.0,0.0,0.0,0.0,0.0,0.0,0.0,0.0,0.0,0.0,0.0,0.0,0.0,0.0,0.0,0.0,0.0,0.0,0.0,0.0,0.0,0.0,0.0,0.0,0.0,0.0,0.0,0.0,0.0,0.0,0.0,0.0,0.0,0.0,0.0,0.0,0.0,0.0,0.0,0.0,0.0,0.0,0.0,0.0,0.0,0.0,-1.5754,-1.8688,-2.1261,-2.3469,-2.3201,-2.1466,-1.8542,-1.6095,-1.3179,0.0,0.0,0.0,0.0,0.0,0.0,0.0,0.0,0.0,0.0,0.0,0.0,0.0,0.0,0.0,0.0,0.0,0.0,0.0,0.0,0.0,0.0,0.0,0.0,0.0,0.0,0.0,0.0,0.0,0.0,0.0,0.0,0.0,0.0,0.0,0.0,0.0,0.0,0.0,0.0,0.0,-1.0976,-1.2921,-1.1657,-1.0507,0.0,0.0,-1.2895,-1.2368,-1.4628,0.0,0.0,0.0,0.0,0.0,0.0,0.0,0.0,0.0,0.0,0.0,0.0,0.0,0.0,0.0,0.0,0.0,0.0,0.0,0.0,0.0,0.0,0.0,0.0,0.0,0.0,0.0,0.0,0.0,0.0,0.0,0.0,0.0,0.0,0.0,0.0,0.0,0.0,0.0,0.0,0.0,0.0,0.0,0.0,0.0,0.0,0.0,0.0,0.0,0.0,0.0,0.0,0.0,0.0,0.0,-1.4328,-1.5727,-1.9662,-2.2166,-2.3105,-2.214,-2.0425,-1.81,-1.5034,-1.2101,0.0,0.0,0.0,0.0,0.0,0.0,0.0,0.0,0.0,0.0,0.0,0.0,0.0,0.0,0.0,0.0,0.0,0.0,0.0,0.0,0.0,0.0,0.0,0.0,0.0,0.0,0.0,0.0,0.0,0.0,0.0,0.0,0.0,0.0,0.0,0.0,0.0,0.0,0.0,0.0,0.0,0.0,-1.3987,-1.3808,0.0,0.0,0.0,-1.3175,-1.1323,0.0,0.0,0.0,0.0,0.0,0.0,0.0,0.0,0.0,0.0,0.0,0.0,0.0,0.0,0.0,0.0,0.0,0.0,0.0,0.0,0.0,0.0,0.0,0.0,0.0,0.0,0.0,0.0,0.0,0.0,0.0,0.0,0.0,0.0,0.0,0.0,0.0,0.0,0.0,0.0,0.0,0.0,0.0,0.0,0.0,0.0,0.0,0.0,0.0,0.0,0.0,0.0,0.0,0.0,0.0,0.0,0.0,-1.5879,-2.0482,-2.2873,-2.28,-2.1301,-1.9584,-1.759,-1.4424,0.0,0.0,0.0,0.0,0.0,0.0,0.0,0.0,0.0,0.0,0.0,0.0,0.0,0.0,0.0,0.0,0.0,0.0,0.0,0.0,0.0,0.0,0.0,0.0,0.0,0.0,0.0,-0.3377,0.0,0.0,0.0,0.0,0.0,0.0,0.0,0.0,0.0,0.0,0.0,0.0,0.0,0.0,-1.5739,-1.4567,-1.5356,-1.5952,0.0,0.0,-1.3554,-1.1689,-1.4728,-1.5732,0.0,0.0,0.0,0.0,0.0,0.0,0.0,0.0,0.0,0.0,0.0,0.0,0.0,0.0,0.0,0.0,0.0,0.0,0.0,0.0,0.0,0.0,0.0,0.0,0.0,0.0,0.0,0.0,0.0,0.0,0.0,0.0,0.0,0.0,0.0,0.0,0.0,0.0,0.0,0.0,0.0,0.0,0.0,0.0,0.0,0.0,0.0,0.0,0.0,0.0,0.0,0.0,0.0,0.0,-1.6034,-1.6685,-2.1067,-2.3164,-2.2788,-2.1239,-1.9294,-1.7012,-1.4536,-1.2094,0.0,0.0,0.0,0.0,0.0,0.0,0.0,0.0,0.0,0.0,0.0,0.0,0.0,0.0,0.0,0.0,0.0,0.0,0.0,0.0,0.0,0.0,0.0,0.0,0.0,0.0,0.0,0.0,0.0,0.0,0.0,0.0,0.0,0.0,0.0,0.0,0.0,0.0,0.0,0.0,0.0,-1.5711,-1.4427,-1.5531,-1.6907,0.0,0.0,-1.5184,-1.5477,-1.8881,-1.9383,-1.3231,0.0,0.0,0.0,0.0,0.0,0.0,0.0,0.0,0.0,0.0,0.0,0.0,0.0,0.0,0.0,0.0,0.0,0.0,0.0,0.0,0.0,0.0,0.0,0.0,0.0,0.0,0.0,0.0,0.0,0.0,0.0,0.0,0.0,0.0,0.0,0.0,0.0,0.0,0.0,0.0,0.0,0.0,0.0,0.0,0.0,0.0,0.0,0.0,0.0,0.0,0.0,0.0,0.0,-1.596,-1.6664,-2.0911,-2.3154,-2.3067,-2.1142,-1.9134,-1.7311,-1.4852,-1.2402,0.0,0.0,0.0,0.0,0.0,0.0,0.0,0.0,0.0,0.0,0.0,0.0,0.0,0.0,0.0,0.0,0.0,0.0,0.0,0.0,0.0,0.0,0.0,0.0,0.0,0.0,0.0,0.0,-1.0421,-1.0891,-0.913,0.0,0.0,0.0,0.0,0.0,0.0,0.0,0.0,0.0,0.0,-1.7662,-1.8373,-1.908,0.0,0.0,-1.8456,-1.6876,-1.5221,-1.7414,-1.7501,-1.2262,-1.1977,0.0,0.0,0.0,0.0,0.0,0.0,0.0,0.0,0.0,0.0,0.0,0.0,0.0,0.0,0.0,0.0,0.0,0.0,0.0,0.0,0.0,0.0,0.0,0.0,0.0,0.0,0.0,0.0,0.0,0.0,0.0,0.0,0.0,0.0,0.0,0.0,0.0,0.0,0.0,0.0,0.0,0.0,0.0,0.0,0.0,0.0,0.0,0.0,0.0,0.0,0.0,0.0,-1.5897,-1.6588,-2.0804,-2.308,-2.3285,-2.0934,-1.9013,-1.7428,-1.5019,-1.272,0.0,0.0,0.0,0.0,0.0,0.0,0.0,0.0,0.0,0.0,0.0,0.0,0.0,0.0,0.0,0.0,0.0,0.0,0.0,0.0,0.0,0.0,0.0,0.0,0.0,0.0,0.0,0.0,-1.1628,-1.1768,-0.9293,0.0,0.0,0.0,0.0,0.0,0.0,0.0,0.0,0.0,0.0,-1.8891,-1.9499,-1.9681,-1.9543,-1.916,-1.7888,-1.6432,-1.4848,-1.6037,-1.6078,-1.299,0.0,0.0,0.0,0.0,0.0,0.0,0.0,0.0,0.0,0.0,0.0,0.0,0.0,0.0,0.0,0.0,0.0,0.0,0.0,0.0,0.0,0.0,0.0,0.0,0.0,0.0,0.0,0.0,0.0,0.0,-0.5373,0.0,0.0,0.0,0.0,0.0,0.0,0.0,0.0,0.0,0.0,0.0,0.0,0.0,0.0,0.0,0.0,0.0,0.0,0.0,0.0,0.0,0.0,-1.5833,-1.6664,-2.0804,-2.298,-2.293,-2.0759,-1.8859,-1.7217,-1.4993,-1.3,-1.1155,0.0,0.0,0.0,0.0,0.0,0.0,0.0,0.0,0.0,0.0,0.0,0.0,0.0,0.0,0.0,0.0,0.0,0.0,0.0,0.0,0.0,0.0,0.0,0.0,0.0,0.0,-0.5116,-0.7145,-0.8896,0.0,0.0,0.0,0.0,0.0,0.0,0.0,0.0,0.0,0.0,-1.6838,-1.9049,-1.6456,-1.6216,-1.6322,-1.5821,-1.4014,-1.3351,-1.515,-1.5717,-1.5999,0.0,0.0,0.0,0.0,0.0,0.0,0.0,0.0,0.0,0.0,0.0,0.0,0.0,0.0,0.0,0.0,0.0,0.0,0.0,0.0,0.0,0.0,0.0,0.0,0.0,0.0,0.0,-1.1385,-1.0917,0.0,0.0,0.0,0.0,0.0,0.0,0.0,0.0,0.0,0.0,0.0,-1.4687,-1.5571,0.0,0.0,0.0,0.0,0.0,0.0,0.0,0.0,0.0,0.0,0.0,0.0,-1.565,-1.6882,-2.0439,-2.2584,-2.2983,-2.1295,-1.9629,-1.8104,-1.6008,-1.3586,-1.0901,0.0,0.0,0.0,0.0,0.0,0.0,0.0,0.0,0.0,0.0,0.0,0.0,0.0,0.0,0.0,0.0,0.0,0.0,0.0,0.0,0.0,0.0,0.0,0.0,0.0,-0.9769,0.0,0.0,0.0,0.0,0.0,0.0,0.0,0.0,0.0,0.0,0.0,-1.2759,-1.4633,-1.5214,-1.5768,-1.6381,-1.6461,-1.7037,0.0,0.0,0.0,0.0,0.0,0.0,0.0,0.0,0.0,0.0,0.0,0.0,0.0,0.0,-1.0437,-0.7763,-0.8469,-0.9206,-0.8214,0.0,0.0,0.0,0.0,0.0,0.0,0.0,0.0,0.0,0.0,0.0,0.0,0.0,0.0,0.0,0.0,-1.3804,0.0,0.0,0.0,0.0,0.0,0.0,0.0,0.0,-1.5395,-1.7184,-1.8011,-1.877,-1.8864,0.0,-1.7755,-1.5479,0.0,0.0,0.0,0.0,0.0,0.0,0.0,0.0,-1.5416,-1.6557,-2.0157,-2.2399,-2.2826,-2.1707,-2.0355,-1.883,-1.6647,-1.4209,-1.1601,-1.1206,-1.0891,0.0,0.0,0.0,0.0,0.0,0.0,0.0,0.0,0.0,0.0,0.0,0.0,0.0,0.0,0.0,0.0,0.0,0.0,0.0,0.0,0.0,0.0,0.0,-1.1353,0.0,0.0,0.0,0.0,0.0,0.0,0.0,0.0,0.0,-1.146,-1.271,-1.4209,-1.5926,-1.5557,-1.5146,-1.5177,0.0,0.0,0.0,0.0,0.0,0.0,0.0,-1.357,-1.2722,-1.3511,-1.4765,-1.6244,-1.6847,-1.6807,-1.5896,0.0,0.0,-0.985,-1.0111,-1.0846,-1.0046,-0.9745,-0.9515,-0.9382,-0.8998,-0.8576,0.0,0.0,0.0,0.0,0.0,0.0,0.0,0.0,-1.7273,-1.5923,0.0,-1.5422,0.0,0.0,0.0,0.0,0.0,0.0,0.0,0.0,-2.2021,-2.3375,-2.0776,-2.1302,-2.1146,-2.0244,-1.897,-1.7991,-1.7233,-1.5963,0.0,0.0,0.0,0.0,0.0,0.0,-1.5184,-1.5815,-2.0119,-2.2485,-2.2685,-2.1992,-2.0853,-1.9145,-1.6879,-1.4873,-1.3224,-1.2766,-1.2194,-1.1422,-1.0534,0.0,0.0,0.0,0.0,0.0,0.0,0.0,0.0,0.0,0.0,0.0,0.0,0.0,0.0,0.0,0.0,0.0,0.0,0.0,0.0,-1.0822,0.0,0.0,0.0,0.0,0.0,0.0,0.0,0.0,0.0,0.0,-1.2169,-1.4538,-1.6389,-1.6114,0.0,0.0,0.0,0.0,-1.3333,-1.0111,-0.9746,-1.0225,-1.0765,-1.3133,-1.571,-1.7949,0.0,0.0,-2.1867,-1.9428,-1.7518,-1.7027,-1.8338,-1.7776,-1.2333,-1.1004,-1.0518,-1.031,-1.0,-0.9488,-0.9433,-0.9518,-0.9138,-2.2307,0.0,0.0,0.0,0.0,-1.8555,-1.979,-2.1915,-2.2382,-2.186,-2.0594,-2.1122,0.0,0.0,0.0,0.0,0.0,0.0,-1.7243,-1.8997,-2.1412,-2.2936,-2.368,-2.4081,-2.401,-2.355,-2.3038,-2.2449,-2.1881,-2.1124,-1.817,-1.3096,0.0,0.0,0.0,0.0,-1.6344,-1.7893,-2.0612,-2.2177,-2.2367,-2.1553,-2.0111,-1.7888,-1.7388,-1.624,-1.4326,-1.4526,-1.3869,-1.2307,-1.285,0.0,0.0,0.0,0.0,0.0,0.0,0.0,0.0,0.0,0.0,0.0,0.0,0.0,0.0,0.0,0.0,0.0,0.0,0.0,-1.2112,-1.4094,-1.3707,0.0,0.0,0.0,0.0,0.0,0.0,0.0,0.0,0.0,-1.4611,-1.4138,-1.3703,0.0,0.0,-1.0974,-0.9503,-1.1538,-1.3638,-1.4792,0.0,0.0,0.0,-1.8222,-1.7957,-1.8644,-2.0967,-2.2729,-2.2934,-2.2491,-2.2141,-2.2178,-2.102,-1.9103,-1.6731,-1.6111,-1.5511,-1.4058,-1.3506,-1.3511,-1.363,-1.3693,-1.3632,-2.5374,-2.354,-2.1662,-2.1086,-2.1615,-2.157,-2.2807,-2.487,-2.5342,-2.4717,-2.3378,-2.4055,-2.1952,-1.7782,-1.7402,0.0,0.0,0.0,-1.959,-2.2201,-2.2659,-2.3716,-2.5107,-2.5361,-2.524,-2.489,-2.483,-2.4468,-2.376,-2.2799,-2.0403,-1.6471,0.0,0.0,-1.3396,-1.5774,-1.7575,-1.8762,-2.0895,-2.2128,-2.2102,-2.1315,-2.0172,-1.8644,-1.8622,-1.7791,-1.604,-1.6285,-1.5682,-1.4027,-1.4651,-1.4107,0.0,0.0,0.0,0.0,0.0,0.0,0.0,0.0,0.0,0.0,0.0,-1.0085,-0.8256,0.0,0.0,0.0,-1.2817,-1.3572,-1.4107,-1.4725,0.0,0.0,0.0,0.0,0.0,0.0,0.0,-1.0825,-1.3742,-1.5894,-1.5518,-1.4549,-1.4033,-1.4499,-1.3157,-1.1738,-1.0604,0.0,-1.5566,-1.6902,-1.7491,-1.8512,-2.0668,-2.0707,-2.0814,-2.1965,-2.3424,-2.4521,-2.4784,-2.4929,-2.4958,-2.4762,-2.338,-2.1433,-1.9212,-1.8958,-1.8221,-1.5709,-1.5277,-1.548,-1.5593,-1.5756,-1.5886,-2.7932,-2.7213,-2.4197,-2.3493,-2.4437,-2.4674,-2.5356,-2.6327,-2.6592,-2.5335,-2.3301,-2.503,-2.3515,-1.9543,-1.8638,0.0,-2.2236,-2.1366,-2.2554,-2.5336,-2.5107,-2.512,-2.5433,-2.5348,-2.518,-2.4697,-2.4831,-2.4554,-2.382,-2.2159,-2.1034,-2.0343,-1.9293,-1.7413,-1.496,-1.7272,-1.8573,-1.8611,-2.0904,-2.198,-2.1836,-2.1281,-2.0792,-2.0474,-2.0119,-1.9334,-1.7959,-1.7959,-1.7398,-1.6305,-1.6107,-1.5808,-1.53,0.0,0.0,0.0,0.0,0.0,0.0,0.0,0.0,0.0,0.0,0.0,0.0,0.0,0.0,-1.3679,-1.4765,0.0,-1.6626,-1.4205,0.0,0.0,0.0,-1.3687,-1.5866,-1.6678,-1.6742,-1.5781,0.0,0.0,-1.5605,-1.5692,-1.6536,-1.8208,-1.7876,-1.6676,-1.4556,-1.68,-1.8424,-1.7396,-1.7887,-1.8752,-2.0168,-2.1845,-2.3986,-2.6098,-2.6998,-2.6808,-2.6677,-2.6312,-2.6019,-2.5667,-2.5161,-2.382,-2.0746,-1.9997,-1.8984,-1.599,-1.5608,-1.5764,-1.5796,-1.5918,-1.6024,-2.8258,-2.8258,-2.7241,-2.6665,-2.6294,-2.6443,-2.6683,-2.7135,-2.7208,-2.6725,-2.6021,-2.6246,-2.5703,-2.4491,-2.4252,-2.4468,-2.4913,-2.4672,-2.4828,-2.5336,-2.5373,-2.5288,-2.5348,-2.5348,-2.5373,-2.5228,-2.4807,-2.4625,-2.4326,-2.3397,-2.1907,-2.019,-1.9815,-1.8503,-1.6257,-1.6969,-1.7962,-1.9041,-1.9821,-2.0694,-2.1559,-2.1222,-2.0745,-2.0215,-2.0413,-2.0005,-1.8923,-1.9299,-1.8824,-1.7313,-1.8346,-1.7977,-1.5731,-1.4406,0.0,0.0,0.0,0.0,0.0,0.0,0.0,0.0,0.0,-1.032,-0.8341,0.0,-1.1949,0.0,-1.6,-1.893,-2.0001,-1.8735,0.0,0.0,-1.5728,-1.5351,-1.6637,-1.8424,-1.8753,-1.6647,-1.8184,-1.9026,-1.7974,-1.7701,-1.8219,-1.9807,-1.7833,-1.5943,-1.5479,-1.8226,-2.0379,-2.0436,-2.2104,-2.3928,-2.4424,-2.5368,-2.6185,-2.6881,-2.6998,-2.6765,-2.6166,-2.5286,-2.4609,-2.4784,-2.3892,-2.2688,-2.1453,-2.0604,-1.9322,-1.7311,-1.6258,-1.5821,-1.5951,-1.6016,-1.5966,-2.8294,-2.8403,-2.8017,-2.7606,-2.7208,-2.7329,-2.7401,-2.7413,-2.7292,-2.716,-2.7015,-2.6749,-2.6484,-2.6218,-2.6218,-2.6073,-2.5832,-2.5832,-2.5687,-2.5446,-2.5348,-2.5348,-2.5348,-2.5348,-2.5373,-2.5168,-2.483,-2.4564,-2.4432,-2.382,-2.2877,-2.1517,-2.1505,-2.0411,-1.8326,-1.7418,-1.7355,-1.802,-1.8674,-1.9815,-2.1438,-2.1088,-2.0354,-1.9221,-1.9267,-1.8676,-1.7459,-1.7499,-1.7162,-1.6365,-1.7084,-1.6722,-1.4978,-1.3613,-1.249,0.0,0.0,0.0,0.0,0.0,0.0,0.0,0.0,0.0,0.0,0.0,-1.3564,-1.3435,-1.6827,-1.9059,-1.9279,-1.8719,-1.8576,-1.9137,-1.8928,-1.9196,-2.0679,-2.2071,-2.2324,-2.0639,-2.1507,-2.1794,-2.073,-2.0114,-2.0036,-2.0641,-1.9679,-1.8778,-1.8664,-2.0415,-2.1978,-2.2677,-2.4274,-2.5754,-2.6398,-2.6778,-2.6998,-2.6998,-2.6998,-2.6838,-2.6399,-2.5492,-2.4904,-2.5005,-2.4236,-2.3092,-2.1834,-2.0813,-1.9505,-1.7752,-1.6524,-1.591,-1.6008,-1.5966,-1.5966,-2.8198,-2.8162,-2.7679,-2.7498,-2.7534,-2.7691,-2.7606,-2.7353,-2.7123,-2.7027,-2.7015,-2.6798,-2.6556,-2.6327,-2.6327,-2.6182,-2.594,-2.5928,-2.5796,-2.5542,-2.5506,-2.5482,-2.5494,-2.5458,-2.5325,-2.5096,-2.4723,-2.454,-2.4287,-2.3941,-2.3616,-2.3086,-2.3062,-2.2065,-2.0083,-1.8095,-1.6943,-1.6611,-1.7855,-1.9424,-2.1126,-2.0531,-1.9369,-1.7827,-1.7392,-1.6604,-1.5248,-1.4716,-1.4595,-1.4856,-1.4613,-1.4437,-1.441,-1.2658,-1.1727,0.0,-1.0266,0.0,0.0,0.0,0.0,0.0,0.0,0.0,0.0,-1.5515,-1.5729,-1.6108,-1.7531,-1.8281,-1.7803,-1.7849,-1.9122,-2.2231,-2.2809,-2.3744,-2.5577,-2.5944,-2.5809,-2.5255,-2.4849,-2.4156,-2.3119,-2.2448,-2.176,-2.1289,-2.1941,-2.2314,-2.2229,-2.2627,-2.3475,-2.4399,-2.5023,-2.574,-2.6296,-2.6705,-2.6925,-2.6969,-2.6998,-2.6998,-2.6765,-2.6253,-2.5873,-2.5653,-2.5079,-2.4044,-2.2223,-2.0992,-1.9538,-1.7946,-1.6658,-1.591,-1.5991,-1.6213,-1.6205,-2.8198,-2.8174,-2.7872,-2.786,-2.8029,-2.7655,-2.7353,-2.7099,-2.7051,-2.7027,-2.7027,-2.6979,-2.6918,-2.687,-2.6882,-2.6725,-2.6484,-2.6484,-2.6339,-2.6061,-2.5856,-2.5759,-2.5735,-2.5542,-2.5409,-2.5349,-2.5096,-2.483,-2.4552,-2.4287,-2.319,-2.1353,-2.1254,-2.0307,-1.8375,0.0,0.0,0.0,-1.8454,-1.9383,-1.9585,-1.8099,-1.6946,-1.6151,-1.6075,0.0,-1.5238,-1.5251,-1.5271,-1.5347,-1.5443,0.0,0.0,0.0,0.0,0.0,0.0,0.0,0.0,0.0,0.0,0.0,-1.5653,-1.5376,-1.5649,-1.5744,-1.6465,-1.8088,-1.9177,-2.068,-2.2849,-2.3543,-2.4525,-2.5998,-2.5728,-2.5779,-2.6753,-2.6197,-2.5742,-2.5876,-2.539,-2.4713,-2.3898,-2.3679,-2.327,-2.2516,-2.2722,-2.3065,-2.3488,-2.4116,-2.4742,-2.4936,-2.5251,-2.5666,-2.6047,-2.6398,-2.672,-2.691,-2.6998,-2.6765,-2.6239,-2.6239,-2.6019,-2.5506,-2.5139,-2.4784,-2.3661,-2.1674,-1.9793,-1.8765,-1.7127,-1.5829,-1.6008,-1.6862,-1.7592,-2.8282,0.0,-2.7836,-2.7775,0.0,-2.7449,-2.7148,-2.7027,-2.7027,-2.7027,-2.7027,-2.7027,-2.7027,-2.7027,-2.6894,-2.6689,-2.6423,-2.6303,-2.6097,-2.5832,-2.5699,-2.5639,-2.5639,-2.5494,-2.5348,-2.5348,-2.5083,-2.4975,-2.4818,-2.4432,-2.3648,-2.2443,-2.2315,-2.1758,-2.0812,-2.0552,-1.9765,-1.8471,-1.8832,-1.9374,-2.0238,-1.9152,-1.8103,-1.7061,0.0,0.0,0.0,0.0,0.0,0.0,0.0,0.0,0.0,0.0,0.0,-1.6323,-1.5553,-1.5889,-1.7819,-1.7949,-1.8581,-1.9946,-1.997,-1.9198,-1.7574,-1.8552,-1.9752,-2.0926,-2.1445,-2.2699,-2.494,-2.5597,-2.6148,-2.7032,-2.6851,-2.6733,-2.6867,-2.6264,-2.5928,-2.5996,-2.5322,-2.4578,-2.4034,-2.3679,-2.3338,-2.2996,-2.3201,-2.3598,-2.4079,-2.4533,-2.4876,-2.5218,-2.5403,-2.5637,-2.5959,-2.6296,-2.6617,-2.6896,-2.6998,-2.6838,-2.6473,-2.6399,-2.6239,-2.5873,-2.5653,-2.5226,-2.428,-2.2202,-2.0156,-1.9285,-1.7882,-1.6823,-1.6871,-1.7448,-1.801,-2.8355,-2.8415,-2.7763,-2.7582,-2.7703,-2.7232,-2.7027,-2.7027,0.0,0.0,0.0,-2.7027,-2.7027,-2.7015,-2.6761,-2.6508,-2.6278,-2.6013,-2.5784,-2.5578,-2.5444,-2.5506,-2.5506,-2.5458,-2.5348,-2.5336,-2.5144,-2.4999,-2.4939,-2.4589,-2.4359,-2.4205,-2.4045,-2.3808,-2.3736,-2.3309,-2.2305,-2.0631,-1.9346,-1.9422,-2.1007,-2.0379,-1.9358,-1.8006,-1.7531,-1.6727,-1.5614,-1.4941,-1.4716,-1.4941,-1.4707,-1.4744,-1.5035,-1.511,-1.5402,-1.6085,-1.6589,-1.7844,-1.9922,-2.0714,-2.1885,-2.3736,-2.3754,-2.2618,-2.0007,-2.1787,-2.3126,-2.338,-2.3547,-2.4345,-2.5864,-2.6156,-2.6526,-2.7197,-2.7253,-2.7097,-2.6898,-2.6465,-2.6264,-2.6182,-2.5442,-2.4563,-2.4374,-2.3761,-2.327,-2.3406,-2.3816,-2.4311,-2.4608,-2.4705,-2.4842,-2.5266,-2.5447,-2.5637,-2.5974,-2.6296,-2.6617,-2.6925,-2.6998,-2.6998,-2.6983,-2.6765,-2.6546,-2.6458,-2.6166,-2.5653,-2.4784,-2.2593,-2.0615,-1.9719,-1.8602,-1.7716,-1.7744,-1.8242,-1.8808,-2.8318,-2.792,-2.7799,-2.7655,-2.7449,-2.716,-2.7027,-2.7027,-2.7027,-2.7027,-2.7027,-2.7027,-2.7027,-2.7015,-2.6761,-2.6616,-2.6568,-2.6291,-2.6146,0.0,-2.588,-2.5771,-2.5759,-2.5542,-2.5348,-2.5348,-2.5397,-2.518,-2.4975,-2.4879,-2.4723,-2.4564,-2.4311,-2.4057,-2.3816,-2.3309,-2.2971,-2.2637,-2.0699,-1.9618,-1.9503,-1.8125,-1.7084,-1.6455,-1.6425,-1.6042,-1.5604,-1.5702,-1.5615,-1.5442,-1.5462,-1.6253,-1.793,-1.8077,-1.9027,-2.091,-2.1274,-2.1687,-2.245,-2.29,-2.3471,-2.4029,-2.3674,-2.316,-2.2806,-2.3306,-2.3732,-2.3785,-2.4537,-2.5324,-2.5963,-2.6542,-2.7118,-2.7547,-2.7382,-2.7315,-2.7549,-2.7016,-2.678,-2.7048,-2.613,-2.5419,-2.5352,-2.5013,-2.466,-2.4781,-2.4785,-2.5149,-2.5487,-2.5487,-2.5295,-2.5227,-2.5359,-2.5637,-2.5959,-2.6296,-2.6617,-2.6939,-2.6998,-2.6998,-2.6998,-2.691,-2.6838,-2.691,-2.6546,-2.6166,-2.558,-2.3042,-2.1071,-1.9973,-1.895,-1.8138,-1.7929,-1.9574,-2.1152,-2.8475,-2.8222,-2.7932,-2.7751,-2.7606,-2.7208,-2.7027,-2.7027,-2.7027,-2.7027,-2.7027,-2.7027,-2.7027,-2.6991,-2.6604,-2.6411,-2.6399,-2.5989,-2.5796,-2.5784,-2.5663,-2.5615,-2.5602,-2.5494,-2.5348,-2.5348,-2.5348,-2.5373,-2.5252,-2.5035,-2.4819,-2.4613,-2.4145,-2.3808,-2.3544,-2.3237,-2.3048,-2.2814,-2.1491,-2.0624,-2.045,-1.9461,-1.8992,-1.8999,-1.8887,-1.8874,-1.8979,-1.8846,-1.8644,-1.8523,-1.8622,-1.9149,-2.0249,-2.0461,-2.1062,-2.2312,-2.2775,-2.304,-2.331,-2.3831,-2.415,-2.4209,-2.3808,-2.3567,-2.3567,-2.338,-2.3487,-2.4013,-2.4917,-2.5862,-2.6703,-2.7208,-2.7726,-2.8519,-2.8138,-2.8038,-2.8386,-2.8148,-2.8012,-2.8232,-2.7416,-2.6588,-2.6216,-2.5861,-2.5446,-2.5207,-2.5383,-2.5637,-2.5769,-2.5944,-2.5944,-2.5666,-2.571,-2.5842,-2.6018,-2.6281,-2.6617,-2.6939,-2.6998,-2.6998,-2.6998,-2.6998,-2.6998,-2.6998,-2.6838,-2.6619,-2.6166,-2.3696,-2.1739,-2.0887,-1.9993,-1.9253,-1.9437,-2.1228,-2.2258,-2.85,-2.8403,-2.792,-2.7691,-2.7606,-2.7208,-2.7027,-2.7027,-2.7027,-2.7027,-2.7027,-2.7027,-2.7027,-2.6966,-2.646,-2.6218,-2.6146,-2.5675,-2.536,-2.5348,-2.5348,-2.5348,-2.5348,-2.5348,-2.5348,-2.5348,-2.5348,-2.5348,-2.5324,-2.5144,-2.4963,-2.4613,-2.4166,-2.3724,-2.3538,-2.3273,-2.3007,-2.2794,-2.2091,-2.1595,-2.1474,-2.1124,-2.1124,-2.1426,-2.1329,-2.1438,-2.1812,-2.1462,-2.1292,-2.1231,-2.129,-2.1432,-2.1728,-2.2128,-2.2481,-2.2844,-2.3411,-2.3799,-2.3865,-2.4209,-2.4395,-2.4315,-2.4035,-2.3875,-2.3821,-2.3313,-2.33,-2.4165,-2.5042,-2.6037,-2.6959,-2.747,-2.8047,-2.8764,-2.8516,-2.8416,-2.9018,-2.8796,-2.8829,-2.9201,-2.8498,-2.7567,-2.7037,-2.6565,-2.5981,-2.5452,-2.5608,-2.5813,-2.5813,-2.6208,-2.6354,-2.6222,-2.612,-2.6135,-2.6135,-2.6413,-2.6705,-2.6969,-2.6998,-2.6998,-2.6998,-2.6998,-2.6998,-2.6998,-2.6998,-2.6692,-2.6093,-2.4079,-2.2422,-2.17,-2.1004,-2.0825,-2.1525,-2.2712,-2.3175,-2.8113,-2.786,-2.7594,-2.7317,-2.7123,-2.7051,-2.7027,-2.7027,-2.7027,-2.7027,-2.7027,-2.7027,-2.7027,-2.6954,-2.646,-2.6206,-2.617,-2.5675,-2.5348,-2.5348,-2.5348,-2.5348,-2.5348,-2.5348,-2.5348,-2.5348,-2.5348,-2.5348,-2.5348,-2.53,-2.5047,-2.4649,-2.4335,-2.4045,-2.3724,-2.3459,-2.3273,-2.3084,-2.2552,-2.2031,-2.1523,-2.1667,-2.1679,-2.1486,-2.1679,-2.1812,-2.1848,-2.1824,-2.1679,-2.1534,-2.1785,-2.1988,-2.2072,-2.2683,-2.3242,-2.3476,-2.3905,-2.4243,-2.4409,-2.4253,-2.424,-2.4509,-2.4315,-2.4142,-2.4102,-2.3621,-2.3527,-2.4251,-2.5152,-2.5997,-2.6483,-2.7207,-2.7805,-2.8006,-2.7951,-2.8028,-2.8654,-2.8209,-2.8325,-2.9696,-2.89,-2.808,-2.7673,-2.7044,-2.6276,-2.5516,-2.5622,-2.5886,-2.6237,-2.6427,-2.6544,-2.6486,-2.6457,-2.6442,-2.6471,-2.672,-2.6896,-2.6983,-2.6998,-2.6998,-2.6998,-2.6998,-2.6998,-2.6998,-2.6925,-2.6546,-2.5419,-2.3931,-2.2732,-2.2396,-2.215,-2.2319,-2.3716,-2.4256,-2.3644,-2.8053,-2.7787,-2.7534,-2.7268,-2.7142,-2.7661,-2.7752,-2.7377,-2.7377,-2.7377,-2.739,-2.7118,-2.6954,-2.6785,-2.6387,-2.6146,-2.5965,-2.5602,-2.5348,-2.5348,-2.5348,-2.5348,-2.5348,-2.5348,-2.5348,-2.5348,-2.5348,-2.5348,-2.53,-2.512,-2.4842,-2.4601,-2.4133,-2.3868,-2.3748,-2.3507,-2.3321,-2.3121,-2.2757,-2.2384,-2.2117,-2.1643,-2.1426,-2.1462,-2.1498,-2.1474,-2.1619,-2.1643,-2.1728,-2.1847,-2.2186,-2.2431,-2.2576,-2.3019,-2.3379,-2.3494,-2.3862,-2.4209,-2.4549,-2.4414,-2.4335,-2.4396,-2.4275,-2.3989,-2.343,-2.3466,-2.3772,-2.4375,-2.557,-2.6617,-2.7366,-2.7997,-2.8313,-2.8329,-2.818,-2.828,-2.8695,-2.8921,-2.9327,-2.9798,-2.9493,-2.8954,-2.8112,-2.7044,-2.6154,-2.5662,-2.5813,-2.6208,-2.6486,-2.6661,-2.6778,-2.6793,-2.6793,-2.6691,-2.6603,-2.6778,-2.6954,-2.6998,-2.6998,-2.6998,-2.6998,-2.6998,-2.6998,-2.6998,-2.6721,-2.6194,-2.5419,-2.4375,-2.3413,-2.3104,-2.3266,-2.3639,-2.4238,-2.4418,-2.3939,-2.8038,-2.7864,-2.7793,-2.7573,-2.7492,-2.8204,-2.8294,-2.792,-2.792,-2.7817,-2.7649,-2.7377,-2.6924,-2.652,-2.6303,-2.6073,-2.5808,-2.5554,-2.5348,-2.5348,-2.5348,-2.5348,-2.5348,-2.5348,-2.5348,-2.5348,-2.5348,-2.5397,-2.5216,-2.4951,-2.4673,-2.448,-2.4049,-2.3913,-2.3748,-2.3568,-2.343,-2.3164,-2.2963,-2.2688,-2.2448,-2.1848,-2.1593,-2.1691,-2.1462,-2.1486,-2.1898,-2.1764,-2.1982,-2.2466,-2.2752,-2.2999,-2.3072,-2.3484,-2.3748,-2.3735,-2.4031,-2.4227,-2.4456,-2.4516,-2.4396,-2.4128,-2.4155,-2.4053,-2.3735,-2.3985,-2.4534,-2.5384,-2.6357,-2.7311,-2.7749,-2.8366,-2.8571,-2.8374,-2.8128,-2.8177,-2.8728,-2.9206,-2.9428,-2.9918,-2.9902,-2.9461,-2.8264,-2.7044,-2.61,-2.5849,-2.6135,-2.6559,-2.6647,-2.6837,-2.6983,-2.6998,-2.6983,-2.6896,-2.6705,-2.6822,-2.6969,-2.6998,-2.6998,-2.6998,-2.7013,-2.7042,-2.7027,-2.6983,-2.6485,-2.5782,-2.4991,-2.4301,-2.424,-2.411,-2.4321,-2.4596,-2.4533,-2.4556,-2.4294,-2.7957,-2.8161,-2.8342,-2.841,-2.8474,-2.8474,-2.8474,-2.8474,-2.8474,-2.8204,-2.783,-2.7649,-2.7084,-2.6278,-2.6254,-2.6085,-2.582,-2.5578,-2.5372,-2.547,-2.5458,-2.5446,-2.5348,-2.5348,-2.5348,-2.5348,-2.5348,-2.5325,-2.5023,-2.4951,-2.4758,-2.4299,-2.4145,-2.4082,-2.3808,-2.3828,-2.3604,-2.3406,-2.323,-2.304,-2.2724,-2.2534,-2.2422,-2.2434,-2.2044,-2.2117,-2.2633,-2.2558,-2.268,-2.3313,-2.3684,-2.3709,-2.3487,-2.4105,-2.4414,-2.4488,-2.4488,-2.4442,-2.4302,-2.4275,-2.4142,-2.3915,-2.416,-2.4494,-2.4946,-2.5228,-2.5869,-2.7362,-2.7351,-2.7412,-2.7408,-2.8058,-2.8083,-2.7525,-2.7363,-2.7829,-2.8689,-2.8375,-2.8726,-2.9817,-2.9986,-2.9227,-2.7912,-2.7081,-2.6487,-2.6184,-2.6296,-2.6617,-2.6866,-2.6969,-2.6983,-2.6998,-2.6998,-2.6983,-2.6969,-2.6954,-2.6983,-2.6998,-2.6998,-2.7013,-2.71,-2.7174,-2.7159,-2.7174,-2.6981,-2.6274,-2.4824,-2.4462,-2.4904,-2.5147,-2.5486,-2.563,-2.473,-2.4688,-2.4359,-2.8309,-2.8446,-2.8783,-2.8835,-2.8565,-2.9105,-2.9375,-2.9375,-2.9105,-2.8822,-2.8552,-2.801,-2.7271,-2.6484,-2.6484,-2.6242,-2.5844,-2.5723,-2.5687,-2.5687,-2.5687,-2.5602,-2.536,-2.5348,-2.5348,-2.5348,-2.5348,-2.5397,-2.5204,-2.5047,-2.4867,-2.4638,-2.4313,-2.4097,-2.4001,-2.3925,-2.3787,-2.3847,-2.3803,-2.3788,-2.3757,-2.3517,-2.3415,-2.3446,-2.2724,-2.2428,-2.2674,-2.2762,-2.3009,-2.3551,-2.3866,-2.397,-2.3809,-2.3822,-2.397,-2.4193,-2.4193,-2.4288,-2.4429,-2.4489,-2.4356,-2.4174,-2.5029,-2.5249,-2.5115,-2.5783,-2.6712,-2.7201,-2.7092,-2.7139,-2.7802,-2.8313,-2.8296,-2.7729,-2.7779,-2.801,-2.8378,-2.8411,-2.871,-2.921,-2.9244,-2.874,-2.8024,-2.74,-2.7024,-2.6467,-2.6603,-2.6837,-2.6939,-2.6998,-2.6998,-2.6998,-2.6998,-2.6998,-2.6998,-2.6983,-2.6998,-2.6998,-2.7013,-2.7144,-2.7261,-2.7393,-2.7422,-2.7465,-2.7389,-2.6826,-2.5452,-2.508,-2.5571,-2.594,-2.627,-2.5841,-2.4838,-2.4675,-2.4221,-2.8544,-2.8771,-2.9195,-2.9272,-2.9015,-2.9824,-3.0093,-3.0093,-2.981,-2.9541,-2.9272,-2.8552,-2.768,-2.6933,-2.6807,-2.6536,-2.6097,-2.6001,-2.5953,-2.5953,-2.5953,-2.582,-2.5602,-2.5566,-2.5518,-2.5372,-2.5348,-2.5409,-2.5313,-2.5132,-2.5083,-2.4795,-2.453,-2.4395,-2.4157,-2.4057,-2.4,-2.4165,-2.4186,-2.4223,-2.4353,-2.4212,-2.4031,-2.3957,-2.3495,-2.3156,-2.3083,-2.3126,-2.3447,-2.3844,-2.4088,-2.4193,-2.4193,-2.397,-2.3896,-2.4193,-2.4193,-2.4301,-2.4442,-2.4502,-2.4369,-2.4174,-2.5377,-2.5855,-2.5428,-2.6638,-2.7453,-2.763,-2.7401,-2.7483,-2.8079,-2.8539,-2.85,-2.7896,-2.7915,-2.8196,-2.8395,-2.8543,-2.8792,-2.9109,-2.9027,-2.857,-2.8,-2.771,-2.7266,-2.6572,-2.6793,-2.6983,-2.6998,-2.6998,-2.6998,-2.6998,-2.6998,-2.6998,-2.6998,-2.6998,-2.6998,-2.6998,-2.7159,-2.7291,-2.7481,-2.7627,-2.7759,-2.7725,-2.7485,-2.6918,-2.6463,-2.5996,-2.6136,-2.6538,-2.6485,-2.6109,-2.5268,-2.4546,-2.4183,-2.8771,-2.9298,-2.9734,-2.985,-2.9913,-3.0361,-3.0616,-3.0616,-3.0526,-3.0258,-2.9721,-2.9272,-2.8322,-2.7392,-2.7214,-2.6986,-2.6568,-2.6363,-2.6254,-2.623,-2.623,-2.6073,-2.5808,-2.5784,-2.5651,-2.536,-2.5348,-2.5313,-2.5047,-2.5289,-2.5168,-2.4806,-2.4795,-2.4685,-2.4251,-2.4202,-2.4312,-2.4467,-2.4298,-2.4259,-2.4355,-2.4479,-2.4357,-2.4084,-2.4288,-2.4261,-2.3992,-2.3771,-2.3917,-2.4422,-2.4549,-2.4562,-2.4562,-2.4488,-2.4562,-2.4562,-2.4562,-2.4429,-2.4289,-2.4262,-2.4182,-2.4354,-2.5297,-2.6473,-2.7087,-2.7869,-2.8523,-2.8914,-2.8509,-2.8244,-2.8313,-2.857,-2.8525,-2.7848,-2.7915,-2.8246,-2.8593,-2.8543,-2.8677,-2.9428,-2.9177,-2.8701,-2.8255,-2.7881,-2.7417,-2.6833,-2.6808,-2.7027,-2.7042,-2.7042,-2.6998,-2.7027,-2.7013,-2.6998,-2.6998,-2.6998,-2.7013,-2.7056,-2.7276,-2.7481,-2.7744,-2.792,-2.8095,-2.8136,-2.8136,-2.764,-2.7291,-2.6922,-2.6664,-2.689,-2.664,-2.6199,-2.5401,-2.4649,-2.4402,-2.9573,-3.0039,-3.0221,-3.0281,-3.0361,-3.0526,-3.0973,-3.1432,-3.0884,-3.0348,-2.9797,-2.9092,-2.8153,-2.7279,-2.7087,-2.6984,-2.6906,-2.681,-2.6689,-2.6532,-2.6508,-2.6266,-2.5904,-2.5832,-2.5687,-2.5482,-2.5348,-2.5312,-2.5349,-2.5397,-2.5325,-2.518,-2.489,-2.4685,-2.4492,-2.4154,-2.4233,-2.4811,-2.4803,-2.4931,-2.5098,-2.5196,-2.4904,-2.4467,-2.4562,-2.4488,-2.4401,-2.4322,-2.4395,-2.4636,-2.4636,-2.4636,-2.4636,-2.4636,-2.4636,-2.4636,-2.4636,-2.4609,-2.4529,-2.4489,-2.4815,-2.5606,-2.6662,-2.7716,-2.8535,-2.9218,-2.9589,-2.9682,-2.9035,-2.8514,-2.837,-2.8557,-2.8693,-2.8477,-2.8642,-2.879,-2.9022,-2.9005,-2.9025,-2.9094,-2.9106,-2.8854,-2.8341,-2.7977,-2.7659,-2.7039,-2.6939,-2.7115,-2.7247,-2.7144,-2.7115,-2.7261,-2.7144,-2.7086,-2.7144,-2.7261,-2.7349,-2.7408,-2.7569,-2.7744,-2.7993,-2.8303,-2.8479,-2.8491,-2.8491,-2.8297,-2.8034,-2.7795,-2.7535,-2.7098,-2.678,-2.608,-2.5225,-2.483,-2.4685,-2.9834,-3.0026,-3.0314,-3.0452,-3.0629,-3.0794,-3.124,-3.1877,-3.1418,-3.0794,-3.0079,-2.9362,-2.8384,-2.748,-2.7287,-2.7287,-2.7208,-2.7118,-2.7033,-2.6977,-2.6785,-2.6484,-2.5989,-2.5759,-2.5675,-2.5578,-2.5482,-2.5494,-2.5578,-2.5396,-2.5348,-2.5361,-2.5083,-2.4901,-2.4802,-2.4556,-2.4715,-2.5235,-2.5253,-2.5335,-2.5551,-2.5464,-2.517,-2.4836,-2.4703,-2.4636,-2.4636,-2.4636,-2.4636,-2.4636,-2.4636,-2.4636,-2.4636,-2.4636,-2.4636,-2.4636,-2.4636,-2.4636,-2.4636,-2.5051,-2.5566,-2.6502,-2.781,-2.8819,-2.9274,-2.9818,-2.9954,-3.0009,-2.9163,-2.8704,-2.8956,-2.8957,-2.9043,-2.9009,-2.9138,-2.9319,-2.9272,-2.9191,-2.9194,-2.9189,-2.9297,-2.9018,-2.8704,-2.8392,-2.8046,-2.7539,-2.7275,-2.7335,-2.7496,-2.7378,-2.7452,-2.7525,-2.7525,-2.7466,-2.7408,-2.7525,-2.77,-2.7803,-2.7905,-2.8081,-2.8271,-2.8721,-2.899,-2.8942,-2.8865,-2.8681,-2.8384,-2.8341,-2.8187,-2.7611,-2.6955,-2.6421,-2.5803,-2.5387,-2.5125,-2.9808,-2.9467,-3.0157,-3.0542,-3.0822,-3.1151,-3.1596,-3.2054,-3.1877,-3.1329,-3.0629,-2.9913,-2.9002,-2.801,-2.7739,-2.7739,-2.7649,-2.7299,-2.7287,-2.7431,-2.7201,-2.6742,-2.627,-2.5796,-2.5761,-2.5859,-2.559,-2.5615,-2.5872,-2.5664,-2.5446,-2.5592,-2.5471,-2.5385,-2.5347,-2.5343,-2.5387,-2.562,-2.5492,-2.5491,-2.5892,-2.5384,-2.509,-2.5037,-2.4783,-2.4636,-2.4636,-2.4636,-2.4636,-2.4636,-2.4636,-2.4636,-2.4636,-2.4636,-2.4636,-2.4636,-2.4636,-2.477,-2.4991,-2.5859,-2.6648,-2.7085,-2.8532,-2.9767,-2.9702,-2.972,-2.997,-3.0293,-2.9261,-2.8884,-2.9691,-2.9715,-2.9429,-2.9396,-2.9293,-2.9242,-2.9295,-2.9093,-2.9257,-2.9633,-2.9547,-2.9325,-2.9186,-2.8923,-2.8546,-2.8099,-2.7834,-2.7837,-2.7865,-2.7848,-2.773,-2.7773,-2.7847,-2.7759,-2.7656,-2.7861,-2.8022,-2.8125,-2.83,-2.8626,-2.8791,-2.9201,-2.949,-2.9427,-2.9149,-2.8964,-2.8856,-2.8705,-2.8409,-2.7862,-2.7342,-2.6939,-2.6558,-2.6122,-2.5644,-3.0333,-3.0907,-3.0954,-3.1173,-3.1624,-3.1788,-3.2143,-3.2409,-3.1774,-3.1151,-3.0526,-2.9721,-2.9002,-2.8384,-2.8294,-2.8294,-2.8204,-2.7739,-2.7558,-2.7612,-2.7426,-2.709,-2.6719,-2.626,-2.6166,-2.64,-2.6154,-2.6191,-2.6509,-2.6265,-2.6216,-2.6443,-2.602,-2.5828,-2.5767,-2.5425,-2.5375,-2.566,-2.5466,-2.5556,-2.5865,-2.5384,-2.509,-2.505,-2.4783,-2.4649,-2.4636,-2.4636,-2.4636,-2.4636,-2.4636,-2.4636,-2.4636,-2.4636,-2.471,-2.4784,-2.5492,-2.5932,-2.6152,-2.7012,-2.7955,-2.8819,-2.9409,-3.0124,-3.0906,-3.0416,-3.0416,-3.0513,-2.9743,-2.9073,-2.9319,-2.9529,-2.9716,-2.9665,-2.9311,-2.9093,-2.9292,-2.9493,-2.9676,-2.9868,-2.9773,-2.9601,-2.9361,-2.9183,-2.8935,-2.8618,-2.8385,-2.8357,-2.84,-2.8127,-2.7934,-2.8005,-2.8049,-2.7917,-2.7903,-2.8107,-2.8344,-2.8447,-2.8802,-2.937,-2.9572,-2.9774,-2.9912,-2.9912,-2.937,-2.9076,-2.8997,-2.8811,-2.8425,-2.7951,-2.761,-2.7198,-2.7001,-2.664,-2.616,-3.0914,-3.1039,-3.1226,-3.1609,-3.198,-3.1774,-3.1966,-3.2232,-3.1685,-3.0884,-3.0272,-2.9721,-2.9105,-2.8565,-2.8474,-2.8758,-2.9015,-2.8552,-2.8398,-2.8309,-2.7725,-2.7285,-2.6959,-2.6649,-2.6635,-2.6952,-2.6772,-2.6809,-2.6952,-2.6881,-2.678,-2.6723,-2.6478,-2.6281,-2.6203,-2.592,-2.5814,-2.599,-2.5792,-2.5712,-2.5905,-2.5384,-2.513,-2.5024,-2.4796,-2.4636,-2.4636,-2.4636,-2.4636,-2.4636,-2.4636,-2.4636,-2.4636,-2.5139,-2.5359,-2.5433,-2.643,-2.7085,-2.7303,-2.8171,-2.9051,-2.9767,-3.0195,-3.0751,-3.1022,-3.0647,-3.0371,-3.052,-2.983,-2.9437,-2.9494,-2.9622,-2.9608,-2.9517,-2.911,-2.9008,-2.9481,-2.9567,-2.9834,-2.9996,-3.0057,-2.9966,-2.9568,-2.9472,-2.9284,-2.8985,-2.8681,-2.8732,-2.8866,-2.8426,-2.8151,-2.8373,-2.8476,-2.8403,-2.8373,-2.8534,-2.8876,-2.8978,-2.9774,-3.0286,-3.0286,-3.0445,-3.04,-3.0276,-2.9715,-2.9281,-2.9202,-2.8921,-2.8439,-2.8007,-2.7734,-2.743,-2.7109,-2.7025,-2.6548,-3.1283,-3.0627,-3.1492,-3.1954,-3.2069,-3.1685,-3.1774,-3.1877,-3.1507,-3.0794,-3.0182,-2.9913,-2.9465,-2.8655,-2.8925,-2.9195,-2.9913,-2.9541,-2.9356,-2.903,-2.8289,-2.7582,-2.7529,-2.7167,-2.7165,-2.7388,-2.734,-2.7416,-2.7465,-2.7439,-2.72,-2.714,-2.7025,-2.68,-2.6757,-2.6656,-2.653,-2.6334,-2.6041,-2.6012,-2.5932,-2.5504,-2.5197,-2.513,-2.481,-2.4649,-2.4636,-2.4636,-2.4636,-2.4636,-2.4636,-2.471,-2.4844,-2.5859,-2.643,-2.6794,-2.7593,-2.8243,-2.846,-2.9338,-2.9981,-3.0266,-3.1064,-3.1405,-3.101,-3.0393,-3.0085,-3.0354,-2.9691,-2.9636,-3.0029,-2.9731,-2.9493,-2.9493,-2.9158,-2.9244,-2.9666,-2.9612,-2.9656,-3.0376,-3.0496,-3.0299,-3.0118,-2.9952,-2.9793,-2.9727,-2.9374,-2.9169,-2.9106,-2.8798,-2.8655,-2.8725,-2.8798,-2.8842,-2.8842,-2.8886,-2.9257,-2.965,-3.0756,-3.133,-3.1123,-3.1093,-3.1017,-3.0721,-3.0067,-2.963,-2.9486,-2.908,-2.8474,-2.8095,-2.7889,-2.7486,-2.7095,-2.7046,-2.6781,-3.119,-3.2048,-3.1987,-3.2201,-3.2601,-3.2498,-3.2321,-3.1966,-3.1507,-3.0884,-3.0437,-3.0093,-2.9824,-2.9554,-2.9824,-3.0272,-3.0437,-3.032,-3.0096,-2.9317,-2.8391,-2.8239,-2.8317,-2.7972,-2.7982,-2.8165,-2.8268,-2.8382,-2.8435,-2.8178,-2.8087,-2.8142,-2.7635,-2.7486,-2.7423,-2.6957,-2.6733,-2.6653,-2.6239,-2.6106,-2.6119,-2.5718,-2.5398,-2.5331,-2.4917,-2.4589,-2.4636,-2.4636,-2.4636,-2.4636,-2.471,-2.5065,-2.5786,-2.6284,-2.6867,-2.781,-2.8819,-2.9481,-2.9624,-3.0409,-3.1206,-3.1135,-3.133,-3.1405,-3.1046,-3.0342,-2.9968,-2.9899,-2.9358,-2.9437,-3.014,-2.9752,-2.9694,-2.9857,-2.9583,-2.9511,-3.0097,-3.0255,-3.0518,-3.0993,-3.1061,-3.0826,-3.0733,-3.046,-3.0373,-3.0383,-3.0062,-2.9595,-2.9303,-2.9082,-2.8968,-2.8886,-2.8886,-2.8915,-2.914,-2.9321,-2.9898,-3.031,-3.1411,-3.2088,-3.1879,-3.1604,-3.1513,-3.0932,-3.0295,-3.0026,-2.9778,-2.9028,-2.8354,-2.8133,-2.7961,-2.7622,-2.7333,-2.721,-2.6651,-3.1353,-3.2498,-3.2376,-3.2512,-3.2778,-3.2512,-3.2232,-3.1877,-3.124,-3.0794,-3.0526,-3.0093,-2.9913,-2.9913,-3.0361,-3.0705,-3.0931,-3.0998,-3.077,-3.0082,-2.9179,-2.8898,-2.8958,-2.8846,-2.8793,-2.8778,-2.8938,-2.9066,-2.8964,-2.8757,-2.8612,-2.8604,-2.8123,-2.7869,-2.7709,-2.7362,-2.7108,-2.6827,-2.6547,-2.6333,-2.6132,-2.5905,-2.5518,-2.5344,-2.4997,-2.4796,-2.4649,-2.4636,-2.4636,-2.471,-2.5139,-2.5712,-2.6357,-2.6939,-2.7738,-2.8835,-2.9981,-3.0622,-3.0922,-3.1206,-3.1559,-3.1559,-3.1559,-3.1234,-3.0891,-3.0325,-3.0,-2.9624,-2.9402,-2.9359,-3.0045,-3.0074,-3.008,-3.0217,-3.0101,-3.0085,-3.0546,-3.0645,-3.0976,-3.1582,-3.1807,-3.1599,-3.1297,-3.0867,-3.0396,-3.017,-2.974,-2.9351,-2.9196,-2.8975,-2.8968,-2.8886,-2.8886,-2.8973,-2.9242,-2.9745,-3.0515,-3.1063,-3.1857,-3.2313,-3.2371,-3.2094,-3.1817,-3.1233,-3.0602,-3.0359,-3.0048,-2.9182,-2.8445,-2.8353,-2.818,-2.7919,-2.7552,-2.7233,-2.6468,-3.1645,-3.2531,-3.2703,-3.2763,-3.2763,-3.2321,-3.2143,-3.1877,-3.1062,-3.0705,-3.054,-3.0093,-2.9913,-3.0093,-3.0526,-3.0973,-3.1423,-3.1314,-3.1085,-3.0761,-2.9763,-2.9387,-2.9245,-2.9291,-2.9331,-2.9205,-2.9397,-2.9419,-2.9184,-2.9072,-2.8838,-2.8657,-2.8297,-2.803,-2.7816,-2.7682,-2.7455,-2.7068,-2.6841,-2.6587,-2.6239,-2.6079,-2.5758,-2.5304,-2.5184,-2.4957,-2.4743,-2.469,-2.4703,-2.471,-2.5786,-2.6357,-2.6939,-2.7738,-2.8891,-2.9981,-3.0993,-3.1347,-3.1347,-3.1559,-3.1559,-3.1559,-3.1559,-3.1251,-3.0737,-3.0358,-2.9893,-2.9583,-2.9392,-2.9645,-3.0014,-3.0381,-3.0629,-3.0711,-3.064,-3.075,-3.1031,-3.1121,-3.1538,-3.1909,-3.1977,-3.175,-3.1453,-3.0982,-3.0467,-2.9927,-2.9482,-2.9154,-2.9105,-2.9049,-2.9052,-2.9178,-2.9251,-2.965,-2.9857,-3.036,-3.1138,-3.166,-3.2317,-3.2375,-3.251,-3.2165,-3.1707,-3.1475,-3.101,-3.0675,-3.0214,-2.9467,-2.8931,-2.8644,-2.8277,-2.7969,-2.7609,-2.731,-2.6363,-3.1859,-3.2748,-3.2793,-3.2763,-3.2778,-3.2689,-3.2409,-3.1966,-3.1418,-3.0973,-3.0616,-3.0093,-3.0169,-3.0526,-3.0973,-3.1685,-3.2071,-3.1694,-3.1197,-3.0914,-2.9981,-2.9373,-2.9619,-2.9566,-2.9593,-2.9753,-2.9806,-2.9753,-2.9606,-2.9224,-2.9072,-2.8871,-2.843,-2.811,-2.803,-2.7843,-2.7682,-2.7402,-2.7081,-2.676,-2.66,-2.636,-2.6026,-2.5504,-2.5438,-2.5246,-2.4898,-2.4863,-2.4903,-2.475,-2.5786,-2.6867,-2.781,-2.8891,-3.0053,-3.0922,-3.1347,-3.1559,-3.1559,-3.1559,-3.1559,-3.1559,-3.1559,-3.1388,-3.0907,-3.0405,-2.999,-2.9633,-2.9695,-3.009,-3.0733,-3.1126,-3.1488,-3.1638,-3.1559,-3.1486,-3.1772,-3.1883,-3.1859,-3.2036,-3.1946,-3.1761,-3.1439,-3.108,-3.0569,-3.0103,-2.9761,-2.9562,-2.961,-2.9473,-2.9448,-2.9559,-2.9734,-3.0262,-3.0713,-3.1178,-3.1767,-3.2181,-3.255,-3.2289,-3.2278,-3.1881,-3.1565,-3.1375,-3.1076,-3.0578,-3.0079,-2.957,-2.9295,-2.8991,-2.8509,-2.814,-2.782,-2.7418,-2.6537,-3.1841,-3.2778,-3.2763,-3.2763,-3.2763,-3.2763,-3.2689,-3.2321,-3.1863,-3.1418,-3.0973,-3.0705,-3.0616,-3.0794,-3.1329,-3.2143,-3.2351,-3.1926,-3.1469,-3.1128,-3.0356,-2.977,-2.99,-2.9753,-2.9806,-2.9887,-2.9913,-2.9913,-2.9873,-2.9486,-2.9272,-2.9125,-2.8671,-2.839,-2.831,-2.8096,-2.7856,-2.7655,-2.7295,-2.6974,-2.6814,-2.6533,-2.6146,-2.5865,-2.5859,-2.5729,-2.5833,-2.5852,-2.6182,-2.6589,-2.7608,-2.8388,-2.9107,-2.9981,-3.0993,-3.1489,-3.1559,-3.1559,-3.1559,-3.1559,-3.1559,-3.1559,-3.1559,-3.1388,-3.106,-3.0643,-3.0256,-2.9996,-3.0012,-3.0463,-3.1209,-3.1637,-3.204,-3.2295,-3.2284,-3.2137,-3.2204,-3.2341,-3.2258,-3.2131,-3.1993,-3.182,-3.1474,-3.1076,-3.0644,-3.0231,-2.9992,-3.0,-3.0052,-2.9901,-2.972,-3.0064,-3.0336,-3.0922,-3.1414,-3.2033,-3.2457,-3.2858,-3.2819,-3.2556,-3.2235,-3.1896,-3.1622,-3.1362,-3.0959,-3.0671,-3.0447,-3.0173,-2.9701,-2.9285,-2.8992,-2.8591,-2.8057,-2.7525,-2.6573,-3.1926,-3.2763,-3.2763,-3.2763,-3.2763,-3.2763,-3.2763,-3.2675,-3.2232,-3.1788,-3.1507,-3.1329,-3.1151,-3.1151,-3.1699,-3.2409,-3.2763,-3.2129,-3.1582,-3.1226,-3.0575,-3.0169,-2.999,-2.9913,-2.99,-2.99,-2.9913,-2.9913,-2.986,-2.9593,-2.9499,-2.9285,-2.8885,-2.8604,-2.8511,-2.8243,-2.8003,-2.7789,-2.7495,-2.7201,-2.6841,-2.6772,-2.6632,-2.6466,-2.6607,-2.7052,-2.7329,-2.7447,-2.7614,-2.8228,-2.9017,-2.9792,-3.0014,-3.0922,-3.1559,-3.1559,-3.1559,-3.1559,-3.1559,-3.1559,-3.1559,-3.1559,-3.1559,-3.1388,-3.1232,-3.1037,-3.0781,-3.0579,-3.0513,-3.0838,-3.1543,-3.1972,-3.2445,-3.2787,-3.2924,-3.285,-3.2682,-3.2618,-3.2565,-3.2449,-3.2172,-3.189,-3.1566,-3.1297,-3.0858,-3.0468,-3.0205,-3.0205,-3.0269,-3.0101,-3.0152,-3.0542,-3.0928,-3.149,-3.2174,-3.2834,-3.3198,-3.3576,-3.3375,-3.2995,-3.257,-3.2122,-3.1806,-3.1487,-3.1385,-3.1124,-3.0869,-3.0585,-3.0012,-2.9649,-2.945,-2.9077,-2.8419,-2.757,-2.6628,-3.2261,-3.2763,-3.2763,-3.2763,-3.2763,-3.2763,-3.2778,-3.2675,-3.2232,-3.1966,-3.1788,-3.1507,-3.1596,-3.1877,-3.2321,-3.2689,-3.2498,-3.1877,-3.1418,-3.1151,-3.0437,-3.0003,-2.9913,-2.9913,-2.9913,-2.9913,-2.9913,-2.9913,-2.986,-2.9646,-2.9499,-2.9366,-2.8965,-2.8604,-2.8577,-2.8297,-2.8221,-2.8114,-2.7776,-2.7362,-2.7122,-2.7643,-2.7714,-2.8066,-2.8593,-2.9166,-2.8958,-2.9063,-2.9196,-2.9001,-2.9856,-3.0146,-3.0063,-3.0993,-3.1489,-3.1559,-3.1559,-3.1559,-3.1559,-3.1559,-3.1559,-3.1559,-3.1559,-3.1542,-3.1489,-3.1257,-3.1103,-3.0943,-3.0959,-3.1325,-3.1974,-3.2385,-3.2924,-3.3357,-3.3597,-3.3483,-3.3365,-3.2892,-3.2835,-3.252,-3.2191,-3.1977,-3.1706,-3.1389,-3.1101,-3.0794,-3.0554,-3.056,-3.0558,-3.0557,-3.0539,-3.0959,-3.1712,-3.238,-3.3119,-3.3687,-3.4256,-3.4506,-3.3962,-3.3463,-3.3051,-3.2577,-3.1993,-3.171,-3.1637,-3.1651,-3.1566,-3.115,-3.0424,-2.9987,-2.9757,-2.9258,-2.869,-2.7772,-2.6742,-3.2586,-3.2763,-3.2763,-3.2763,-3.2763,-3.2763,-3.2586,-3.2424,-3.2409,-3.2143,-3.1774,-3.204,-3.2232,-3.2498,-3.2778,-3.2763,-3.2586,-3.1774,-3.1329,-3.1151,-3.0451,-2.9913,-2.9913,-2.9913,-2.9913,-2.9913,-2.9913,-2.9913,-2.986,-2.9793,-2.9673,-2.9432,-2.9072,-2.8751,-2.8657,-2.831,-2.8261,-2.8087,-2.7779,-2.7744,-2.8064,-2.831,-2.8666,-2.9383,-2.9897,-3.0206,-3.0473,-3.0545,-3.0884,-3.086,-3.1393,-3.1265,-3.1136,-3.1412,-3.1559,-3.1559,-3.1559,-3.1559,-3.1559,-3.1559,-3.1559,-3.1559,-3.1593,-3.1645,-3.1779,-3.1786,-3.1705,-3.1963,-3.1733,-3.1974,-3.2549,-3.2924,-3.3248,-3.3683,-3.3966,-3.377,-3.3614,-3.3287,-3.2994,-3.2611,-3.2284,-3.2234,-3.198,-3.1621,-3.1433,-3.113,-3.1032,-3.1056,-3.1111,-3.1208,-3.1285,-3.1461,-3.2364,-3.3243,-3.4086,-3.4767,-3.5473,-3.5493,-3.4593,-3.4171,-3.356,-3.3051,-3.2434,-3.209,-3.2032,-3.209,-3.2207,-3.1728,-3.0951,-3.0467,-3.0065,-2.959,-2.9065,-2.7738,-2.6713,-3.2763,-3.2763,-3.2763,-3.2763,-3.2763,-3.2689,-3.2512,-3.2321,-3.2409,-3.2232,-3.204,-3.2409,-3.2763,-3.2763,-3.2778,-3.2763,-3.2675,-3.1774,-3.1418,-3.0973,-3.0437,-3.0003,-2.9913,-2.9913,-2.9913,-2.9913,-2.9913,-2.9913,-2.9913,-2.9873,-2.978,-2.9579,-2.9312,-2.9072,-2.8804,-2.8583,-2.8439,-2.8839,-2.8827,-2.9133,-2.969,-2.9641,-3.0151,-3.0731,-3.1135,-3.1297,-3.1847,-3.2041,-3.2401,-3.2493,-3.2475,-3.2321,-3.2117,-3.1882,-3.1782,-3.1765,-3.1765,-3.1679,-3.1611,-3.1559,-3.1559,-3.1593,-3.1748,-3.1953,-3.2398,-3.2363,-3.2408,-3.2719,-3.2436,-3.264,-3.3095,-3.3323,-3.3648,-3.3898,-3.4163,-3.3869,-3.3553,-3.3401,-3.3283,-3.3082,-3.2841,-3.2824,-3.2505,-3.1993,-3.1703,-3.1487,-3.1489,-3.1613,-3.1686,-3.1795,-3.1898,-3.2087,-3.3487,-3.4314,-3.4757,-3.5561,-3.6306,-3.6525,-3.5613,-3.4779,-3.419,-3.3482,-3.2675,-3.2515,-3.2412,-3.2339,-3.2324,-3.1945,-3.1511,-3.0908,-3.0385,-3.0101,-2.9472,-2.8078,-2.6703,-3.2763,-3.2763,-3.2763,-3.2763,-3.2778,-3.2232,-3.2321,-3.2498,-3.2232,-3.2321,-3.2586,-3.2763,-3.2763,-3.2763,-3.2763,-3.2763,-3.2763,-3.1774,-3.1418,-3.0973,-3.0437,-3.0003,-2.9913,-2.9913,-3.0003,-3.0003,-3.0093,-3.0093,-2.9913,-3.0003,-2.99,-2.9833,-2.9513,-2.9446,-2.9293,-2.9036,-2.9182,-2.9789,-3.0384,-3.104,-3.1492,-3.1714,-3.2138,-3.2463,-3.3082,-3.3592,-3.3651,-3.35,-3.3313,-3.3254,-3.3083,-3.2912,-3.2638,-3.2296,-3.2107,-3.209,-3.209,-3.197,-3.1816,-3.1748,-3.1698,-3.1679,-3.1953,-3.2415,-3.2912,-3.2809,-3.2912,-3.3237,-3.3129,-3.3095,-3.3409,-3.3597,-3.4042,-3.4239,-3.4443,-3.4211,-3.3905,-3.3624,-3.3532,-3.3433,-3.3315,-3.3201,-3.3156,-3.2633,-3.2165,-3.2009,-3.1909,-3.2008,-3.2099,-3.2249,-3.2439,-3.3078,-3.465,-3.546,-3.551,-3.628,-3.7368,-3.7349,-3.6523,-3.5604,-3.4797,-3.4001,-3.2895,-3.2837,-3.2719,-3.2588,-3.2485,-3.2339,-3.2004,-3.1204,-3.0733,-3.0397,-2.9488,-2.8107,-2.6723,-3.2763,-3.2763,-3.2763,-3.2586,-3.2321,-3.2054,-3.1966,-3.1951,-3.1966,-3.2321,-3.2763,-3.2763,-3.2763,-3.2763,-3.2763,-3.2763,-3.2675,-3.1774,-3.1418,-3.0973,-3.0437,-3.0003,-3.0003,-3.0182,-3.0361,-3.0361,-3.0526,-3.0526,-3.0361,-3.0272,-3.0093,-2.9909,-2.9722,-2.9379,-2.9313,-2.9872,-3.034,-3.0675,-3.155,-3.234,-3.3095,-3.2938,-3.3326,-3.439,-3.4243,-3.4402,-3.4231,-3.4179,-3.3939,-3.3665,-3.3426,-3.322,-3.3032,-3.2672,-3.2501,-3.2467,-3.2467,-3.2364,-3.2244,-3.221,-3.2244,-3.233,-3.2621,-3.2981,-3.3357,-3.3494,-3.3734,-3.3922,-3.4025,-3.4059,-3.4282,-3.4453,-3.4642,-3.4735,-3.466,-3.4488,-3.4189,-3.3806,-3.3677,-3.3558,-3.3521,-3.347,-3.3463,-3.3345,-3.2868,-3.2453,-3.2472,-3.2409,-3.2542,-3.2951,-3.3318,-3.3975,-3.5629,-3.7078,-3.7241,-3.7928,-3.8666,-3.7972,-3.7337,-3.6138,-3.5003,-3.3977,-3.3115,-3.3071,-3.3056,-3.2983,-3.2954,-3.2983,-3.2422,-3.1572,-3.0959,-3.0565,-2.9469,-2.8063,-2.6713,-3.2763,-3.2763,-3.2763,-3.2586,-3.2232,-3.2054,-3.1966,-3.1774,-3.1966,-3.2321,-3.2763,-3.2763,-3.2763,-3.2763,-3.2763,-3.2763,-3.2498,-3.1863,-3.1418,-3.0973,-3.0526,-3.0182,-3.0272,-3.0526,-3.0794,-3.0884,-3.1062,-3.1062,-3.054,-3.0629,-3.0272,-3.0025,-3.0069,-3.0043,-2.9819,-3.0892,-3.1825,-3.2179,-3.3156,-3.3994,-3.49,-3.4517,-3.4346,-3.539,-3.5172,-3.483,-3.4556,-3.4436,-3.4248,-3.3957,-3.37,-3.3494,-3.3306,-3.3117,-3.2912,-3.2861,-3.2844,-3.2809,-3.2724,-3.2672,-3.2741,-3.2826,-3.3015,-3.3306,-3.3683,-3.4094,-3.4248,-3.4539,-3.4847,-3.5138,-3.5251,-3.5292,-3.5202,-3.5231,-3.5016,-3.4847,-3.426,-3.3791,-3.3756,-3.3651,-3.3597,-3.3521,-3.3445,-3.336,-3.2988,-3.2711,-3.2614,-3.2661,-3.2866,-3.3455,-3.4399,-3.531,-3.6551,-3.7919,-3.9149,-3.9236,-3.9078,-3.8224,-3.7379,-3.6083,-3.4894,-3.3916,-3.3422,-3.3393,-3.3393,-3.3378,-3.3288,-3.3273,-3.2621,-3.1723,-3.0958,-3.0214,-2.9027,-2.7697,-2.6803,-3.2778,-3.2763,-3.2778,-3.2763,-3.2675,-3.2232,-3.2232,-3.2409,-3.2232,-3.2321,-3.2778,-3.2763,-3.2763,-3.2763,-3.2763,-3.2763,-3.2586,-3.1774,-3.1329,-3.1151,-3.0705,-3.0526,-3.0705,-3.0973,-3.1329,-3.1329,-3.1418,-3.1329,-3.0705,-3.1062,-3.0705,-3.0705,-3.117,-3.1394,-3.028,-3.2383,-3.4042,-3.5016,-3.6142,-3.6609,-3.6554,-3.5994,-3.5918,-3.5828,-3.5498,-3.5138,-3.4933,-3.4727,-3.4522,-3.4248,-3.4076,-3.3905,-3.3785,-3.3511,-3.334,-3.3323,-3.3272,-3.31,-3.2775,-3.2724,-3.2998,-3.3289,-3.3511,-3.37,-3.4179,-3.447,-3.4624,-3.495,-3.5433,-3.556,-3.5817,-3.6029,-3.5918,-3.5649,-3.5425,-3.5015,-3.4441,-3.3886,-3.3848,-3.3953,-3.3646,-3.3329,-3.337,-3.3201,-3.3028,-3.2808,-3.2837,-3.3014,-3.3383,-3.4213,-3.5285,-3.6788,-3.7929,-3.871,-3.9826,-3.9773,-3.9488,-3.8562,-3.728,-3.5837,-3.4982,-3.4297,-3.389,-3.3773,-3.3729,-3.3715,-3.3638,-3.3638,-3.2899,-3.2099,-3.0451,-2.9339,-2.8335,-2.7463,-2.6697,-3.2498,-3.2763,-3.2409,-3.2498,-3.2675,-3.2232,-3.2143,-3.2321,-3.2409,-3.2675,-3.2763,-3.2763,-3.2763,-3.2763,-3.2763,-3.2763,-3.2586,-3.1774,-3.1329,-3.124,-3.0884,-3.0616,-3.0884,-3.1507,-3.1863,-3.1877,-3.1966,-3.1951,-3.1062,-3.1937,-3.1937,-3.1848,-3.2631,-3.3073,-3.3219,-3.4396,-3.5521,-3.5743,-3.6694,-3.7467,-3.7193,-3.6748,-3.6457,-3.644,-3.5943,-3.5583,-3.5344,-3.5121,-3.4881,-3.4573,-3.4402,-3.4419,-3.4265,-3.3991,-3.3991,-3.3905,-3.3837,-3.3597,-3.3546,-3.3648,-3.3871,-3.3974,-3.4025,-3.4213,-3.471,-3.5018,-3.5189,-3.5553,-3.6313,-3.6477,-3.6465,-3.6731,-3.659,-3.6072,-3.5692,-3.5161,-3.4631,-3.4154,-3.3969,-3.4134,-3.407,-3.3659,-3.3523,-3.3412,-3.3145,-3.3337,-3.3352,-3.4127,-3.468,-3.5292,-3.6237,-3.8191,-3.9545,-3.9982,-4.0315,-3.9888,-3.897,-3.7805,-3.659,-3.5264,-3.4568,-3.4358,-3.4241,-3.4066,-3.4051,-3.4051,-3.3988,-3.3848,-3.3372,-3.2454,-3.0702,-2.908,-2.8033,-2.7471,-2.7061,-3.2232,-3.2498,-3.2143,-3.2143,-3.2498,-3.2321,-3.2232,-3.2321,-3.2689,-3.2763,-3.2763,-3.2763,-3.2763,-3.2763,-3.2763,-3.2763,-3.2675,-3.1774,-3.1507,-3.1418,-3.1062,-3.1418,-3.1937,-3.2557,-3.3528,-3.3528,-3.388,-3.388,-3.3322,-3.3777,-3.3865,-3.3865,-3.4391,-3.509,-3.551,-3.6069,-3.6366,-3.677,-3.7675,-3.7878,-3.7604,-3.7279,-3.697,-3.6782,-3.6457,-3.6097,-3.5789,-3.5532,-3.5292,-3.495,-3.4847,-3.4881,-3.4659,-3.459,-3.4522,-3.435,-3.4059,-3.3854,-3.3871,-3.4128,-3.4299,-3.4539,-3.459,-3.4847,-3.5241,-3.5549,-3.5994,-3.6557,-3.7354,-3.727,-3.702,-3.7287,-3.7173,-3.6644,-3.5721,-3.5184,-3.4851,-3.4386,-3.434,-3.4555,-3.4454,-3.4025,-3.3694,-3.359,-3.3466,-3.3705,-3.4036,-3.4924,-3.5993,-3.6733,-3.7468,-3.9113,-4.0543,-4.0931,-4.052,-3.9621,-3.8539,-3.7115,-3.5972,-3.4789,-3.4666,-3.4534,-3.4446,-3.4373,-3.4373,-3.428,-3.4152,-3.3945,-3.3318,-3.2379,-3.0978,-2.9405,-2.7911,-2.7442,-2.7249,-3.1966,-3.1966,-3.1966,-3.1966,-3.2054,-3.2498,-3.2763,-3.2778,-3.2778,-3.2763,-3.2763,-3.2763,-3.2763,-3.2763,-3.2763,-3.2763,-3.2586,-3.1685,-3.1596,-3.1774,-3.1596,-3.2469,-3.3513,-3.4391,-3.509,-3.6134,-3.6394,-3.57,-3.5928,-3.5597,-3.5613,-3.6047,-3.6134,-3.6757,-3.7102,-3.7086,-3.7155,-3.7707,-3.8032,-3.8169,-3.7998,-3.7792,-3.7467,-3.7176,-3.6782,-3.6422,-3.6097,-3.5806,-3.5566,-3.5344,-3.5224,-3.5087,-3.5001,-3.5001,-3.4744,-3.4453,-3.4111,-3.4042,-3.4076,-3.4402,-3.4659,-3.495,-3.5052,-3.5446,-3.5789,-3.6011,-3.6402,-3.7333,-3.8174,-3.7848,-3.7573,-3.7712,-3.7758,-3.6793,-3.5743,-3.5253,-3.4949,-3.4789,-3.4886,-3.4853,-3.4668,-3.4261,-3.3827,-3.3685,-3.3802,-3.4271,-3.4772,-3.6002,-3.7019,-3.8408,-3.9171,-3.9813,-4.1054,-4.1603,-4.0884,-3.9059,-3.7847,-3.6344,-3.5615,-3.471,-3.468,-3.468,-3.4607,-3.4563,-3.4651,-3.4572,-3.442,-3.3858,-3.3027,-3.1975,-3.1191,-2.9778,-2.8404,-2.7827,-2.7634,-3.1685,-3.1966,-3.1254,-3.1432,-3.2054,-3.2601,-3.2763,-3.2763,-3.2763,-3.2763,-3.2763,-3.2763,-3.2763,-3.2763,-3.2763,-3.2586,-3.2143,-3.1596,-3.124,-3.1418,-3.2292,-3.2984,-3.4128,-3.551,-3.6394,-3.6827,-3.6999,-3.7086,-3.6464,-3.6394,-3.7275,-3.798,-3.7722,-3.8066,-3.8066,-3.7894,-3.8066,-3.8152,-3.8323,-3.8323,-3.8238,-3.7981,-3.7724,-3.7467,-3.7005,-3.6679,-3.644,-3.6148,-3.5909,-3.5583,-3.572,-3.5686,-3.5361,-3.5344,-3.5189,-3.4864,-3.471,-3.4676,-3.471,-3.4984,-3.5241,-3.5412,-3.5618,-3.5977,-3.6251,-3.6534,-3.6858,-3.8011,-3.8986,-3.8804,-3.83,-3.8105,-3.7641,-3.6481,-3.566,-3.5435,-3.5231,-3.5428,-3.5558,-3.53,-3.5103,-3.4412,-3.3982,-3.4007,-3.4216,-3.4703,-3.55,-3.6709,-3.7778,-3.9051,-4.0175,-4.08,-4.0621,-4.0954,-3.9374,-3.7544,-3.6575,-3.5615,-3.5069,-3.471,-3.4695,-3.4695,-3.471,-3.471,-3.471,-3.471,-3.4695,-3.393,-3.3257,-3.2597,-3.1813,-3.0306,-2.9076,-2.8596,-2.8404,-3.1596,-3.1685,-3.1329,-3.161,-3.2321,-3.2689,-3.2763,-3.2763,-3.2763,-3.2763,-3.2763,-3.2763,-3.2763,-3.2763,-3.2778,-3.2689,-3.2321,-3.1951,-3.1863,-3.2984,-3.3337,-3.4638,-3.5771,-3.6913,-3.8049,-3.8306,-3.8477,-3.8802,-3.8118,-3.8118,-3.8837,-3.911,-3.8922,-3.8837,-3.8854,-3.8683,-3.8597,-3.8512,-3.8426,-3.8323,-3.822,-3.8083,-3.7964,-3.7707,-3.721,-3.7039,-3.685,-3.6577,-3.6388,-3.62,-3.6474,-3.644,-3.6097,-3.596,-3.5566,-3.5241,-3.4984,-3.5035,-3.5155,-3.5498,-3.5755,-3.5994,-3.6285,-3.6696,-3.7063,-3.7297,-3.8024,-3.8976,-3.9559,-3.9896,-3.9116,-3.8342,-3.7148,-3.601,-3.5848,-3.5684,-3.5906,-3.6144,-3.6066,-3.5844,-3.5365,-3.4661,-3.4319,-3.4436,-3.4603,-3.5126,-3.5975,-3.7281,-3.803,-3.8736,-4.0078,-4.0954,-4.0231,-3.9698,-3.7991,-3.6653,-3.6126,-3.5488,-3.4976,-3.471,-3.471,-3.4724,-3.4753,-3.4724,-3.471,-3.471,-3.4724,-3.4212,-3.3634,-3.2974,-3.2421,-3.1379,-3.0319,-2.965,-2.965,-3.1685,-3.1315,-3.1774,-3.2143,-3.2675,-3.2778,-3.2763,-3.2763,-3.2763,-3.2763,-3.2763,-3.2763,-3.2763,-3.2763,-3.2763,-3.2689,-3.2586,-3.2395,-3.2911,-3.4725,-3.49,-3.6031,-3.7602,-3.9075,-3.9604,-4.0554,-4.0807,-4.0198,-4.0639,-4.0372,-3.9813,-3.9809,-3.9621,-3.9536,-3.9451,-3.9025,-3.8854,-3.8768,-3.8494,-3.8323,-3.8323,-3.8255,-3.8169,-3.7895,-3.7707,-3.757,-3.733,-3.721,-3.721,-3.7193,-3.7159,-3.7107,-3.6868,-3.6577,-3.608,-3.584,-3.5618,-3.5652,-3.584,-3.6131,-3.6354,-3.6645,-3.6987,-3.7394,-3.7695,-3.7988,-3.8665,-3.9576,-4.0299,-4.018,-3.9573,-3.8856,-3.7862,-3.674,-3.6176,-3.6363,-3.6724,-3.6998,-3.7038,-3.6688,-3.5945,-3.5222,-3.4955,-3.5059,-3.4636,-3.5335,-3.6312,-3.7718,-3.7991,-3.8451,-3.92,-4.0402,-3.9458,-3.8391,-3.7303,-3.6139,-3.5858,-3.5375,-3.5029,-3.49,-3.5046,-3.4944,-3.4797,-3.4827,-3.4871,-3.4768,-3.4645,-3.4334,-3.393,-3.3257,-3.2705,-3.2246,-3.1595,-3.0777,-3.0612,-3.1685,-3.1329,-3.1418,-3.1774,-3.2232,-3.2586,-3.2763,-3.2763,-3.2763,-3.2763,-3.2763,-3.2763,-3.2763,-3.2763,-3.2763,-3.2675,-3.2409,-3.319,-3.3601,-3.49,-3.5858,-3.7378,-3.8734,-3.9961,-4.0657,-4.0976,-4.106,-4.1097,-4.1013,-4.0838,-4.0655,-4.0251,-4.0046,-3.9858,-3.9791,-3.9366,-3.9025,-3.9025,-3.858,-3.8323,-3.8323,-3.8323,-3.8238,-3.8083,-3.7964,-3.7792,-3.757,-3.7381,-3.7296,-3.721,-3.721,-3.7193,-3.7176,-3.7005,-3.6902,-3.6799,-3.6559,-3.6559,-3.6662,-3.6799,-3.6953,-3.7022,-3.7328,-3.7934,-3.832,-3.856,-3.9109,-4.0179,-4.0658,-4.0501,-4.004,-3.9289,-3.8563,-3.7491,-3.6593,-3.7047,-3.7574,-3.7769,-3.7947,-3.7305,-3.6575,-3.6065,-3.5783,-3.539,-3.5044,-3.5573,-3.6587,-3.7491,-3.7256,-3.7454,-3.7518,-3.8348,-3.7915,-3.6962,-3.6215,-3.5896,-3.5658,-3.5682,-3.539,-3.5339,-3.5464,-3.528,-3.5178,-3.509,-3.5046,-3.4988,-3.49,-3.4645,-3.4255,-3.3573,-3.3047,-3.2654,-3.2245,-3.1531,-3.1627,-3.2054,-3.1596,-3.1596,-3.1877,-3.2321,-3.2689,-3.2763,-3.2763,-3.2763,-3.2763,-3.2763,-3.2763,-3.2763,-3.2763,-3.2763,-3.2763,-3.266,-3.3792,-3.4741,-3.5787,-3.7188,-3.8787,-3.9983,-4.0663,-4.1172,-4.1445,-4.1354,-4.1317,-4.1207,-4.102,-4.0868,-4.0693,-4.0403,-4.0336,-4.0233,-3.9706,-3.9298,-3.9281,-3.87,-3.8357,-3.8357,-3.834,-3.8323,-3.822,-3.8152,-3.7998,-3.7964,-3.7809,-3.7758,-3.7724,-3.7758,-3.7604,-3.7553,-3.7433,-3.733,-3.721,-3.7142,-3.7279,-3.7398,-3.7467,-3.7518,-3.7587,-3.769,-3.8388,-3.9165,-3.9444,-4.0362,-4.1305,-4.1638,-4.1499,-4.0487,-3.9657,-3.8752,-3.7795,-3.7326,-3.7403,-3.7941,-3.849,-3.858,-3.8396,-3.7533,-3.6524,-3.6175,-3.5836,-3.5441,-3.5409,-3.6631,-3.6884,-3.6776,-3.6761,-3.6792,-3.6776,-3.6713,-3.6445,-3.5946,-3.5764,-3.5699,-3.5654,-3.5816,-3.5713,-3.5669,-3.5698,-3.5654,-3.5441,-3.5353,-3.5324,-3.5207,-3.4951,-3.4521,-3.39,-3.3407,-3.301,-3.2624,-3.2372,-3.2381,-3.2512,-3.2143,-3.2054,-3.2321,-3.2763,-3.2763,-3.2763,-3.2763,-3.2763,-3.2763,-3.2763,-3.2763,-3.2763,-3.2763,-3.2852,-3.294,-3.3455,-3.4756,-3.5787,-3.7172,-3.8648,-3.9884,-4.0777,-4.139,-4.1666,-4.1904,-4.1941,-4.1647,-4.139,-4.1434,-4.1488,-4.128,-4.1207,-4.1244,-4.0953,-4.039,-3.9763,-3.9595,-3.9183,-3.858,-3.8443,-3.8357,-3.834,-3.8323,-3.8323,-3.8323,-3.8323,-3.8323,-3.8306,-3.8272,-3.8203,-3.8049,-3.7929,-3.7827,-3.769,-3.757,-3.7535,-3.7655,-3.7758,-3.7844,-3.7998,-3.8169,-3.8409,-3.8974,-3.9809,-4.0796,-4.1639,-4.2227,-4.2496,-4.2134,-4.1111,-4.0215,-3.9392,-3.8811,-3.843,-3.8161,-3.8851,-3.9348,-3.9441,-3.9424,-3.8502,-3.7427,-3.6841,-3.6436,-3.6044,-3.5916,-3.5941,-3.6167,-3.6293,-3.6524,-3.6694,-3.6594,-3.6556,-3.6119,-3.5786,-3.5734,-3.5763,-3.5909,-3.6027,-3.5866,-3.5792,-3.5939,-3.5939,-3.5845,-3.569,-3.5646,-3.5477,-3.5154,-3.4678,-3.4156,-3.3657,-3.3147,-3.3084,-3.2839,-3.3053,-3.2778,-3.2601,-3.2232,-3.2321,-3.2763,-3.2763,-3.2763,-3.2763,-3.2763,-3.2763,-3.2763,-3.2763,-3.2763,-3.2852,-3.2763,-3.319,-3.4319,-3.57,-3.7258,-3.8648,-3.9845,-4.0862,-4.158,-4.1867,-4.1922,-4.2124,-4.2362,-4.2362,-4.1904,-4.2161,-4.2307,-4.1977,-4.1977,-4.1977,-4.1768,-4.1142,-4.0342,-4.0085,-3.9548,-3.8958,-3.894,-3.8768,-3.8375,-3.8323,-3.8323,-3.8323,-3.8323,-3.8323,-3.8323,-3.8323,-3.8323,-3.8272,-3.8203,-3.8152,-3.8049,-3.7981,-3.7946,-3.7998,-3.8101,-3.8186,-3.8357,-3.8649,-3.9096,-3.999,-4.1002,-4.2159,-4.2923,-4.3496,-4.3515,-4.3018,-4.2173,-4.1528,-4.0788,-4.0612,-4.0407,-4.0356,-4.0772,-4.0937,-4.1067,-4.052,-3.9642,-3.8749,-3.7883,-3.7313,-3.6551,-3.6371,-3.6201,-3.6443,-3.6804,-3.6753,-3.6731,-3.6657,-3.6609,-3.6327,-3.6124,-3.61,-3.6158,-3.629,-3.6363,-3.6231,-3.6231,-3.6407,-3.6348,-3.61,-3.5983,-3.5939,-3.5672,-3.5449,-3.4892,-3.4324,-3.3727,-3.3282,-3.3184,-3.3334,-3.3547]}]]